<?xml version="1.0" encoding="utf-8"?>
<gpx xmlns:xsi="http://www.w3.org/2001/XMLSchema-instance" xmlns:xsd="http://www.w3.org/2001/XMLSchema" version="1.1" creator="Shapelink.com" xmlns="http://www.topografix.com/GPX/1/1" xmlns:gpxtpx="http://www.garmin.com/xmlschemas/TrackPointExtension/v1">
  <metadata>
    <name>Löpning 6.85 km, 2017-10-23</name>
    <desc></desc>
    <author><name>Bengt-Åke Forslund</name></author> 
    <time>2017-10-23T18:02:36Z</time>
  </metadata>
  <trk>
    <name>Löpning 6.85 km, 2017-10-23</name>
    <trkseg>
      <trkpt lat="62.637363785479" lon="17.966102753484">
        <ele>52.2</ele>
        <time>2017-10-23T18:02:36Z</time>
      </trkpt>
      <trkpt lat="62.637198913506" lon="17.966281539411">
        <ele>51.8</ele>
        <time>2017-10-23T18:07:38Z</time>
      </trkpt>
      <trkpt lat="62.637195979841" lon="17.966335686485">
        <ele>51.8</ele>
        <time>2017-10-23T18:07:39Z</time>
      </trkpt>
      <trkpt lat="62.637197069488" lon="17.966394192147">
        <ele>51.8</ele>
        <time>2017-10-23T18:07:40Z</time>
      </trkpt>
      <trkpt lat="62.637199164963" lon="17.966463929555">
        <ele>51.8</ele>
        <time>2017-10-23T18:07:41Z</time>
      </trkpt>
      <trkpt lat="62.637207295406" lon="17.966510700557">
        <ele>52</ele>
        <time>2017-10-23T18:07:42Z</time>
      </trkpt>
      <trkpt lat="62.637215006754" lon="17.966561075776">
        <ele>52</ele>
        <time>2017-10-23T18:07:43Z</time>
      </trkpt>
      <trkpt lat="62.637229423622" lon="17.966622682741">
        <ele>52</ele>
        <time>2017-10-23T18:07:44Z</time>
      </trkpt>
      <trkpt lat="62.637243505214" lon="17.966669872838">
        <ele>52.2</ele>
        <time>2017-10-23T18:07:45Z</time>
      </trkpt>
      <trkpt lat="62.637257167711" lon="17.966723265541">
        <ele>52.2</ele>
        <time>2017-10-23T18:07:46Z</time>
      </trkpt>
      <trkpt lat="62.637274685882" lon="17.966767521973">
        <ele>52.2</ele>
        <time>2017-10-23T18:07:47Z</time>
      </trkpt>
      <trkpt lat="62.637287091094" lon="17.966807084541">
        <ele>52.4</ele>
        <time>2017-10-23T18:07:48Z</time>
      </trkpt>
      <trkpt lat="62.6373016756" lon="17.96685662157">
        <ele>52.4</ele>
        <time>2017-10-23T18:07:49Z</time>
      </trkpt>
      <trkpt lat="62.637316260106" lon="17.96689517831">
        <ele>52.4</ele>
        <time>2017-10-23T18:07:50Z</time>
      </trkpt>
      <trkpt lat="62.637333862096" lon="17.966938931828">
        <ele>52.4</ele>
        <time>2017-10-23T18:07:51Z</time>
      </trkpt>
      <trkpt lat="62.637349787706" lon="17.966972459428">
        <ele>52.4</ele>
        <time>2017-10-23T18:07:52Z</time>
      </trkpt>
      <trkpt lat="62.637365545678" lon="17.967012273453">
        <ele>52.2</ele>
        <time>2017-10-23T18:07:53Z</time>
      </trkpt>
      <trkpt lat="62.637379040537" lon="17.967062900129">
        <ele>52.2</ele>
        <time>2017-10-23T18:07:54Z</time>
      </trkpt>
      <trkpt lat="62.637389182636" lon="17.967096092453">
        <ele>52.4</ele>
        <time>2017-10-23T18:07:55Z</time>
      </trkpt>
      <trkpt lat="62.637401336391" lon="17.967136660849">
        <ele>52.2</ele>
        <time>2017-10-23T18:07:56Z</time>
      </trkpt>
      <trkpt lat="62.637414663612" lon="17.967179408539">
        <ele>52.2</ele>
        <time>2017-10-23T18:07:57Z</time>
      </trkpt>
      <trkpt lat="62.637423716064" lon="17.967221820953">
        <ele>52.2</ele>
        <time>2017-10-23T18:07:58Z</time>
      </trkpt>
      <trkpt lat="62.637435115448" lon="17.967275046018">
        <ele>52.2</ele>
        <time>2017-10-23T18:07:59Z</time>
      </trkpt>
      <trkpt lat="62.637445089909" lon="17.967318296622">
        <ele>52.2</ele>
        <time>2017-10-23T18:08:00Z</time>
      </trkpt>
      <trkpt lat="62.637459087682" lon="17.967365235262">
        <ele>52.2</ele>
        <time>2017-10-23T18:08:01Z</time>
      </trkpt>
      <trkpt lat="62.637472163446" lon="17.967416448671">
        <ele>52.2</ele>
        <time>2017-10-23T18:08:02Z</time>
      </trkpt>
      <trkpt lat="62.637484484839" lon="17.967462130026">
        <ele>52.2</ele>
        <time>2017-10-23T18:08:03Z</time>
      </trkpt>
      <trkpt lat="62.637495213671" lon="17.967507811381">
        <ele>52.2</ele>
        <time>2017-10-23T18:08:04Z</time>
      </trkpt>
      <trkpt lat="62.637508792349" lon="17.96755734841">
        <ele>52.2</ele>
        <time>2017-10-23T18:08:05Z</time>
      </trkpt>
      <trkpt lat="62.637522706303" lon="17.967599425548">
        <ele>52.2</ele>
        <time>2017-10-23T18:08:06Z</time>
      </trkpt>
      <trkpt lat="62.637534105687" lon="17.967644687808">
        <ele>52.2</ele>
        <time>2017-10-23T18:08:07Z</time>
      </trkpt>
      <trkpt lat="62.637547684365" lon="17.967692464638">
        <ele>52.2</ele>
        <time>2017-10-23T18:08:08Z</time>
      </trkpt>
      <trkpt lat="62.637560341034" lon="17.967740995839">
        <ele>52.2</ele>
        <time>2017-10-23T18:08:09Z</time>
      </trkpt>
      <trkpt lat="62.637572662427" lon="17.96778030695">
        <ele>52.2</ele>
        <time>2017-10-23T18:08:10Z</time>
      </trkpt>
      <trkpt lat="62.637583223621" lon="17.967821462079">
        <ele>52.2</ele>
        <time>2017-10-23T18:08:11Z</time>
      </trkpt>
      <trkpt lat="62.637591773159" lon="17.967861276104">
        <ele>52.2</ele>
        <time>2017-10-23T18:08:12Z</time>
      </trkpt>
      <trkpt lat="62.637605603294" lon="17.967899916663">
        <ele>52.2</ele>
        <time>2017-10-23T18:08:13Z</time>
      </trkpt>
      <trkpt lat="62.637620355438" lon="17.967945933294">
        <ele>52.2</ele>
        <time>2017-10-23T18:08:14Z</time>
      </trkpt>
      <trkpt lat="62.63763192246" lon="17.967991111735">
        <ele>52</ele>
        <time>2017-10-23T18:08:15Z</time>
      </trkpt>
      <trkpt lat="62.637645836414" lon="17.968042911877">
        <ele>52.2</ele>
        <time>2017-10-23T18:08:16Z</time>
      </trkpt>
      <trkpt lat="62.637662432576" lon="17.968088341775">
        <ele>52.2</ele>
        <time>2017-10-23T18:08:17Z</time>
      </trkpt>
      <trkpt lat="62.637672407037" lon="17.968129915999">
        <ele>52</ele>
        <time>2017-10-23T18:08:18Z</time>
      </trkpt>
      <trkpt lat="62.637684141697" lon="17.968179117752">
        <ele>52</ele>
        <time>2017-10-23T18:08:19Z</time>
      </trkpt>
      <trkpt lat="62.637697971832" lon="17.968223290365">
        <ele>52</ele>
        <time>2017-10-23T18:08:20Z</time>
      </trkpt>
      <trkpt lat="62.637709957949" lon="17.968265954236">
        <ele>52</ele>
        <time>2017-10-23T18:08:21Z</time>
      </trkpt>
      <trkpt lat="62.637722363161" lon="17.968314653075">
        <ele>52</ele>
        <time>2017-10-23T18:08:22Z</time>
      </trkpt>
      <trkpt lat="62.637736360934" lon="17.968356227299">
        <ele>52</ele>
        <time>2017-10-23T18:08:23Z</time>
      </trkpt>
      <trkpt lat="62.63774926906" lon="17.968399813179">
        <ele>52</ele>
        <time>2017-10-23T18:08:24Z</time>
      </trkpt>
      <trkpt lat="62.637758908245" lon="17.968438705195">
        <ele>52</ele>
        <time>2017-10-23T18:08:25Z</time>
      </trkpt>
      <trkpt lat="62.637760836082" lon="17.968477010478">
        <ele>52</ele>
        <time>2017-10-23T18:08:26Z</time>
      </trkpt>
      <trkpt lat="62.637752454182" lon="17.968522021281">
        <ele>52.2</ele>
        <time>2017-10-23T18:08:27Z</time>
      </trkpt>
      <trkpt lat="62.63774759268" lon="17.968562254401">
        <ele>52.2</ele>
        <time>2017-10-23T18:08:28Z</time>
      </trkpt>
      <trkpt lat="62.637747341223" lon="17.968613886905">
        <ele>52.4</ele>
        <time>2017-10-23T18:08:29Z</time>
      </trkpt>
      <trkpt lat="62.637745748662" lon="17.968664513581">
        <ele>52.4</ele>
        <time>2017-10-23T18:08:30Z</time>
      </trkpt>
      <trkpt lat="62.637743066454" lon="17.968708853832">
        <ele>52.6</ele>
        <time>2017-10-23T18:08:31Z</time>
      </trkpt>
      <trkpt lat="62.637739965151" lon="17.968767191856">
        <ele>52.8</ele>
        <time>2017-10-23T18:08:32Z</time>
      </trkpt>
      <trkpt lat="62.637738121133" lon="17.968813124668">
        <ele>52.8</ele>
        <time>2017-10-23T18:08:33Z</time>
      </trkpt>
      <trkpt lat="62.637737702038" lon="17.968852938693">
        <ele>53</ele>
        <time>2017-10-23T18:08:34Z</time>
      </trkpt>
      <trkpt lat="62.637736444753" lon="17.968900715523">
        <ele>53.2</ele>
        <time>2017-10-23T18:08:35Z</time>
      </trkpt>
      <trkpt lat="62.637733678726" lon="17.968942289747">
        <ele>53.4</ele>
        <time>2017-10-23T18:08:36Z</time>
      </trkpt>
      <trkpt lat="62.637725548283" lon="17.968987635826">
        <ele>53.4</ele>
        <time>2017-10-23T18:08:37Z</time>
      </trkpt>
      <trkpt lat="62.63771741784" lon="17.969026024928">
        <ele>53.6</ele>
        <time>2017-10-23T18:08:38Z</time>
      </trkpt>
      <trkpt lat="62.637704090619" lon="17.969061983279">
        <ele>53.8</ele>
        <time>2017-10-23T18:08:39Z</time>
      </trkpt>
      <trkpt lat="62.637694619072" lon="17.969087296617">
        <ele>54</ele>
        <time>2017-10-23T18:08:40Z</time>
      </trkpt>
      <trkpt lat="62.637681124213" lon="17.969124344615">
        <ele>54.2</ele>
        <time>2017-10-23T18:08:41Z</time>
      </trkpt>
      <trkpt lat="62.63766964101" lon="17.969159213319">
        <ele>54.4</ele>
        <time>2017-10-23T18:08:42Z</time>
      </trkpt>
      <trkpt lat="62.637660672377" lon="17.969197183326">
        <ele>54.6</ele>
        <time>2017-10-23T18:08:43Z</time>
      </trkpt>
      <trkpt lat="62.637650111183" lon="17.969246804174">
        <ele>55</ele>
        <time>2017-10-23T18:08:44Z</time>
      </trkpt>
      <trkpt lat="62.637648015708" lon="17.969289719502">
        <ele>55.2</ele>
        <time>2017-10-23T18:08:45Z</time>
      </trkpt>
      <trkpt lat="62.637650278821" lon="17.969338334522">
        <ele>55.4</ele>
        <time>2017-10-23T18:08:46Z</time>
      </trkpt>
      <trkpt lat="62.63765455359" lon="17.969395079985">
        <ele>55.6</ele>
        <time>2017-10-23T18:08:47Z</time>
      </trkpt>
      <trkpt lat="62.637659163635" lon="17.969438498227">
        <ele>55.8</ele>
        <time>2017-10-23T18:08:48Z</time>
      </trkpt>
      <trkpt lat="62.637664528051" lon="17.969493651129">
        <ele>55.8</ele>
        <time>2017-10-23T18:08:49Z</time>
      </trkpt>
      <trkpt lat="62.637667713173" lon="17.969542349968">
        <ele>55.8</ele>
        <time>2017-10-23T18:08:50Z</time>
      </trkpt>
      <trkpt lat="62.637671568847" lon="17.969590042979">
        <ele>56</ele>
        <time>2017-10-23T18:08:51Z</time>
      </trkpt>
      <trkpt lat="62.637676933263" lon="17.969638741818">
        <ele>56</ele>
        <time>2017-10-23T18:08:52Z</time>
      </trkpt>
      <trkpt lat="62.637684812249" lon="17.969684590811">
        <ele>56.2</ele>
        <time>2017-10-23T18:08:53Z</time>
      </trkpt>
      <trkpt lat="62.637693529425" lon="17.969739576075">
        <ele>56.4</ele>
        <time>2017-10-23T18:08:54Z</time>
      </trkpt>
      <trkpt lat="62.637697971832" lon="17.96978609562">
        <ele>56.4</ele>
        <time>2017-10-23T18:08:55Z</time>
      </trkpt>
      <trkpt lat="62.637702078963" lon="17.969834375364">
        <ele>56.6</ele>
        <time>2017-10-23T18:08:56Z</time>
      </trkpt>
      <trkpt lat="62.637706018456" lon="17.969881481642">
        <ele>56.8</ele>
        <time>2017-10-23T18:08:57Z</time>
      </trkpt>
      <trkpt lat="62.637708281569" lon="17.969926324807">
        <ele>56.8</ele>
        <time>2017-10-23T18:08:58Z</time>
      </trkpt>
      <trkpt lat="62.637710041768" lon="17.969982567356">
        <ele>57</ele>
        <time>2017-10-23T18:08:59Z</time>
      </trkpt>
      <trkpt lat="62.637707611017" lon="17.9700308471">
        <ele>57</ele>
        <time>2017-10-23T18:09:00Z</time>
      </trkpt>
      <trkpt lat="62.637707108103" lon="17.970072086048">
        <ele>57</ele>
        <time>2017-10-23T18:09:01Z</time>
      </trkpt>
      <trkpt lat="62.637706689008" lon="17.970115755747">
        <ele>57.2</ele>
        <time>2017-10-23T18:09:02Z</time>
      </trkpt>
      <trkpt lat="62.637708030112" lon="17.970153809573">
        <ele>57.2</ele>
        <time>2017-10-23T18:09:03Z</time>
      </trkpt>
      <trkpt lat="62.63770568318" lon="17.970193120684">
        <ele>57.4</ele>
        <time>2017-10-23T18:09:04Z</time>
      </trkpt>
      <trkpt lat="62.637704593533" lon="17.970233437623">
        <ele>57.8</ele>
        <time>2017-10-23T18:09:05Z</time>
      </trkpt>
      <trkpt lat="62.637702078963" lon="17.970278364607">
        <ele>57.8</ele>
        <time>2017-10-23T18:09:06Z</time>
      </trkpt>
      <trkpt lat="62.637700402583" lon="17.970320441745">
        <ele>58</ele>
        <time>2017-10-23T18:09:07Z</time>
      </trkpt>
      <trkpt lat="62.637703084791" lon="17.970360674865">
        <ele>58.2</ele>
        <time>2017-10-23T18:09:08Z</time>
      </trkpt>
      <trkpt lat="62.637708616845" lon="17.970409876618">
        <ele>58.4</ele>
        <time>2017-10-23T18:09:09Z</time>
      </trkpt>
      <trkpt lat="62.637712975433" lon="17.97044575115">
        <ele>58.4</ele>
        <time>2017-10-23T18:09:10Z</time>
      </trkpt>
      <trkpt lat="62.637722027885" lon="17.970495539636">
        <ele>58.4</ele>
        <time>2017-10-23T18:09:11Z</time>
      </trkpt>
      <trkpt lat="62.637729906871" lon="17.970541220991">
        <ele>58.6</ele>
        <time>2017-10-23T18:09:12Z</time>
      </trkpt>
      <trkpt lat="62.6377375344" lon="17.970583130491">
        <ele>58.6</ele>
        <time>2017-10-23T18:09:13Z</time>
      </trkpt>
      <trkpt lat="62.637749352879" lon="17.970630069131">
        <ele>58.6</ele>
        <time>2017-10-23T18:09:14Z</time>
      </trkpt>
      <trkpt lat="62.637759159702" lon="17.970675750486">
        <ele>58.6</ele>
        <time>2017-10-23T18:09:15Z</time>
      </trkpt>
      <trkpt lat="62.637767793059" lon="17.970717743805">
        <ele>58.8</ele>
        <time>2017-10-23T18:09:16Z</time>
      </trkpt>
      <trkpt lat="62.637778689529" lon="17.970760742952">
        <ele>58.8</ele>
        <time>2017-10-23T18:09:17Z</time>
      </trkpt>
      <trkpt lat="62.637787071429" lon="17.970803993556">
        <ele>58.8</ele>
        <time>2017-10-23T18:09:18Z</time>
      </trkpt>
      <trkpt lat="62.637796794433" lon="17.97085394968">
        <ele>58.8</ele>
        <time>2017-10-23T18:09:19Z</time>
      </trkpt>
      <trkpt lat="62.637806182161" lon="17.970897703198">
        <ele>58.8</ele>
        <time>2017-10-23T18:09:20Z</time>
      </trkpt>
      <trkpt lat="62.637814396423" lon="17.970947659322">
        <ele>59</ele>
        <time>2017-10-23T18:09:21Z</time>
      </trkpt>
      <trkpt lat="62.637824538522" lon="17.970990909926">
        <ele>59</ele>
        <time>2017-10-23T18:09:22Z</time>
      </trkpt>
      <trkpt lat="62.637833004241" lon="17.971037345652">
        <ele>59</ele>
        <time>2017-10-23T18:09:23Z</time>
      </trkpt>
      <trkpt lat="62.637841553779" lon="17.971091744183">
        <ele>59.2</ele>
        <time>2017-10-23T18:09:24Z</time>
      </trkpt>
      <trkpt lat="62.637849097489" lon="17.971138515185">
        <ele>59.2</ele>
        <time>2017-10-23T18:09:25Z</time>
      </trkpt>
      <trkpt lat="62.637856389742" lon="17.971187884576">
        <ele>59.2</ele>
        <time>2017-10-23T18:09:26Z</time>
      </trkpt>
      <trkpt lat="62.637862173253" lon="17.971241780193">
        <ele>59.2</ele>
        <time>2017-10-23T18:09:27Z</time>
      </trkpt>
      <trkpt lat="62.637867537669" lon="17.971283773512">
        <ele>59.2</ele>
        <time>2017-10-23T18:09:28Z</time>
      </trkpt>
      <trkpt lat="62.637877847406" lon="17.971338004405">
        <ele>59.2</ele>
        <time>2017-10-23T18:09:29Z</time>
      </trkpt>
      <trkpt lat="62.63788505584" lon="17.97139290585">
        <ele>59.4</ele>
        <time>2017-10-23T18:09:30Z</time>
      </trkpt>
      <trkpt lat="62.637893353921" lon="17.971438251929">
        <ele>59.4</ele>
        <time>2017-10-23T18:09:31Z</time>
      </trkpt>
      <trkpt lat="62.637900897631" lon="17.971486866949">
        <ele>59.6</ele>
        <time>2017-10-23T18:09:32Z</time>
      </trkpt>
      <trkpt lat="62.637907519332" lon="17.971537996539">
        <ele>59.6</ele>
        <time>2017-10-23T18:09:33Z</time>
      </trkpt>
      <trkpt lat="62.637918164345" lon="17.97158233679">
        <ele>59.8</ele>
        <time>2017-10-23T18:09:34Z</time>
      </trkpt>
      <trkpt lat="62.637928138806" lon="17.971631538543">
        <ele>59.8</ele>
        <time>2017-10-23T18:09:35Z</time>
      </trkpt>
      <trkpt lat="62.637935514878" lon="17.971685517979">
        <ele>60</ele>
        <time>2017-10-23T18:09:36Z</time>
      </trkpt>
      <trkpt lat="62.637940879294" lon="17.971735138827">
        <ele>60</ele>
        <time>2017-10-23T18:09:37Z</time>
      </trkpt>
      <trkpt lat="62.637944651149" lon="17.971787106607">
        <ele>60.2</ele>
        <time>2017-10-23T18:09:38Z</time>
      </trkpt>
      <trkpt lat="62.637947752452" lon="17.97184552845">
        <ele>60.2</ele>
        <time>2017-10-23T18:09:39Z</time>
      </trkpt>
      <trkpt lat="62.637950518479" lon="17.971885929208">
        <ele>60.2</ele>
        <time>2017-10-23T18:09:40Z</time>
      </trkpt>
      <trkpt lat="62.637955379981" lon="17.971943177585">
        <ele>60.2</ele>
        <time>2017-10-23T18:09:41Z</time>
      </trkpt>
      <trkpt lat="62.637957475456" lon="17.971999503953">
        <ele>60.2</ele>
        <time>2017-10-23T18:09:42Z</time>
      </trkpt>
      <trkpt lat="62.637962672234" lon="17.972042335462">
        <ele>60.4</ele>
        <time>2017-10-23T18:09:43Z</time>
      </trkpt>
      <trkpt lat="62.637967366098" lon="17.972098075097">
        <ele>60.2</ele>
        <time>2017-10-23T18:09:44Z</time>
      </trkpt>
      <trkpt lat="62.637970635039" lon="17.972154569103">
        <ele>60.4</ele>
        <time>2017-10-23T18:09:45Z</time>
      </trkpt>
      <trkpt lat="62.637973987799" lon="17.972200334277">
        <ele>60.2</ele>
        <time>2017-10-23T18:09:46Z</time>
      </trkpt>
      <trkpt lat="62.637978765482" lon="17.972262360337">
        <ele>60.2</ele>
        <time>2017-10-23T18:09:47Z</time>
      </trkpt>
      <trkpt lat="62.637980693319" lon="17.972311310633">
        <ele>60.4</ele>
        <time>2017-10-23T18:09:48Z</time>
      </trkpt>
      <trkpt lat="62.637988404667" lon="17.972364284241">
        <ele>60.4</ele>
        <time>2017-10-23T18:09:49Z</time>
      </trkpt>
      <trkpt lat="62.637993098531" lon="17.972411390519">
        <ele>60.4</ele>
        <time>2017-10-23T18:09:50Z</time>
      </trkpt>
      <trkpt lat="62.637996702748" lon="17.972460843729">
        <ele>60.6</ele>
        <time>2017-10-23T18:09:51Z</time>
      </trkpt>
      <trkpt lat="62.638001899526" lon="17.972506944179">
        <ele>60.8</ele>
        <time>2017-10-23T18:09:52Z</time>
      </trkpt>
      <trkpt lat="62.638004246458" lon="17.972565449841">
        <ele>60.8</ele>
        <time>2017-10-23T18:09:53Z</time>
      </trkpt>
      <trkpt lat="62.638007934494" lon="17.972618507268">
        <ele>61</ele>
        <time>2017-10-23T18:09:54Z</time>
      </trkpt>
      <trkpt lat="62.638012125444" lon="17.972669301582">
        <ele>61</ele>
        <time>2017-10-23T18:09:55Z</time>
      </trkpt>
      <trkpt lat="62.638015226747" lon="17.97272646614">
        <ele>61</ele>
        <time>2017-10-23T18:09:56Z</time>
      </trkpt>
      <trkpt lat="62.638022016086" lon="17.972775332617">
        <ele>61</ele>
        <time>2017-10-23T18:09:57Z</time>
      </trkpt>
      <trkpt lat="62.638026290855" lon="17.97281950523">
        <ele>61.2</ele>
        <time>2017-10-23T18:09:58Z</time>
      </trkpt>
      <trkpt lat="62.638029727434" lon="17.972878010892">
        <ele>61.2</ele>
        <time>2017-10-23T18:09:59Z</time>
      </trkpt>
      <trkpt lat="62.63803341547" lon="17.972926290636">
        <ele>61.2</ele>
        <time>2017-10-23T18:10:00Z</time>
      </trkpt>
      <trkpt lat="62.638034588936" lon="17.972975492389">
        <ele>61.4</ele>
        <time>2017-10-23T18:10:01Z</time>
      </trkpt>
      <trkpt lat="62.638034924212" lon="17.973031232024">
        <ele>61.4</ele>
        <time>2017-10-23T18:10:02Z</time>
      </trkpt>
      <trkpt lat="62.638035427126" lon="17.973079176492">
        <ele>61.6</ele>
        <time>2017-10-23T18:10:03Z</time>
      </trkpt>
      <trkpt lat="62.638034505117" lon="17.973128964978">
        <ele>61.6</ele>
        <time>2017-10-23T18:10:04Z</time>
      </trkpt>
      <trkpt lat="62.638033918384" lon="17.973191158676">
        <ele>62</ele>
        <time>2017-10-23T18:10:05Z</time>
      </trkpt>
      <trkpt lat="62.638033583108" lon="17.973237259126">
        <ele>62</ele>
        <time>2017-10-23T18:10:06Z</time>
      </trkpt>
      <trkpt lat="62.638035343307" lon="17.973289981277">
        <ele>62.2</ele>
        <time>2017-10-23T18:10:07Z</time>
      </trkpt>
      <trkpt lat="62.638031487633" lon="17.973338847754">
        <ele>62.4</ele>
        <time>2017-10-23T18:10:08Z</time>
      </trkpt>
      <trkpt lat="62.638027631959" lon="17.973386540765">
        <ele>62.6</ele>
        <time>2017-10-23T18:10:09Z</time>
      </trkpt>
      <trkpt lat="62.638030397986" lon="17.9734338985">
        <ele>62.6</ele>
        <time>2017-10-23T18:10:10Z</time>
      </trkpt>
      <trkpt lat="62.638031236176" lon="17.973486955927">
        <ele>62.8</ele>
        <time>2017-10-23T18:10:11Z</time>
      </trkpt>
      <trkpt lat="62.638032744918" lon="17.973530877083">
        <ele>63</ele>
        <time>2017-10-23T18:10:12Z</time>
      </trkpt>
      <trkpt lat="62.638035678583" lon="17.973577312809">
        <ele>63</ele>
        <time>2017-10-23T18:10:13Z</time>
      </trkpt>
      <trkpt lat="62.638033247832" lon="17.973629448227">
        <ele>63.2</ele>
        <time>2017-10-23T18:10:14Z</time>
      </trkpt>
      <trkpt lat="62.638031487633" lon="17.973676889781">
        <ele>63.2</ele>
        <time>2017-10-23T18:10:15Z</time>
      </trkpt>
      <trkpt lat="62.63803341547" lon="17.973724163697">
        <ele>63.2</ele>
        <time>2017-10-23T18:10:16Z</time>
      </trkpt>
      <trkpt lat="62.63803341547" lon="17.973766743749">
        <ele>63.2</ele>
        <time>2017-10-23T18:10:17Z</time>
      </trkpt>
      <trkpt lat="62.638037103506" lon="17.973826255239">
        <ele>63.2</ele>
        <time>2017-10-23T18:10:18Z</time>
      </trkpt>
      <trkpt lat="62.638033247832" lon="17.973882497788">
        <ele>63.2</ele>
        <time>2017-10-23T18:10:19Z</time>
      </trkpt>
      <trkpt lat="62.638034924212" lon="17.97393848888">
        <ele>63.2</ele>
        <time>2017-10-23T18:10:20Z</time>
      </trkpt>
      <trkpt lat="62.638034840393" lon="17.973984421692">
        <ele>63.2</ele>
        <time>2017-10-23T18:10:21Z</time>
      </trkpt>
      <trkpt lat="62.638034756574" lon="17.974033958721">
        <ele>63.2</ele>
        <time>2017-10-23T18:10:22Z</time>
      </trkpt>
      <trkpt lat="62.638037019687" lon="17.974089614537">
        <ele>63.2</ele>
        <time>2017-10-23T18:10:23Z</time>
      </trkpt>
      <trkpt lat="62.638041462094" lon="17.974142504326">
        <ele>63.2</ele>
        <time>2017-10-23T18:10:24Z</time>
      </trkpt>
      <trkpt lat="62.638048754347" lon="17.974190700251">
        <ele>63.2</ele>
        <time>2017-10-23T18:10:25Z</time>
      </trkpt>
      <trkpt lat="62.638051939469" lon="17.974253061587">
        <ele>63.2</ele>
        <time>2017-10-23T18:10:26Z</time>
      </trkpt>
      <trkpt lat="62.638054537858" lon="17.974303017711">
        <ele>63.2</ele>
        <time>2017-10-23T18:10:27Z</time>
      </trkpt>
      <trkpt lat="62.638057974437" lon="17.974355991319">
        <ele>63.2</ele>
        <time>2017-10-23T18:10:28Z</time>
      </trkpt>
      <trkpt lat="62.638057974437" lon="17.974419777578">
        <ele>63.2</ele>
        <time>2017-10-23T18:10:29Z</time>
      </trkpt>
      <trkpt lat="62.638058644989" lon="17.974475098118">
        <ele>63.2</ele>
        <time>2017-10-23T18:10:30Z</time>
      </trkpt>
      <trkpt lat="62.63806107574" lon="17.974529915744">
        <ele>63.2</ele>
        <time>2017-10-23T18:10:31Z</time>
      </trkpt>
      <trkpt lat="62.63805856117" lon="17.974589846329">
        <ele>63.2</ele>
        <time>2017-10-23T18:10:32Z</time>
      </trkpt>
      <trkpt lat="62.638057387704" lon="17.974640221548">
        <ele>63.2</ele>
        <time>2017-10-23T18:10:33Z</time>
      </trkpt>
      <trkpt lat="62.63804850289" lon="17.974697386106">
        <ele>63.2</ele>
        <time>2017-10-23T18:10:34Z</time>
      </trkpt>
      <trkpt lat="62.638037019687" lon="17.97475237137">
        <ele>63.2</ele>
        <time>2017-10-23T18:10:35Z</time>
      </trkpt>
      <trkpt lat="62.638024279199" lon="17.974799058553">
        <ele>63.2</ele>
        <time>2017-10-23T18:10:36Z</time>
      </trkpt>
      <trkpt lat="62.638007096304" lon="17.974844991365">
        <ele>63</ele>
        <time>2017-10-23T18:10:37Z</time>
      </trkpt>
      <trkpt lat="62.637992763255" lon="17.974879189517">
        <ele>63</ele>
        <time>2017-10-23T18:10:38Z</time>
      </trkpt>
      <trkpt lat="62.637979352215" lon="17.974919841732">
        <ele>63</ele>
        <time>2017-10-23T18:10:39Z</time>
      </trkpt>
      <trkpt lat="62.637963342786" lon="17.974955548626">
        <ele>63.2</ele>
        <time>2017-10-23T18:10:40Z</time>
      </trkpt>
      <trkpt lat="62.637946076072" lon="17.974995530289">
        <ele>63.4</ele>
        <time>2017-10-23T18:10:41Z</time>
      </trkpt>
      <trkpt lat="62.637928809358" lon="17.975035763409">
        <ele>63.6</ele>
        <time>2017-10-23T18:10:42Z</time>
      </trkpt>
      <trkpt lat="62.637910033902" lon="17.975064764783">
        <ele>63.8</ele>
        <time>2017-10-23T18:10:43Z</time>
      </trkpt>
      <trkpt lat="62.637893521559" lon="17.975095274899">
        <ele>63.8</ele>
        <time>2017-10-23T18:10:44Z</time>
      </trkpt>
      <trkpt lat="62.63787499756" lon="17.975129389232">
        <ele>64</ele>
        <time>2017-10-23T18:10:45Z</time>
      </trkpt>
      <trkpt lat="62.637858066122" lon="17.975162749194">
        <ele>64.2</ele>
        <time>2017-10-23T18:10:46Z</time>
      </trkpt>
      <trkpt lat="62.637840464132" lon="17.975203066133">
        <ele>64.2</ele>
        <time>2017-10-23T18:10:47Z</time>
      </trkpt>
      <trkpt lat="62.637821101943" lon="17.975238773027">
        <ele>64.4</ele>
        <time>2017-10-23T18:10:48Z</time>
      </trkpt>
      <trkpt lat="62.637805679247" lon="17.975270037514">
        <ele>64.6</ele>
        <time>2017-10-23T18:10:49Z</time>
      </trkpt>
      <trkpt lat="62.637788831628" lon="17.975306750236">
        <ele>64.6</ele>
        <time>2017-10-23T18:10:50Z</time>
      </trkpt>
      <trkpt lat="62.637770726724" lon="17.975341283664">
        <ele>64.8</ele>
        <time>2017-10-23T18:10:51Z</time>
      </trkpt>
      <trkpt lat="62.637757064227" lon="17.975361986957">
        <ele>65</ele>
        <time>2017-10-23T18:10:52Z</time>
      </trkpt>
      <trkpt lat="62.637739294599" lon="17.975390317779">
        <ele>65.2</ele>
        <time>2017-10-23T18:10:53Z</time>
      </trkpt>
      <trkpt lat="62.637718004573" lon="17.975411104891">
        <ele>65.2</ele>
        <time>2017-10-23T18:10:54Z</time>
      </trkpt>
      <trkpt lat="62.637701324592" lon="17.975428455424">
        <ele>65.4</ele>
        <time>2017-10-23T18:10:55Z</time>
      </trkpt>
      <trkpt lat="62.637680956575" lon="17.975449242536">
        <ele>65.6</ele>
        <time>2017-10-23T18:10:56Z</time>
      </trkpt>
      <trkpt lat="62.63765958273" lon="17.975472041304">
        <ele>65.8</ele>
        <time>2017-10-23T18:10:57Z</time>
      </trkpt>
      <trkpt lat="62.637641394007" lon="17.975484278878">
        <ele>66</ele>
        <time>2017-10-23T18:10:58Z</time>
      </trkpt>
      <trkpt lat="62.637618008506" lon="17.975507748198">
        <ele>66.2</ele>
        <time>2017-10-23T18:10:59Z</time>
      </trkpt>
      <trkpt lat="62.637591773159" lon="17.975527780939">
        <ele>66.6</ele>
        <time>2017-10-23T18:11:00Z</time>
      </trkpt>
      <trkpt lat="62.637571488961" lon="17.975538761228">
        <ele>66.8</ele>
        <time>2017-10-23T18:11:01Z</time>
      </trkpt>
      <trkpt lat="62.637550701849" lon="17.975551250259">
        <ele>67</ele>
        <time>2017-10-23T18:11:02Z</time>
      </trkpt>
      <trkpt lat="62.637530585289" lon="17.975564409842">
        <ele>67.2</ele>
        <time>2017-10-23T18:11:03Z</time>
      </trkpt>
      <trkpt lat="62.63751038491" lon="17.975572372647">
        <ele>67.4</ele>
        <time>2017-10-23T18:11:04Z</time>
      </trkpt>
      <trkpt lat="62.637489262522" lon="17.975581257461">
        <ele>67.6</ele>
        <time>2017-10-23T18:11:05Z</time>
      </trkpt>
      <trkpt lat="62.637470235609" lon="17.975593159759">
        <ele>67.8</ele>
        <time>2017-10-23T18:11:06Z</time>
      </trkpt>
      <trkpt lat="62.637455818741" lon="17.975602631306">
        <ele>68</ele>
        <time>2017-10-23T18:11:07Z</time>
      </trkpt>
      <trkpt lat="62.637436372733" lon="17.975617718726">
        <ele>68.2</ele>
        <time>2017-10-23T18:11:08Z</time>
      </trkpt>
      <trkpt lat="62.637412400499" lon="17.975647223014">
        <ele>68.4</ele>
        <time>2017-10-23T18:11:09Z</time>
      </trkpt>
      <trkpt lat="62.637395888156" lon="17.975668177764">
        <ele>68.4</ele>
        <time>2017-10-23T18:11:10Z</time>
      </trkpt>
      <trkpt lat="62.637373089388" lon="17.975696257129">
        <ele>68.6</ele>
        <time>2017-10-23T18:11:11Z</time>
      </trkpt>
      <trkpt lat="62.637352889009" lon="17.975724587951">
        <ele>68.8</ele>
        <time>2017-10-23T18:11:12Z</time>
      </trkpt>
      <trkpt lat="62.637338807417" lon="17.975750907117">
        <ele>68.8</ele>
        <time>2017-10-23T18:11:13Z</time>
      </trkpt>
      <trkpt lat="62.637320870151" lon="17.975790637323">
        <ele>69</ele>
        <time>2017-10-23T18:11:14Z</time>
      </trkpt>
      <trkpt lat="62.637305279817" lon="17.975818884326">
        <ele>69.2</ele>
        <time>2017-10-23T18:11:15Z</time>
      </trkpt>
      <trkpt lat="62.637291365863" lon="17.975843024198">
        <ele>69.2</ele>
        <time>2017-10-23T18:11:16Z</time>
      </trkpt>
      <trkpt lat="62.637277535728" lon="17.975871522658">
        <ele>69.4</ele>
        <time>2017-10-23T18:11:17Z</time>
      </trkpt>
      <trkpt lat="62.637265214335" lon="17.975904295887">
        <ele>69.6</ele>
        <time>2017-10-23T18:11:18Z</time>
      </trkpt>
      <trkpt lat="62.637250629829" lon="17.975951653622">
        <ele>70</ele>
        <time>2017-10-23T18:11:19Z</time>
      </trkpt>
      <trkpt lat="62.637238978988" lon="17.976001525927">
        <ele>70.4</ele>
        <time>2017-10-23T18:11:20Z</time>
      </trkpt>
      <trkpt lat="62.63722959126" lon="17.97604402216">
        <ele>70.6</ele>
        <time>2017-10-23T18:11:21Z</time>
      </trkpt>
      <trkpt lat="62.637218946247" lon="17.976091463714">
        <ele>71</ele>
        <time>2017-10-23T18:11:22Z</time>
      </trkpt>
      <trkpt lat="62.637206708673" lon="17.976140246372">
        <ele>71.2</ele>
        <time>2017-10-23T18:11:23Z</time>
      </trkpt>
      <trkpt lat="62.637195896022" lon="17.976189615763">
        <ele>71.4</ele>
        <time>2017-10-23T18:11:24Z</time>
      </trkpt>
      <trkpt lat="62.637186173018" lon="17.976238817516">
        <ele>71.4</ele>
        <time>2017-10-23T18:11:25Z</time>
      </trkpt>
      <trkpt lat="62.637177288204" lon="17.976285839975">
        <ele>71.6</ele>
        <time>2017-10-23T18:11:26Z</time>
      </trkpt>
      <trkpt lat="62.637169995951" lon="17.97633152133">
        <ele>71.8</ele>
        <time>2017-10-23T18:11:27Z</time>
      </trkpt>
      <trkpt lat="62.637161027318" lon="17.976375777762">
        <ele>71.8</ele>
        <time>2017-10-23T18:11:28Z</time>
      </trkpt>
      <trkpt lat="62.63715163959" lon="17.976434031967">
        <ele>72</ele>
        <time>2017-10-23T18:11:29Z</time>
      </trkpt>
      <trkpt lat="62.637148370649" lon="17.97648658648">
        <ele>72</ele>
        <time>2017-10-23T18:11:30Z</time>
      </trkpt>
      <trkpt lat="62.637143341509" lon="17.976539727726">
        <ele>72.2</ele>
        <time>2017-10-23T18:11:31Z</time>
      </trkpt>
      <trkpt lat="62.637138480007" lon="17.976594210076">
        <ele>72.2</ele>
        <time>2017-10-23T18:11:32Z</time>
      </trkpt>
      <trkpt lat="62.637132612677" lon="17.976646261675">
        <ele>72.2</ele>
        <time>2017-10-23T18:11:33Z</time>
      </trkpt>
      <trkpt lat="62.637129343736" lon="17.976702588043">
        <ele>72.2</ele>
        <time>2017-10-23T18:11:34Z</time>
      </trkpt>
      <trkpt lat="62.637126996804" lon="17.976764614103">
        <ele>72.2</ele>
        <time>2017-10-23T18:11:35Z</time>
      </trkpt>
      <trkpt lat="62.637127164442" lon="17.976814821684">
        <ele>72.4</ele>
        <time>2017-10-23T18:11:36Z</time>
      </trkpt>
      <trkpt lat="62.637125320424" lon="17.976877685934">
        <ele>72.4</ele>
        <time>2017-10-23T18:11:37Z</time>
      </trkpt>
      <trkpt lat="62.637125571881" lon="17.976928899343">
        <ele>72.6</ele>
        <time>2017-10-23T18:11:38Z</time>
      </trkpt>
      <trkpt lat="62.637126745347" lon="17.976986734453">
        <ele>72.6</ele>
        <time>2017-10-23T18:11:39Z</time>
      </trkpt>
      <trkpt lat="62.637127164442" lon="17.977035684749">
        <ele>72.6</ele>
        <time>2017-10-23T18:11:40Z</time>
      </trkpt>
      <trkpt lat="62.637129343736" lon="17.977102404673">
        <ele>72.6</ele>
        <time>2017-10-23T18:11:41Z</time>
      </trkpt>
      <trkpt lat="62.637124314596" lon="17.977149427132">
        <ele>72.8</ele>
        <time>2017-10-23T18:11:42Z</time>
      </trkpt>
      <trkpt lat="62.637121129474" lon="17.97720156255">
        <ele>72.8</ele>
        <time>2017-10-23T18:11:43Z</time>
      </trkpt>
      <trkpt lat="62.637111741746" lon="17.977261157859">
        <ele>72.8</ele>
        <time>2017-10-23T18:11:44Z</time>
      </trkpt>
      <trkpt lat="62.637104449493" lon="17.977310611069">
        <ele>72.8</ele>
        <time>2017-10-23T18:11:45Z</time>
      </trkpt>
      <trkpt lat="62.637094391213" lon="17.97735998046">
        <ele>72.8</ele>
        <time>2017-10-23T18:11:46Z</time>
      </trkpt>
      <trkpt lat="62.63708123163" lon="17.977411445326">
        <ele>72.8</ele>
        <time>2017-10-23T18:11:47Z</time>
      </trkpt>
      <trkpt lat="62.637071592445" lon="17.977461988183">
        <ele>72.8</ele>
        <time>2017-10-23T18:11:48Z</time>
      </trkpt>
      <trkpt lat="62.637060779794" lon="17.977515213248">
        <ele>72.8</ele>
        <time>2017-10-23T18:11:49Z</time>
      </trkpt>
      <trkpt lat="62.637051140609" lon="17.977566594295">
        <ele>72.8</ele>
        <time>2017-10-23T18:11:50Z</time>
      </trkpt>
      <trkpt lat="62.637039992682" lon="17.977616634238">
        <ele>72.8</ele>
        <time>2017-10-23T18:11:51Z</time>
      </trkpt>
      <trkpt lat="62.637028090384" lon="17.977668685837">
        <ele>72.8</ele>
        <time>2017-10-23T18:11:52Z</time>
      </trkpt>
      <trkpt lat="62.637018451199" lon="17.977719647789">
        <ele>72.8</ele>
        <time>2017-10-23T18:11:53Z</time>
      </trkpt>
      <trkpt lat="62.637009314928" lon="17.977771364112">
        <ele>72.8</ele>
        <time>2017-10-23T18:11:54Z</time>
      </trkpt>
      <trkpt lat="62.637001268304" lon="17.977827103747">
        <ele>72.8</ele>
        <time>2017-10-23T18:11:55Z</time>
      </trkpt>
      <trkpt lat="62.636992299671" lon="17.977882089011">
        <ele>72.8</ele>
        <time>2017-10-23T18:11:56Z</time>
      </trkpt>
      <trkpt lat="62.63698567797" lon="17.977938750655">
        <ele>72.8</ele>
        <time>2017-10-23T18:11:57Z</time>
      </trkpt>
      <trkpt lat="62.636977463708" lon="17.977988958236">
        <ele>73</ele>
        <time>2017-10-23T18:11:58Z</time>
      </trkpt>
      <trkpt lat="62.636970925826" lon="17.978050565201">
        <ele>73</ele>
        <time>2017-10-23T18:11:59Z</time>
      </trkpt>
      <trkpt lat="62.636961286641" lon="17.978103538809">
        <ele>73</ele>
        <time>2017-10-23T18:12:00Z</time>
      </trkpt>
      <trkpt lat="62.636948127058" lon="17.978155087494">
        <ele>73</ele>
        <time>2017-10-23T18:12:01Z</time>
      </trkpt>
      <trkpt lat="62.636937314407" lon="17.978203702514">
        <ele>73.2</ele>
        <time>2017-10-23T18:12:02Z</time>
      </trkpt>
      <trkpt lat="62.636926585575" lon="17.978254580647">
        <ele>73.2</ele>
        <time>2017-10-23T18:12:03Z</time>
      </trkpt>
      <trkpt lat="62.636912252526" lon="17.97830042964">
        <ele>73.2</ele>
        <time>2017-10-23T18:12:04Z</time>
      </trkpt>
      <trkpt lat="62.636900014952" lon="17.978349463755">
        <ele>73.2</ele>
        <time>2017-10-23T18:12:05Z</time>
      </trkpt>
      <trkpt lat="62.636887274464" lon="17.978387182305">
        <ele>73.2</ele>
        <time>2017-10-23T18:12:06Z</time>
      </trkpt>
      <trkpt lat="62.636874701614" lon="17.978430852004">
        <ele>73.4</ele>
        <time>2017-10-23T18:12:07Z</time>
      </trkpt>
      <trkpt lat="62.636861458212" lon="17.978475192255">
        <ele>73.4</ele>
        <time>2017-10-23T18:12:08Z</time>
      </trkpt>
      <trkpt lat="62.636839329996" lon="17.978521963257">
        <ele>73.4</ele>
        <time>2017-10-23T18:12:09Z</time>
      </trkpt>
      <trkpt lat="62.63682474549" lon="17.978559011255">
        <ele>73.4</ele>
        <time>2017-10-23T18:12:10Z</time>
      </trkpt>
      <trkpt lat="62.636803287826" lon="17.97860385442">
        <ele>73.6</ele>
        <time>2017-10-23T18:12:11Z</time>
      </trkpt>
      <trkpt lat="62.636788284225" lon="17.978634615993">
        <ele>73.4</ele>
        <time>2017-10-23T18:12:12Z</time>
      </trkpt>
      <trkpt lat="62.636771268968" lon="17.978665461385">
        <ele>73.6</ele>
        <time>2017-10-23T18:12:13Z</time>
      </trkpt>
      <trkpt lat="62.63674679382" lon="17.978693456931">
        <ele>73.6</ele>
        <time>2017-10-23T18:12:14Z</time>
      </trkpt>
      <trkpt lat="62.63672583907" lon="17.978720195192">
        <ele>73.8</ele>
        <time>2017-10-23T18:12:15Z</time>
      </trkpt>
      <trkpt lat="62.636707315071" lon="17.9787312593">
        <ele>73.8</ele>
        <time>2017-10-23T18:12:16Z</time>
      </trkpt>
      <trkpt lat="62.636684432484" lon="17.978734192965">
        <ele>73.8</ele>
        <time>2017-10-23T18:12:17Z</time>
      </trkpt>
      <trkpt lat="62.636661130802" lon="17.978748274557">
        <ele>74</ele>
        <time>2017-10-23T18:12:18Z</time>
      </trkpt>
      <trkpt lat="62.636640930423" lon="17.978758249018">
        <ele>74</ele>
        <time>2017-10-23T18:12:19Z</time>
      </trkpt>
      <trkpt lat="62.636620143311" lon="17.978755902086">
        <ele>74</ele>
        <time>2017-10-23T18:12:20Z</time>
      </trkpt>
      <trkpt lat="62.63660178695" lon="17.978759673941">
        <ele>74.2</ele>
        <time>2017-10-23T18:12:21Z</time>
      </trkpt>
      <trkpt lat="62.636584939331" lon="17.97875975776">
        <ele>74.4</ele>
        <time>2017-10-23T18:12:22Z</time>
      </trkpt>
      <trkpt lat="62.63656071564" lon="17.97876227233">
        <ele>74.4</ele>
        <time>2017-10-23T18:12:23Z</time>
      </trkpt>
      <trkpt lat="62.636540431442" lon="17.97875891957">
        <ele>74.6</ele>
        <time>2017-10-23T18:12:24Z</time>
      </trkpt>
      <trkpt lat="62.636518051769" lon="17.978754644801">
        <ele>74.8</ele>
        <time>2017-10-23T18:12:25Z</time>
      </trkpt>
      <trkpt lat="62.636492570793" lon="17.978754225706">
        <ele>75</ele>
        <time>2017-10-23T18:12:26Z</time>
      </trkpt>
      <trkpt lat="62.63647857302" lon="17.978758584294">
        <ele>75.2</ele>
        <time>2017-10-23T18:12:27Z</time>
      </trkpt>
      <trkpt lat="62.636460049021" lon="17.978761266502">
        <ele>75.4</ele>
        <time>2017-10-23T18:12:28Z</time>
      </trkpt>
      <trkpt lat="62.636442363212" lon="17.978758751932">
        <ele>75.6</ele>
        <time>2017-10-23T18:12:29Z</time>
      </trkpt>
      <trkpt lat="62.636418139521" lon="17.978774090809">
        <ele>75.6</ele>
        <time>2017-10-23T18:12:30Z</time>
      </trkpt>
      <trkpt lat="62.636401375721" lon="17.978782053614">
        <ele>76</ele>
        <time>2017-10-23T18:12:31Z</time>
      </trkpt>
      <trkpt lat="62.636382432627" lon="17.978788004763">
        <ele>76.2</ele>
        <time>2017-10-23T18:12:32Z</time>
      </trkpt>
      <trkpt lat="62.63637044651" lon="17.978798398319">
        <ele>76.4</ele>
        <time>2017-10-23T18:12:33Z</time>
      </trkpt>
      <trkpt lat="62.636354437081" lon="17.978813066644">
        <ele>76.6</ele>
        <time>2017-10-23T18:12:34Z</time>
      </trkpt>
      <trkpt lat="62.636332979417" lon="17.978829495168">
        <ele>76.8</ele>
        <time>2017-10-23T18:12:35Z</time>
      </trkpt>
      <trkpt lat="62.636316131798" lon="17.978848102986">
        <ele>77</ele>
        <time>2017-10-23T18:12:36Z</time>
      </trkpt>
      <trkpt lat="62.636294506496" lon="17.978879786568">
        <ele>77.2</ele>
        <time>2017-10-23T18:12:37Z</time>
      </trkpt>
      <trkpt lat="62.63628076018" lon="17.978900825137">
        <ele>77.2</ele>
        <time>2017-10-23T18:12:38Z</time>
      </trkpt>
      <trkpt lat="62.636266594769" lon="17.978930161787">
        <ele>77.4</ele>
        <time>2017-10-23T18:12:39Z</time>
      </trkpt>
      <trkpt lat="62.63625142353" lon="17.978962515921">
        <ele>77.8</ele>
        <time>2017-10-23T18:12:40Z</time>
      </trkpt>
      <trkpt lat="62.636233486264" lon="17.978995540607">
        <ele>77.8</ele>
        <time>2017-10-23T18:12:41Z</time>
      </trkpt>
      <trkpt lat="62.636216638645" lon="17.979023452334">
        <ele>78</ele>
        <time>2017-10-23T18:12:42Z</time>
      </trkpt>
      <trkpt lat="62.636199791026" lon="17.979045329093">
        <ele>78.6</ele>
        <time>2017-10-23T18:12:43Z</time>
      </trkpt>
      <trkpt lat="62.63618269195" lon="17.979069301327">
        <ele>79</ele>
        <time>2017-10-23T18:12:44Z</time>
      </trkpt>
      <trkpt lat="62.636165760512" lon="17.979095536674">
        <ele>79.6</ele>
        <time>2017-10-23T18:12:45Z</time>
      </trkpt>
      <trkpt lat="62.636149583445" lon="17.979117413433">
        <ele>80</ele>
        <time>2017-10-23T18:12:46Z</time>
      </trkpt>
      <trkpt lat="62.636138435518" lon="17.979144151694">
        <ele>80.4</ele>
        <time>2017-10-23T18:12:47Z</time>
      </trkpt>
      <trkpt lat="62.636123767193" lon="17.979172817792">
        <ele>80.8</ele>
        <time>2017-10-23T18:12:49Z</time>
      </trkpt>
      <trkpt lat="62.636117564587" lon="17.979185642099">
        <ele>81.2</ele>
        <time>2017-10-23T18:12:50Z</time>
      </trkpt>
      <trkpt lat="62.636112451628" lon="17.97919980751">
        <ele>81.4</ele>
        <time>2017-10-23T18:12:51Z</time>
      </trkpt>
      <trkpt lat="62.636109601782" lon="17.979202992632">
        <ele>81.6</ele>
        <time>2017-10-23T18:12:52Z</time>
      </trkpt>
      <trkpt lat="62.636115217655" lon="17.979201651528">
        <ele>81.8</ele>
        <time>2017-10-23T18:12:53Z</time>
      </trkpt>
      <trkpt lat="62.636116223483" lon="17.979200226605">
        <ele>81.8</ele>
        <time>2017-10-23T18:12:54Z</time>
      </trkpt>
      <trkpt lat="62.636123348098" lon="17.980465390591">
        <ele>77.2</ele>
        <time>2017-10-23T18:15:14Z</time>
      </trkpt>
      <trkpt lat="62.636134579844" lon="17.980529009212">
        <ele>77</ele>
        <time>2017-10-23T18:15:15Z</time>
      </trkpt>
      <trkpt lat="62.636148996712" lon="17.980609391633">
        <ele>76.8</ele>
        <time>2017-10-23T18:15:16Z</time>
      </trkpt>
      <trkpt lat="62.636157881526" lon="17.980667897295">
        <ele>76.8</ele>
        <time>2017-10-23T18:15:17Z</time>
      </trkpt>
      <trkpt lat="62.636165844331" lon="17.98072950426">
        <ele>76.6</ele>
        <time>2017-10-23T18:15:18Z</time>
      </trkpt>
      <trkpt lat="62.636178668638" lon="17.980807120654">
        <ele>76.4</ele>
        <time>2017-10-23T18:15:19Z</time>
      </trkpt>
      <trkpt lat="62.63619107385" lon="17.980879624089">
        <ele>76.2</ele>
        <time>2017-10-23T18:15:20Z</time>
      </trkpt>
      <trkpt lat="62.6362036467" lon="17.980948355669">
        <ele>76.2</ele>
        <time>2017-10-23T18:15:21Z</time>
      </trkpt>
      <trkpt lat="62.636216051912" lon="17.981014656498">
        <ele>76.2</ele>
        <time>2017-10-23T18:15:22Z</time>
      </trkpt>
      <trkpt lat="62.636228540943" lon="17.981094536005">
        <ele>76</ele>
        <time>2017-10-23T18:15:23Z</time>
      </trkpt>
      <trkpt lat="62.636239102137" lon="17.981176343349">
        <ele>75.8</ele>
        <time>2017-10-23T18:15:24Z</time>
      </trkpt>
      <trkpt lat="62.636246562028" lon="17.981244655834">
        <ele>75.4</ele>
        <time>2017-10-23T18:15:25Z</time>
      </trkpt>
      <trkpt lat="62.636251172073" lon="17.981303748229">
        <ele>75.2</ele>
        <time>2017-10-23T18:15:26Z</time>
      </trkpt>
      <trkpt lat="62.636261146534" lon="17.981359404045">
        <ele>75</ele>
        <time>2017-10-23T18:15:27Z</time>
      </trkpt>
      <trkpt lat="62.636272881194" lon="17.981433835317">
        <ele>75</ele>
        <time>2017-10-23T18:15:28Z</time>
      </trkpt>
      <trkpt lat="62.63628495113" lon="17.981513882462">
        <ele>75.2</ele>
        <time>2017-10-23T18:15:29Z</time>
      </trkpt>
      <trkpt lat="62.636293752125" lon="17.981590241571">
        <ele>75.2</ele>
        <time>2017-10-23T18:15:30Z</time>
      </trkpt>
      <trkpt lat="62.636307079346" lon="17.981665678671">
        <ele>75.2</ele>
        <time>2017-10-23T18:15:31Z</time>
      </trkpt>
      <trkpt lat="62.636318227273" lon="17.981740193762">
        <ele>75.2</ele>
        <time>2017-10-23T18:15:32Z</time>
      </trkpt>
      <trkpt lat="62.63632769882" lon="17.981816385233">
        <ele>75.4</ele>
        <time>2017-10-23T18:15:33Z</time>
      </trkpt>
      <trkpt lat="62.636335996901" lon="17.981896097102">
        <ele>75.4</ele>
        <time>2017-10-23T18:15:34Z</time>
      </trkpt>
      <trkpt lat="62.636340020213" lon="17.981962397931">
        <ele>75.4</ele>
        <time>2017-10-23T18:15:35Z</time>
      </trkpt>
      <trkpt lat="62.636344881715" lon="17.982040852515">
        <ele>75.2</ele>
        <time>2017-10-23T18:15:36Z</time>
      </trkpt>
      <trkpt lat="62.636345133172" lon="17.982108662086">
        <ele>75.2</ele>
        <time>2017-10-23T18:15:37Z</time>
      </trkpt>
      <trkpt lat="62.636342534783" lon="17.982187200489">
        <ele>75</ele>
        <time>2017-10-23T18:15:38Z</time>
      </trkpt>
      <trkpt lat="62.636342534783" lon="17.982241682839">
        <ele>75</ele>
        <time>2017-10-23T18:15:39Z</time>
      </trkpt>
      <trkpt lat="62.636341612774" lon="17.98231200698">
        <ele>75.2</ele>
        <time>2017-10-23T18:15:40Z</time>
      </trkpt>
      <trkpt lat="62.636341612774" lon="17.982380906198">
        <ele>75</ele>
        <time>2017-10-23T18:15:41Z</time>
      </trkpt>
      <trkpt lat="62.636341864231" lon="17.982444273362">
        <ele>75</ele>
        <time>2017-10-23T18:15:42Z</time>
      </trkpt>
      <trkpt lat="62.636337673281" lon="17.98252490724">
        <ele>75</ele>
        <time>2017-10-23T18:15:43Z</time>
      </trkpt>
      <trkpt lat="62.636339684937" lon="17.982598081227">
        <ele>75.2</ele>
        <time>2017-10-23T18:15:44Z</time>
      </trkpt>
      <trkpt lat="62.636339601118" lon="17.982665806979">
        <ele>75.2</ele>
        <time>2017-10-23T18:15:45Z</time>
      </trkpt>
      <trkpt lat="62.636336667453" lon="17.982743339554">
        <ele>75.2</ele>
        <time>2017-10-23T18:15:46Z</time>
      </trkpt>
      <trkpt lat="62.636337673281" lon="17.982807628727">
        <ele>75.2</ele>
        <time>2017-10-23T18:15:47Z</time>
      </trkpt>
      <trkpt lat="62.636335996901" lon="17.982882898189">
        <ele>75.2</ele>
        <time>2017-10-23T18:15:48Z</time>
      </trkpt>
      <trkpt lat="62.636332308865" lon="17.98295154595">
        <ele>75.2</ele>
        <time>2017-10-23T18:15:49Z</time>
      </trkpt>
      <trkpt lat="62.636328872286" lon="17.983018014417">
        <ele>75.4</ele>
        <time>2017-10-23T18:15:50Z</time>
      </trkpt>
      <trkpt lat="62.636327279725" lon="17.983081046305">
        <ele>75.4</ele>
        <time>2017-10-23T18:15:51Z</time>
      </trkpt>
      <trkpt lat="62.636325770983" lon="17.983151621903">
        <ele>75.4</ele>
        <time>2017-10-23T18:15:52Z</time>
      </trkpt>
      <trkpt lat="62.636326944449" lon="17.983227813374">
        <ele>75.4</ele>
        <time>2017-10-23T18:15:53Z</time>
      </trkpt>
      <trkpt lat="62.636325351888" lon="17.983300735904">
        <ele>75.4</ele>
        <time>2017-10-23T18:15:54Z</time>
      </trkpt>
      <trkpt lat="62.636324597517" lon="17.983376340642">
        <ele>75.4</ele>
        <time>2017-10-23T18:15:55Z</time>
      </trkpt>
      <trkpt lat="62.636317221445" lon="17.983448005887">
        <ele>75.6</ele>
        <time>2017-10-23T18:15:56Z</time>
      </trkpt>
      <trkpt lat="62.636308168993" lon="17.983513636164">
        <ele>75.4</ele>
        <time>2017-10-23T18:15:57Z</time>
      </trkpt>
      <trkpt lat="62.636300290007" lon="17.983588402712">
        <ele>75.4</ele>
        <time>2017-10-23T18:15:58Z</time>
      </trkpt>
      <trkpt lat="62.636293584487" lon="17.98365394917">
        <ele>75.6</ele>
        <time>2017-10-23T18:15:59Z</time>
      </trkpt>
      <trkpt lat="62.636286376053" lon="17.983707844787">
        <ele>75.8</ele>
        <time>2017-10-23T18:16:00Z</time>
      </trkpt>
      <trkpt lat="62.636278832343" lon="17.983755956893">
        <ele>75.8</ele>
        <time>2017-10-23T18:16:01Z</time>
      </trkpt>
      <trkpt lat="62.636270115167" lon="17.983814294917">
        <ele>76</ele>
        <time>2017-10-23T18:16:02Z</time>
      </trkpt>
      <trkpt lat="62.636257374679" lon="17.983875063692">
        <ele>76.2</ele>
        <time>2017-10-23T18:16:03Z</time>
      </trkpt>
      <trkpt lat="62.636246813485" lon="17.983945220195">
        <ele>76.2</ele>
        <time>2017-10-23T18:16:04Z</time>
      </trkpt>
      <trkpt lat="62.636238683042" lon="17.984012945947">
        <ele>76.2</ele>
        <time>2017-10-23T18:16:05Z</time>
      </trkpt>
      <trkpt lat="62.636226361649" lon="17.984082348079">
        <ele>76.4</ele>
        <time>2017-10-23T18:16:06Z</time>
      </trkpt>
      <trkpt lat="62.636219404672" lon="17.984138506809">
        <ele>76.4</ele>
        <time>2017-10-23T18:16:07Z</time>
      </trkpt>
      <trkpt lat="62.636212615333" lon="17.984208160398">
        <ele>76.4</ele>
        <time>2017-10-23T18:16:08Z</time>
      </trkpt>
      <trkpt lat="62.636208424383" lon="17.984273287761">
        <ele>76.6</ele>
        <time>2017-10-23T18:16:09Z</time>
      </trkpt>
      <trkpt lat="62.636205825994" lon="17.984341684065">
        <ele>76.6</ele>
        <time>2017-10-23T18:16:10Z</time>
      </trkpt>
      <trkpt lat="62.636211609505" lon="17.984395579682">
        <ele>76.8</ele>
        <time>2017-10-23T18:16:11Z</time>
      </trkpt>
      <trkpt lat="62.636209681668" lon="17.984463389253">
        <ele>76.8</ele>
        <time>2017-10-23T18:16:12Z</time>
      </trkpt>
      <trkpt lat="62.63620448489" lon="17.984533294299">
        <ele>77</ele>
        <time>2017-10-23T18:16:13Z</time>
      </trkpt>
      <trkpt lat="62.636198785198" lon="17.984601355327">
        <ele>77</ele>
        <time>2017-10-23T18:16:14Z</time>
      </trkpt>
      <trkpt lat="62.636197444094" lon="17.984664471034">
        <ele>77</ele>
        <time>2017-10-23T18:16:15Z</time>
      </trkpt>
      <trkpt lat="62.636198952836" lon="17.984735549546">
        <ele>77</ele>
        <time>2017-10-23T18:16:16Z</time>
      </trkpt>
      <trkpt lat="62.636194342791" lon="17.984793803751">
        <ele>77.2</ele>
        <time>2017-10-23T18:16:17Z</time>
      </trkpt>
      <trkpt lat="62.636190403298" lon="17.984857673829">
        <ele>77.2</ele>
        <time>2017-10-23T18:16:18Z</time>
      </trkpt>
      <trkpt lat="62.63618939747" lon="17.98492464521">
        <ele>77.4</ele>
        <time>2017-10-23T18:16:19Z</time>
      </trkpt>
      <trkpt lat="62.636186212348" lon="17.984991784229">
        <ele>77.4</ele>
        <time>2017-10-23T18:16:20Z</time>
      </trkpt>
      <trkpt lat="62.636183278683" lon="17.985050792805">
        <ele>77.6</ele>
        <time>2017-10-23T18:16:21Z</time>
      </trkpt>
      <trkpt lat="62.636178668638" lon="17.985117009815">
        <ele>77.8</ele>
        <time>2017-10-23T18:16:22Z</time>
      </trkpt>
      <trkpt lat="62.636174393869" lon="17.985172330355">
        <ele>78</ele>
        <time>2017-10-23T18:16:23Z</time>
      </trkpt>
      <trkpt lat="62.636167772168" lon="17.985232428578">
        <ele>78</ele>
        <time>2017-10-23T18:16:24Z</time>
      </trkpt>
      <trkpt lat="62.636162323933" lon="17.985298310312">
        <ele>78.4</ele>
        <time>2017-10-23T18:16:25Z</time>
      </trkpt>
      <trkpt lat="62.636156624241" lon="17.985361258381">
        <ele>78.4</ele>
        <time>2017-10-23T18:16:26Z</time>
      </trkpt>
      <trkpt lat="62.636144554305" lon="17.985424122631">
        <ele>78.6</ele>
        <time>2017-10-23T18:16:27Z</time>
      </trkpt>
      <trkpt lat="62.636137513509" lon="17.985492770392">
        <ele>78.6</ele>
        <time>2017-10-23T18:16:28Z</time>
      </trkpt>
      <trkpt lat="62.636133071102" lon="17.985551695149">
        <ele>78.6</ele>
        <time>2017-10-23T18:16:29Z</time>
      </trkpt>
      <trkpt lat="62.63612653322" lon="17.985612547743">
        <ele>78.8</ele>
        <time>2017-10-23T18:16:30Z</time>
      </trkpt>
      <trkpt lat="62.636113876551" lon="17.985668790292">
        <ele>78.8</ele>
        <time>2017-10-23T18:16:31Z</time>
      </trkpt>
      <trkpt lat="62.636103985909" lon="17.985713549638">
        <ele>78.8</ele>
        <time>2017-10-23T18:16:32Z</time>
      </trkpt>
      <trkpt lat="62.636095855466" lon="17.98574774779">
        <ele>78.8</ele>
        <time>2017-10-23T18:16:33Z</time>
      </trkpt>
      <trkpt lat="62.636079678399" lon="17.985787058901">
        <ele>79</ele>
        <time>2017-10-23T18:16:34Z</time>
      </trkpt>
      <trkpt lat="62.636060735305" lon="17.985819413035">
        <ele>79</ele>
        <time>2017-10-23T18:16:35Z</time>
      </trkpt>
      <trkpt lat="62.636031901569" lon="17.985857634499">
        <ele>79</ele>
        <time>2017-10-23T18:16:36Z</time>
      </trkpt>
      <trkpt lat="62.63600331929" lon="17.985893760488">
        <ele>79</ele>
        <time>2017-10-23T18:16:37Z</time>
      </trkpt>
      <trkpt lat="62.635964008179" lon="17.985939777119">
        <ele>79.2</ele>
        <time>2017-10-23T18:16:38Z</time>
      </trkpt>
      <trkpt lat="62.63593794047" lon="17.985960480412">
        <ele>79.4</ele>
        <time>2017-10-23T18:16:39Z</time>
      </trkpt>
      <trkpt lat="62.635912124218" lon="17.985990906709">
        <ele>79.6</ele>
        <time>2017-10-23T18:16:40Z</time>
      </trkpt>
      <trkpt lat="62.635886559423" lon="17.986023679938">
        <ele>79.6</ele>
        <time>2017-10-23T18:16:41Z</time>
      </trkpt>
      <trkpt lat="62.635864095931" lon="17.986046897801">
        <ele>79.8</ele>
        <time>2017-10-23T18:16:42Z</time>
      </trkpt>
      <trkpt lat="62.635840794249" lon="17.986067349637">
        <ele>80</ele>
        <time>2017-10-23T18:16:43Z</time>
      </trkpt>
      <trkpt lat="62.635826964114" lon="17.986089813129">
        <ele>80</ele>
        <time>2017-10-23T18:16:44Z</time>
      </trkpt>
      <trkpt lat="62.63580802102" lon="17.986117976313">
        <ele>80.2</ele>
        <time>2017-10-23T18:16:45Z</time>
      </trkpt>
      <trkpt lat="62.635795364351" lon="17.986143457289">
        <ele>80.4</ele>
        <time>2017-10-23T18:16:46Z</time>
      </trkpt>
      <trkpt lat="62.635774074325" lon="17.986187629902">
        <ele>80.6</ele>
        <time>2017-10-23T18:16:47Z</time>
      </trkpt>
      <trkpt lat="62.635748006616" lon="17.986249153048">
        <ele>80.6</ele>
        <time>2017-10-23T18:16:48Z</time>
      </trkpt>
      <trkpt lat="62.635736020499" lon="17.986306149968">
        <ele>81</ele>
        <time>2017-10-23T18:16:49Z</time>
      </trkpt>
      <trkpt lat="62.635716406853" lon="17.986361135232">
        <ele>81</ele>
        <time>2017-10-23T18:16:50Z</time>
      </trkpt>
      <trkpt lat="62.635700229786" lon="17.986400446343">
        <ele>81.2</ele>
        <time>2017-10-23T18:16:51Z</time>
      </trkpt>
      <trkpt lat="62.635678688303" lon="17.986461550394">
        <ele>81.2</ele>
        <time>2017-10-23T18:16:52Z</time>
      </trkpt>
      <trkpt lat="62.635658739381" lon="17.986520475151">
        <ele>81.6</ele>
        <time>2017-10-23T18:16:53Z</time>
      </trkpt>
      <trkpt lat="62.635641640305" lon="17.986571269465">
        <ele>81.6</ele>
        <time>2017-10-23T18:16:54Z</time>
      </trkpt>
      <trkpt lat="62.635620853193" lon="17.986620890313">
        <ele>81.6</ele>
        <time>2017-10-23T18:16:55Z</time>
      </trkpt>
      <trkpt lat="62.635609034714" lon="17.986664224736">
        <ele>81.6</ele>
        <time>2017-10-23T18:16:56Z</time>
      </trkpt>
      <trkpt lat="62.635600904271" lon="17.986700015449">
        <ele>81.8</ele>
        <time>2017-10-23T18:16:57Z</time>
      </trkpt>
      <trkpt lat="62.635583721376" lon="17.986762041509">
        <ele>82</ele>
        <time>2017-10-23T18:16:58Z</time>
      </trkpt>
      <trkpt lat="62.635562515169" lon="17.986827755605">
        <ele>82</ele>
        <time>2017-10-23T18:16:59Z</time>
      </trkpt>
      <trkpt lat="62.635546086645" lon="17.986889865484">
        <ele>82</ele>
        <time>2017-10-23T18:17:00Z</time>
      </trkpt>
      <trkpt lat="62.635537872383" lon="17.986929763328">
        <ele>82.2</ele>
        <time>2017-10-23T18:17:01Z</time>
      </trkpt>
      <trkpt lat="62.63552806556" lon="17.986972427199">
        <ele>82.2</ele>
        <time>2017-10-23T18:17:02Z</time>
      </trkpt>
      <trkpt lat="62.635516582357" lon="17.987019533477">
        <ele>82.4</ele>
        <time>2017-10-23T18:17:03Z</time>
      </trkpt>
      <trkpt lat="62.635505937344" lon="17.987058174036">
        <ele>82.6</ele>
        <time>2017-10-23T18:17:04Z</time>
      </trkpt>
      <trkpt lat="62.635491604295" lon="17.987114165128">
        <ele>82.6</ele>
        <time>2017-10-23T18:17:05Z</time>
      </trkpt>
      <trkpt lat="62.63547777416" lon="17.98715171604">
        <ele>82.8</ele>
        <time>2017-10-23T18:17:06Z</time>
      </trkpt>
      <trkpt lat="62.635459501618" lon="17.987189099314">
        <ele>83</ele>
        <time>2017-10-23T18:17:07Z</time>
      </trkpt>
      <trkpt lat="62.635433769185" lon="17.987229835348">
        <ele>83.2</ele>
        <time>2017-10-23T18:17:08Z</time>
      </trkpt>
      <trkpt lat="62.635420358145" lon="17.987265206966">
        <ele>83.2</ele>
        <time>2017-10-23T18:17:09Z</time>
      </trkpt>
      <trkpt lat="62.635404516354" lon="17.987301332955">
        <ele>83.2</ele>
        <time>2017-10-23T18:17:10Z</time>
      </trkpt>
      <trkpt lat="62.635380963215" lon="17.987345254111">
        <ele>83.4</ele>
        <time>2017-10-23T18:17:11Z</time>
      </trkpt>
      <trkpt lat="62.635360008465" lon="17.987389678181">
        <ele>83.4</ele>
        <time>2017-10-23T18:17:12Z</time>
      </trkpt>
      <trkpt lat="62.635336371507" lon="17.987436113907">
        <ele>83.4</ele>
        <time>2017-10-23T18:17:13Z</time>
      </trkpt>
      <trkpt lat="62.635310052341" lon="17.987494703388">
        <ele>83.6</ele>
        <time>2017-10-23T18:17:14Z</time>
      </trkpt>
      <trkpt lat="62.635294881102" lon="17.98754315077">
        <ele>83.8</ele>
        <time>2017-10-23T18:17:15Z</time>
      </trkpt>
      <trkpt lat="62.635269567764" lon="17.987585814641">
        <ele>83.8</ele>
        <time>2017-10-23T18:17:16Z</time>
      </trkpt>
      <trkpt lat="62.635238973829" lon="17.987636273679">
        <ele>83.8</ele>
        <time>2017-10-23T18:17:17Z</time>
      </trkpt>
      <trkpt lat="62.635209972455" lon="17.987679105188">
        <ele>84</ele>
        <time>2017-10-23T18:17:18Z</time>
      </trkpt>
      <trkpt lat="62.63518776042" lon="17.987706178725">
        <ele>84.2</ele>
        <time>2017-10-23T18:17:19Z</time>
      </trkpt>
      <trkpt lat="62.635169487878" lon="17.987751440985">
        <ele>84.4</ele>
        <time>2017-10-23T18:17:20Z</time>
      </trkpt>
      <trkpt lat="62.635145934739" lon="17.987785806775">
        <ele>84.6</ele>
        <time>2017-10-23T18:17:21Z</time>
      </trkpt>
      <trkpt lat="62.635118861202" lon="17.987828722103">
        <ele>84.6</ele>
        <time>2017-10-23T18:17:22Z</time>
      </trkpt>
      <trkpt lat="62.635089440733" lon="17.987874990191">
        <ele>84.8</ele>
        <time>2017-10-23T18:17:23Z</time>
      </trkpt>
      <trkpt lat="62.635057924789" lon="17.987914636578">
        <ele>85</ele>
        <time>2017-10-23T18:17:24Z</time>
      </trkpt>
      <trkpt lat="62.635030683614" lon="17.987945901065">
        <ele>85</ele>
        <time>2017-10-23T18:17:25Z</time>
      </trkpt>
      <trkpt lat="62.635005118819" lon="17.987971633498">
        <ele>85.2</ele>
        <time>2017-10-23T18:17:26Z</time>
      </trkpt>
      <trkpt lat="62.634978380558" lon="17.987995857189">
        <ele>85.6</ele>
        <time>2017-10-23T18:17:27Z</time>
      </trkpt>
      <trkpt lat="62.634950217374" lon="17.988018907414">
        <ele>85.6</ele>
        <time>2017-10-23T18:17:28Z</time>
      </trkpt>
      <trkpt lat="62.634923227656" lon="17.9880435502">
        <ele>85.8</ele>
        <time>2017-10-23T18:17:29Z</time>
      </trkpt>
      <trkpt lat="62.634893639549" lon="17.98805277029">
        <ele>86</ele>
        <time>2017-10-23T18:17:30Z</time>
      </trkpt>
      <trkpt lat="62.634863883804" lon="17.988063080027">
        <ele>86.2</ele>
        <time>2017-10-23T18:17:31Z</time>
      </trkpt>
      <trkpt lat="62.634834966249" lon="17.988073976497">
        <ele>86.2</ele>
        <time>2017-10-23T18:17:32Z</time>
      </trkpt>
      <trkpt lat="62.634801522468" lon="17.988084118596">
        <ele>86.4</ele>
        <time>2017-10-23T18:17:33Z</time>
      </trkpt>
      <trkpt lat="62.634768162506" lon="17.988105995355">
        <ele>86.6</ele>
        <time>2017-10-23T18:17:34Z</time>
      </trkpt>
      <trkpt lat="62.634739831684" lon="17.988122256241">
        <ele>86.6</ele>
        <time>2017-10-23T18:17:35Z</time>
      </trkpt>
      <trkpt lat="62.634712841966" lon="17.988132146883">
        <ele>86.6</ele>
        <time>2017-10-23T18:17:36Z</time>
      </trkpt>
      <trkpt lat="62.634691887216" lon="17.988135248186">
        <ele>86.8</ele>
        <time>2017-10-23T18:17:37Z</time>
      </trkpt>
      <trkpt lat="62.634661125643" lon="17.988147150484">
        <ele>86.8</ele>
        <time>2017-10-23T18:17:38Z</time>
      </trkpt>
      <trkpt lat="62.634636818133" lon="17.988138014213">
        <ele>86.8</ele>
        <time>2017-10-23T18:17:39Z</time>
      </trkpt>
      <trkpt lat="62.634604799275" lon="17.988150084149">
        <ele>86.8</ele>
        <time>2017-10-23T18:17:40Z</time>
      </trkpt>
      <trkpt lat="62.634572696598" lon="17.988159639515">
        <ele>87</ele>
        <time>2017-10-23T18:17:41Z</time>
      </trkpt>
      <trkpt lat="62.634540845378" lon="17.988174726935">
        <ele>87.2</ele>
        <time>2017-10-23T18:17:42Z</time>
      </trkpt>
      <trkpt lat="62.634508575063" lon="17.988188640889">
        <ele>87.2</ele>
        <time>2017-10-23T18:17:43Z</time>
      </trkpt>
      <trkpt lat="62.634482339716" lon="17.98820029173">
        <ele>87.2</ele>
        <time>2017-10-23T18:17:44Z</time>
      </trkpt>
      <trkpt lat="62.634455433817" lon="17.988210433829">
        <ele>87.4</ele>
        <time>2017-10-23T18:17:45Z</time>
      </trkpt>
      <trkpt lat="62.634421403303" lon="17.98822292286">
        <ele>87.6</ele>
        <time>2017-10-23T18:17:46Z</time>
      </trkpt>
      <trkpt lat="62.634390893187" lon="17.988231640036">
        <ele>87.8</ele>
        <time>2017-10-23T18:17:47Z</time>
      </trkpt>
      <trkpt lat="62.634362813822" lon="17.988225521249">
        <ele>88</ele>
        <time>2017-10-23T18:17:48Z</time>
      </trkpt>
      <trkpt lat="62.634331046421" lon="17.988233651692">
        <ele>88</ele>
        <time>2017-10-23T18:17:49Z</time>
      </trkpt>
      <trkpt lat="62.63429927902" lon="17.98823381933">
        <ele>88</ele>
        <time>2017-10-23T18:17:50Z</time>
      </trkpt>
      <trkpt lat="62.634271870207" lon="17.988228957828">
        <ele>88.4</ele>
        <time>2017-10-23T18:17:51Z</time>
      </trkpt>
      <trkpt lat="62.634239348435" lon="17.988228035819">
        <ele>88.2</ele>
        <time>2017-10-23T18:17:52Z</time>
      </trkpt>
      <trkpt lat="62.634205737016" lon="17.988215630607">
        <ele>88.2</ele>
        <time>2017-10-23T18:17:53Z</time>
      </trkpt>
      <trkpt lat="62.63417019776" lon="17.98821621734">
        <ele>88.4</ele>
        <time>2017-10-23T18:17:54Z</time>
      </trkpt>
      <trkpt lat="62.634136837798" lon="17.988214960055">
        <ele>88.4</ele>
        <time>2017-10-23T18:17:55Z</time>
      </trkpt>
      <trkpt lat="62.634111775917" lon="17.98821454096">
        <ele>88.4</ele>
        <time>2017-10-23T18:17:56Z</time>
      </trkpt>
      <trkpt lat="62.634086630217" lon="17.988207500164">
        <ele>88.4</ele>
        <time>2017-10-23T18:17:57Z</time>
      </trkpt>
      <trkpt lat="62.634055030454" lon="17.988193670029">
        <ele>88.6</ele>
        <time>2017-10-23T18:17:58Z</time>
      </trkpt>
      <trkpt lat="62.634032231686" lon="17.988174726935">
        <ele>88.6</ele>
        <time>2017-10-23T18:17:59Z</time>
      </trkpt>
      <trkpt lat="62.634000129009" lon="17.988176990048">
        <ele>88.6</ele>
        <time>2017-10-23T18:18:00Z</time>
      </trkpt>
      <trkpt lat="62.633966433771" lon="17.988167434682">
        <ele>88.8</ele>
        <time>2017-10-23T18:18:01Z</time>
      </trkpt>
      <trkpt lat="62.633935839836" lon="17.98815838223">
        <ele>88.8</ele>
        <time>2017-10-23T18:18:02Z</time>
      </trkpt>
      <trkpt lat="62.633905832634" lon="17.988144719733">
        <ele>88.8</ele>
        <time>2017-10-23T18:18:03Z</time>
      </trkpt>
      <trkpt lat="62.633879094373" lon="17.988119657852">
        <ele>89</ele>
        <time>2017-10-23T18:18:04Z</time>
      </trkpt>
      <trkpt lat="62.633849003352" lon="17.988101301491">
        <ele>89</ele>
        <time>2017-10-23T18:18:05Z</time>
      </trkpt>
      <trkpt lat="62.633818912331" lon="17.98808043056">
        <ele>89</ele>
        <time>2017-10-23T18:18:06Z</time>
      </trkpt>
      <trkpt lat="62.633790581509" lon="17.988065426959">
        <ele>89.2</ele>
        <time>2017-10-23T18:18:07Z</time>
      </trkpt>
      <trkpt lat="62.633755209891" lon="17.988048327883">
        <ele>89.4</ele>
        <time>2017-10-23T18:18:08Z</time>
      </trkpt>
      <trkpt lat="62.633725705603" lon="17.988020583794">
        <ele>89.6</ele>
        <time>2017-10-23T18:18:09Z</time>
      </trkpt>
      <trkpt lat="62.633696368953" lon="17.987987140013">
        <ele>89.6</ele>
        <time>2017-10-23T18:18:10Z</time>
      </trkpt>
      <trkpt lat="62.633670720339" lon="17.987959060648">
        <ele>89.6</ele>
        <time>2017-10-23T18:18:11Z</time>
      </trkpt>
      <trkpt lat="62.633648424485" lon="17.987929137265">
        <ele>89.8</ele>
        <time>2017-10-23T18:18:12Z</time>
      </trkpt>
      <trkpt lat="62.633620428939" lon="17.987908517791">
        <ele>89.8</ele>
        <time>2017-10-23T18:18:13Z</time>
      </trkpt>
      <trkpt lat="62.633595283239" lon="17.987890245249">
        <ele>89.8</ele>
        <time>2017-10-23T18:18:14Z</time>
      </trkpt>
      <trkpt lat="62.633569718444" lon="17.987866356834">
        <ele>90</ele>
        <time>2017-10-23T18:18:15Z</time>
      </trkpt>
      <trkpt lat="62.633539543604" lon="17.987839618573">
        <ele>90.2</ele>
        <time>2017-10-23T18:18:16Z</time>
      </trkpt>
      <trkpt lat="62.633513392076" lon="17.987803995498">
        <ele>90.4</ele>
        <time>2017-10-23T18:18:17Z</time>
      </trkpt>
      <trkpt lat="62.633490928584" lon="17.987764935844">
        <ele>90.6</ele>
        <time>2017-10-23T18:18:18Z</time>
      </trkpt>
      <trkpt lat="62.633465615246" lon="17.987733838995">
        <ele>90.8</ele>
        <time>2017-10-23T18:18:19Z</time>
      </trkpt>
      <trkpt lat="62.633439882813" lon="17.987702574508">
        <ele>91</ele>
        <time>2017-10-23T18:18:20Z</time>
      </trkpt>
      <trkpt lat="62.633418508968" lon="17.987673237858">
        <ele>90.8</ele>
        <time>2017-10-23T18:18:21Z</time>
      </trkpt>
      <trkpt lat="62.633395877838" lon="17.987632753281">
        <ele>91</ele>
        <time>2017-10-23T18:18:22Z</time>
      </trkpt>
      <trkpt lat="62.633375258364" lon="17.987590424686">
        <ele>91.2</ele>
        <time>2017-10-23T18:18:23Z</time>
      </trkpt>
      <trkpt lat="62.63335296251" lon="17.987547257901">
        <ele>91.2</ele>
        <time>2017-10-23T18:18:24Z</time>
      </trkpt>
      <trkpt lat="62.633331588665" lon="17.98748950661">
        <ele>91.2</ele>
        <time>2017-10-23T18:18:25Z</time>
      </trkpt>
      <trkpt lat="62.633314070494" lon="17.987438879934">
        <ele>91.4</ele>
        <time>2017-10-23T18:18:26Z</time>
      </trkpt>
      <trkpt lat="62.633297390513" lon="17.987390181095">
        <ele>91.6</ele>
        <time>2017-10-23T18:18:27Z</time>
      </trkpt>
      <trkpt lat="62.63327584903" lon="17.987326311017">
        <ele>91.8</ele>
        <time>2017-10-23T18:18:28Z</time>
      </trkpt>
      <trkpt lat="62.63325992342" lon="17.987256238333">
        <ele>91.8</ele>
        <time>2017-10-23T18:18:29Z</time>
      </trkpt>
      <trkpt lat="62.633240393593" lon="17.987192703531">
        <ele>91.6</ele>
        <time>2017-10-23T18:18:30Z</time>
      </trkpt>
      <trkpt lat="62.633226060544" lon="17.987123469037">
        <ele>91.2</ele>
        <time>2017-10-23T18:18:31Z</time>
      </trkpt>
      <trkpt lat="62.633213990608" lon="17.987061778253">
        <ele>90.8</ele>
        <time>2017-10-23T18:18:32Z</time>
      </trkpt>
      <trkpt lat="62.633202675043" lon="17.986995225967">
        <ele>90.6</ele>
        <time>2017-10-23T18:18:33Z</time>
      </trkpt>
      <trkpt lat="62.633192952039" lon="17.986916855202">
        <ele>90.2</ele>
        <time>2017-10-23T18:18:34Z</time>
      </trkpt>
      <trkpt lat="62.633184653958" lon="17.986846111966">
        <ele>90</ele>
        <time>2017-10-23T18:18:35Z</time>
      </trkpt>
      <trkpt lat="62.633179373361" lon="17.986775704006">
        <ele>89.8</ele>
        <time>2017-10-23T18:18:36Z</time>
      </trkpt>
      <trkpt lat="62.633175601506" lon="17.986704709313">
        <ele>89.8</ele>
        <time>2017-10-23T18:18:37Z</time>
      </trkpt>
      <trkpt lat="62.633173422212" lon="17.986631116231">
        <ele>89.6</ele>
        <time>2017-10-23T18:18:38Z</time>
      </trkpt>
      <trkpt lat="62.633173841307" lon="17.986560121538">
        <ele>89.6</ele>
        <time>2017-10-23T18:18:39Z</time>
      </trkpt>
      <trkpt lat="62.633170907642" lon="17.986483427153">
        <ele>89.6</ele>
        <time>2017-10-23T18:18:40Z</time>
      </trkpt>
      <trkpt lat="62.633165291769" lon="17.98641075608">
        <ele>89.4</ele>
        <time>2017-10-23T18:18:41Z</time>
      </trkpt>
      <trkpt lat="62.633164537398" lon="17.986324003415">
        <ele>89.4</ele>
        <time>2017-10-23T18:18:42Z</time>
      </trkpt>
      <trkpt lat="62.633162609561" lon="17.986236077284">
        <ele>89.6</ele>
        <time>2017-10-23T18:18:43Z</time>
      </trkpt>
      <trkpt lat="62.633162609561" lon="17.986158041795">
        <ele>89.4</ele>
        <time>2017-10-23T18:18:44Z</time>
      </trkpt>
      <trkpt lat="62.633160514086" lon="17.986082604695">
        <ele>89.2</ele>
        <time>2017-10-23T18:18:45Z</time>
      </trkpt>
      <trkpt lat="62.633156574593" lon="17.986006832319">
        <ele>89</ele>
        <time>2017-10-23T18:18:46Z</time>
      </trkpt>
      <trkpt lat="62.633152216005" lon="17.985935586169">
        <ele>88.8</ele>
        <time>2017-10-23T18:18:47Z</time>
      </trkpt>
      <trkpt lat="62.633151377815" lon="17.98585755068">
        <ele>88.4</ele>
        <time>2017-10-23T18:18:48Z</time>
      </trkpt>
      <trkpt lat="62.633149701435" lon="17.98578630453">
        <ele>88</ele>
        <time>2017-10-23T18:18:49Z</time>
      </trkpt>
      <trkpt lat="62.63314928234" lon="17.985721009529">
        <ele>88</ele>
        <time>2017-10-23T18:18:50Z</time>
      </trkpt>
      <trkpt lat="62.633150707263" lon="17.985653451415">
        <ele>87.8</ele>
        <time>2017-10-23T18:18:51Z</time>
      </trkpt>
      <trkpt lat="62.633153389471" lon="17.985587569681">
        <ele>87.6</ele>
        <time>2017-10-23T18:18:52Z</time>
      </trkpt>
      <trkpt lat="62.633154395299" lon="17.98550886364">
        <ele>87.6</ele>
        <time>2017-10-23T18:18:53Z</time>
      </trkpt>
      <trkpt lat="62.633158586249" lon="17.985432336893">
        <ele>87.4</ele>
        <time>2017-10-23T18:18:54Z</time>
      </trkpt>
      <trkpt lat="62.633160849362" lon="17.985349775178">
        <ele>87.4</ele>
        <time>2017-10-23T18:18:55Z</time>
      </trkpt>
      <trkpt lat="62.633166716692" lon="17.98527417044">
        <ele>87.2</ele>
        <time>2017-10-23T18:18:56Z</time>
      </trkpt>
      <trkpt lat="62.633172081108" lon="17.985194961485">
        <ele>87</ele>
        <time>2017-10-23T18:18:57Z</time>
      </trkpt>
      <trkpt lat="62.633179876275" lon="17.985108795553">
        <ele>86.6</ele>
        <time>2017-10-23T18:18:58Z</time>
      </trkpt>
      <trkpt lat="62.633189264003" lon="17.985033274634">
        <ele>86.2</ele>
        <time>2017-10-23T18:18:59Z</time>
      </trkpt>
      <trkpt lat="62.633199322283" lon="17.984961274113">
        <ele>86</ele>
        <time>2017-10-23T18:19:00Z</time>
      </trkpt>
      <trkpt lat="62.633206698355" lon="17.984889860325">
        <ele>85.6</ele>
        <time>2017-10-23T18:19:01Z</time>
      </trkpt>
      <trkpt lat="62.633215164074" lon="17.984819368546">
        <ele>85.4</ele>
        <time>2017-10-23T18:19:02Z</time>
      </trkpt>
      <trkpt lat="62.633227569286" lon="17.984752648622">
        <ele>85.2</ele>
        <time>2017-10-23T18:19:03Z</time>
      </trkpt>
      <trkpt lat="62.633238801032" lon="17.984680899558">
        <ele>85</ele>
        <time>2017-10-23T18:19:04Z</time>
      </trkpt>
      <trkpt lat="62.633252212072" lon="17.984610910693">
        <ele>84.8</ele>
        <time>2017-10-23T18:19:05Z</time>
      </trkpt>
      <trkpt lat="62.63326495256" lon="17.98455081247">
        <ele>84.6</ele>
        <time>2017-10-23T18:19:06Z</time>
      </trkpt>
      <trkpt lat="62.63327584903" lon="17.984488702591">
        <ele>84.4</ele>
        <time>2017-10-23T18:19:07Z</time>
      </trkpt>
      <trkpt lat="62.633287499871" lon="17.98441837845">
        <ele>84.4</ele>
        <time>2017-10-23T18:19:08Z</time>
      </trkpt>
      <trkpt lat="62.633295211219" lon="17.984360040426">
        <ele>84.4</ele>
        <time>2017-10-23T18:19:09Z</time>
      </trkpt>
      <trkpt lat="62.63330267111" lon="17.984293655778">
        <ele>84.4</ele>
        <time>2017-10-23T18:19:10Z</time>
      </trkpt>
      <trkpt lat="62.63331105301" lon="17.984233809012">
        <ele>84.4</ele>
        <time>2017-10-23T18:19:11Z</time>
      </trkpt>
      <trkpt lat="62.633318093806" lon="17.984167927278">
        <ele>84.4</ele>
        <time>2017-10-23T18:19:12Z</time>
      </trkpt>
      <trkpt lat="62.633327062439" lon="17.984092573997">
        <ele>84.4</ele>
        <time>2017-10-23T18:19:13Z</time>
      </trkpt>
      <trkpt lat="62.633336114891" lon="17.984024932064">
        <ele>84.4</ele>
        <time>2017-10-23T18:19:14Z</time>
      </trkpt>
      <trkpt lat="62.633346676085" lon="17.983967264592">
        <ele>84.4</ele>
        <time>2017-10-23T18:19:15Z</time>
      </trkpt>
      <trkpt lat="62.633358662202" lon="17.98390372979">
        <ele>84.4</ele>
        <time>2017-10-23T18:19:16Z</time>
      </trkpt>
      <trkpt lat="62.633367547016" lon="17.983846146137">
        <ele>84.4</ele>
        <time>2017-10-23T18:19:17Z</time>
      </trkpt>
      <trkpt lat="62.633376264192" lon="17.983776744005">
        <ele>84.6</ele>
        <time>2017-10-23T18:19:18Z</time>
      </trkpt>
      <trkpt lat="62.6333873283" lon="17.983706587502">
        <ele>84.6</ele>
        <time>2017-10-23T18:19:19Z</time>
      </trkpt>
      <trkpt lat="62.633396967485" lon="17.983633078239">
        <ele>84.6</ele>
        <time>2017-10-23T18:19:20Z</time>
      </trkpt>
      <trkpt lat="62.633410043249" lon="17.983568537609">
        <ele>84.6</ele>
        <time>2017-10-23T18:19:21Z</time>
      </trkpt>
      <trkpt lat="62.633424041022" lon="17.983498632563">
        <ele>84.8</ele>
        <time>2017-10-23T18:19:22Z</time>
      </trkpt>
      <trkpt lat="62.633439631356" lon="17.983426548223">
        <ele>84.8</ele>
        <time>2017-10-23T18:19:23Z</time>
      </trkpt>
      <trkpt lat="62.633451952749" lon="17.983359828299">
        <ele>84.8</ele>
        <time>2017-10-23T18:19:24Z</time>
      </trkpt>
      <trkpt lat="62.633459999373" lon="17.983293108375">
        <ele>84.8</ele>
        <time>2017-10-23T18:19:25Z</time>
      </trkpt>
      <trkpt lat="62.633468297454" lon="17.983227897193">
        <ele>85</ele>
        <time>2017-10-23T18:19:26Z</time>
      </trkpt>
      <trkpt lat="62.633479361562" lon="17.983163272744">
        <ele>85</ele>
        <time>2017-10-23T18:19:27Z</time>
      </trkpt>
      <trkpt lat="62.633491180041" lon="17.983092194232">
        <ele>85</ele>
        <time>2017-10-23T18:19:28Z</time>
      </trkpt>
      <trkpt lat="62.63350383671" lon="17.983027569783">
        <ele>85</ele>
        <time>2017-10-23T18:19:29Z</time>
      </trkpt>
      <trkpt lat="62.633511799515" lon="17.982964705533">
        <ele>85</ele>
        <time>2017-10-23T18:19:30Z</time>
      </trkpt>
      <trkpt lat="62.633523031261" lon="17.982902679473">
        <ele>85</ele>
        <time>2017-10-23T18:19:31Z</time>
      </trkpt>
      <trkpt lat="62.633535771749" lon="17.982845514915">
        <ele>85</ele>
        <time>2017-10-23T18:19:32Z</time>
      </trkpt>
      <trkpt lat="62.633547338771" lon="17.982781644837">
        <ele>85</ele>
        <time>2017-10-23T18:19:33Z</time>
      </trkpt>
      <trkpt lat="62.633560079259" lon="17.982718696768">
        <ele>85</ele>
        <time>2017-10-23T18:19:34Z</time>
      </trkpt>
      <trkpt lat="62.633570388996" lon="17.98266069402">
        <ele>85</ele>
        <time>2017-10-23T18:19:35Z</time>
      </trkpt>
      <trkpt lat="62.633580531095" lon="17.982603780919">
        <ele>85</ele>
        <time>2017-10-23T18:19:36Z</time>
      </trkpt>
      <trkpt lat="62.633592014298" lon="17.982543263601">
        <ele>85</ele>
        <time>2017-10-23T18:19:37Z</time>
      </trkpt>
      <trkpt lat="62.633606514985" lon="17.9824779686">
        <ele>85</ele>
        <time>2017-10-23T18:19:38Z</time>
      </trkpt>
      <trkpt lat="62.633614729247" lon="17.982419462938">
        <ele>85</ele>
        <time>2017-10-23T18:19:39Z</time>
      </trkpt>
      <trkpt lat="62.633617998188" lon="17.982345786037">
        <ele>85</ele>
        <time>2017-10-23T18:19:40Z</time>
      </trkpt>
      <trkpt lat="62.633620764215" lon="17.982282586511">
        <ele>85</ele>
        <time>2017-10-23T18:19:41Z</time>
      </trkpt>
      <trkpt lat="62.633626463907" lon="17.982225589591">
        <ele>85</ele>
        <time>2017-10-23T18:19:42Z</time>
      </trkpt>
      <trkpt lat="62.633635851635" lon="17.982159288762">
        <ele>84.8</ele>
        <time>2017-10-23T18:19:43Z</time>
      </trkpt>
      <trkpt lat="62.633644568811" lon="17.9821007831">
        <ele>84.8</ele>
        <time>2017-10-23T18:19:44Z</time>
      </trkpt>
      <trkpt lat="62.633649514132" lon="17.982037499755">
        <ele>85</ele>
        <time>2017-10-23T18:19:45Z</time>
      </trkpt>
      <trkpt lat="62.633655884376" lon="17.98196499632">
        <ele>85</ele>
        <time>2017-10-23T18:19:46Z</time>
      </trkpt>
      <trkpt lat="62.633660242964" lon="17.981902048251">
        <ele>85</ele>
        <time>2017-10-23T18:19:47Z</time>
      </trkpt>
      <trkpt lat="62.633670887977" lon="17.981829628635">
        <ele>85.2</ele>
        <time>2017-10-23T18:19:48Z</time>
      </trkpt>
      <trkpt lat="62.633680275705" lon="17.981771961163">
        <ele>85.2</ele>
        <time>2017-10-23T18:19:49Z</time>
      </trkpt>
      <trkpt lat="62.633686143035" lon="17.981706749981">
        <ele>85.2</ele>
        <time>2017-10-23T18:19:50Z</time>
      </trkpt>
      <trkpt lat="62.633691842727" lon="17.981629636501">
        <ele>85</ele>
        <time>2017-10-23T18:19:51Z</time>
      </trkpt>
      <trkpt lat="62.633696788048" lon="17.981557216885">
        <ele>85.2</ele>
        <time>2017-10-23T18:19:52Z</time>
      </trkpt>
      <trkpt lat="62.633703661206" lon="17.981475744817">
        <ele>85.2</ele>
        <time>2017-10-23T18:19:53Z</time>
      </trkpt>
      <trkpt lat="62.633712210744" lon="17.981410365997">
        <ele>85.2</ele>
        <time>2017-10-23T18:19:54Z</time>
      </trkpt>
      <trkpt lat="62.633724029223" lon="17.981350100136">
        <ele>85.2</ele>
        <time>2017-10-23T18:19:55Z</time>
      </trkpt>
      <trkpt lat="62.633737104987" lon="17.981288996085">
        <ele>85.2</ele>
        <time>2017-10-23T18:19:56Z</time>
      </trkpt>
      <trkpt lat="62.633752024769" lon="17.981226383292">
        <ele>85.4</ele>
        <time>2017-10-23T18:19:57Z</time>
      </trkpt>
      <trkpt lat="62.633760909583" lon="17.981168045268">
        <ele>85.2</ele>
        <time>2017-10-23T18:19:58Z</time>
      </trkpt>
      <trkpt lat="62.633774907356" lon="17.981086908476">
        <ele>85.4</ele>
        <time>2017-10-23T18:19:59Z</time>
      </trkpt>
      <trkpt lat="62.633787647844" lon="17.981031587936">
        <ele>85.4</ele>
        <time>2017-10-23T18:20:00Z</time>
      </trkpt>
      <trkpt lat="62.633808770232" lon="17.980978781966">
        <ele>85.4</ele>
        <time>2017-10-23T18:20:01Z</time>
      </trkpt>
      <trkpt lat="62.63382737805" lon="17.980935279905">
        <ele>85.6</ele>
        <time>2017-10-23T18:20:02Z</time>
      </trkpt>
      <trkpt lat="62.633845566773" lon="17.980887586894">
        <ele>85.6</ele>
        <time>2017-10-23T18:20:03Z</time>
      </trkpt>
      <trkpt lat="62.633864761324" lon="17.980837714589">
        <ele>85.6</ele>
        <time>2017-10-23T18:20:04Z</time>
      </trkpt>
      <trkpt lat="62.63388018402" lon="17.98078650118">
        <ele>86</ele>
        <time>2017-10-23T18:20:05Z</time>
      </trkpt>
      <trkpt lat="62.633896612544" lon="17.9807345334">
        <ele>86</ele>
        <time>2017-10-23T18:20:06Z</time>
      </trkpt>
      <trkpt lat="62.63391790257" lon="17.980682649439">
        <ele>86.2</ele>
        <time>2017-10-23T18:20:07Z</time>
      </trkpt>
      <trkpt lat="62.6339321518" lon="17.980616180972">
        <ele>86.2</ele>
        <time>2017-10-23T18:20:08Z</time>
      </trkpt>
      <trkpt lat="62.633945227564" lon="17.980554993102">
        <ele>86.4</ele>
        <time>2017-10-23T18:20:09Z</time>
      </trkpt>
      <trkpt lat="62.633956794586" lon="17.980496571259">
        <ele>86.4</ele>
        <time>2017-10-23T18:20:10Z</time>
      </trkpt>
      <trkpt lat="62.633971127635" lon="17.980450219352">
        <ele>86.4</ele>
        <time>2017-10-23T18:20:11Z</time>
      </trkpt>
      <trkpt lat="62.633985544503" lon="17.980397664839">
        <ele>86.4</ele>
        <time>2017-10-23T18:20:12Z</time>
      </trkpt>
      <trkpt lat="62.634006415434" lon="17.980338237168">
        <ele>86.4</ele>
        <time>2017-10-23T18:20:13Z</time>
      </trkpt>
      <trkpt lat="62.634024771795" lon="17.980279060954">
        <ele>86.4</ele>
        <time>2017-10-23T18:20:14Z</time>
      </trkpt>
      <trkpt lat="62.634050252771" lon="17.980227931364">
        <ele>86.6</ele>
        <time>2017-10-23T18:20:15Z</time>
      </trkpt>
      <trkpt lat="62.634076488118" lon="17.980187027692">
        <ele>86.6</ele>
        <time>2017-10-23T18:20:16Z</time>
      </trkpt>
      <trkpt lat="62.634097023773" lon="17.980153751549">
        <ele>86.6</ele>
        <time>2017-10-23T18:20:17Z</time>
      </trkpt>
      <trkpt lat="62.634118900532" lon="17.980101364674">
        <ele>86.6</ele>
        <time>2017-10-23T18:20:18Z</time>
      </trkpt>
      <trkpt lat="62.634137843626" lon="17.980049396894">
        <ele>86.6</ele>
        <time>2017-10-23T18:20:19Z</time>
      </trkpt>
      <trkpt lat="62.634151338485" lon="17.979997177657">
        <ele>86.6</ele>
        <time>2017-10-23T18:20:20Z</time>
      </trkpt>
      <trkpt lat="62.63416768319" lon="17.9799382529">
        <ele>86.8</ele>
        <time>2017-10-23T18:20:21Z</time>
      </trkpt>
      <trkpt lat="62.634186039551" lon="17.979889554061">
        <ele>86.8</ele>
        <time>2017-10-23T18:20:22Z</time>
      </trkpt>
      <trkpt lat="62.634206491387" lon="17.979830042571">
        <ele>86.8</ele>
        <time>2017-10-23T18:20:23Z</time>
      </trkpt>
      <trkpt lat="62.634227110861" lon="17.979780924637">
        <ele>86.8</ele>
        <time>2017-10-23T18:20:24Z</time>
      </trkpt>
      <trkpt lat="62.634241863005" lon="17.979720239681">
        <ele>86.8</ele>
        <time>2017-10-23T18:20:25Z</time>
      </trkpt>
      <trkpt lat="62.634255860778" lon="17.979664667684">
        <ele>86.6</ele>
        <time>2017-10-23T18:20:26Z</time>
      </trkpt>
      <trkpt lat="62.634270529103" lon="17.979609095687">
        <ele>86.8</ele>
        <time>2017-10-23T18:20:27Z</time>
      </trkpt>
      <trkpt lat="62.63428586798" lon="17.97954095084">
        <ele>86.8</ele>
        <time>2017-10-23T18:20:28Z</time>
      </trkpt>
      <trkpt lat="62.634299698115" lon="17.979471632527">
        <ele>86.6</ele>
        <time>2017-10-23T18:20:29Z</time>
      </trkpt>
      <trkpt lat="62.634310678404" lon="17.979417150177">
        <ele>86.6</ele>
        <time>2017-10-23T18:20:30Z</time>
      </trkpt>
      <trkpt lat="62.634325346729" lon="17.979351687538">
        <ele>86.6</ele>
        <time>2017-10-23T18:20:31Z</time>
      </trkpt>
      <trkpt lat="62.634343200176" lon="17.979300641767">
        <ele>86.4</ele>
        <time>2017-10-23T18:20:32Z</time>
      </trkpt>
      <trkpt lat="62.634354096646" lon="17.979259905733">
        <ele>86.4</ele>
        <time>2017-10-23T18:20:33Z</time>
      </trkpt>
      <trkpt lat="62.634372620645" lon="17.979184049538">
        <ele>86.4</ele>
        <time>2017-10-23T18:20:34Z</time>
      </trkpt>
      <trkpt lat="62.634383433296" lon="17.979120347098">
        <ele>86.4</ele>
        <time>2017-10-23T18:20:35Z</time>
      </trkpt>
      <trkpt lat="62.634394497404" lon="17.979056141744">
        <ele>86.6</ele>
        <time>2017-10-23T18:20:36Z</time>
      </trkpt>
      <trkpt lat="62.634408662815" lon="17.978995372969">
        <ele>86.6</ele>
        <time>2017-10-23T18:20:37Z</time>
      </trkpt>
      <trkpt lat="62.634426097167" lon="17.978929575054">
        <ele>86.6</ele>
        <time>2017-10-23T18:20:38Z</time>
      </trkpt>
      <trkpt lat="62.634441016949" lon="17.978876517627">
        <ele>86.6</ele>
        <time>2017-10-23T18:20:39Z</time>
      </trkpt>
      <trkpt lat="62.634486782123" lon="17.97878825622">
        <ele>86.6</ele>
        <time>2017-10-23T18:20:41Z</time>
      </trkpt>
      <trkpt lat="62.634509413253" lon="17.978751292041">
        <ele>86.8</ele>
        <time>2017-10-23T18:20:42Z</time>
      </trkpt>
      <trkpt lat="62.634529865089" lon="17.978726816893">
        <ele>86.8</ele>
        <time>2017-10-23T18:20:43Z</time>
      </trkpt>
      <trkpt lat="62.634546209794" lon="17.978717093889">
        <ele>86.6</ele>
        <time>2017-10-23T18:20:44Z</time>
      </trkpt>
      <trkpt lat="62.6345607943" lon="17.978711310378">
        <ele>86.8</ele>
        <time>2017-10-23T18:20:45Z</time>
      </trkpt>
      <trkpt lat="62.634576049358" lon="17.978708041437">
        <ele>86.8</ele>
        <time>2017-10-23T18:20:46Z</time>
      </trkpt>
      <trkpt lat="62.634586694371" lon="17.978700665365">
        <ele>86.8</ele>
        <time>2017-10-23T18:20:47Z</time>
      </trkpt>
      <trkpt lat="62.634609493139" lon="17.978711058921">
        <ele>86.8</ele>
        <time>2017-10-23T18:20:48Z</time>
      </trkpt>
      <trkpt lat="62.634633800649" lon="17.978724134685">
        <ele>86.8</ele>
        <time>2017-10-23T18:20:49Z</time>
      </trkpt>
      <trkpt lat="62.634655761227" lon="17.978735198793">
        <ele>86.8</ele>
        <time>2017-10-23T18:20:50Z</time>
      </trkpt>
      <trkpt lat="62.634685852248" lon="17.978753638973">
        <ele>86.6</ele>
        <time>2017-10-23T18:20:52Z</time>
      </trkpt>
      <trkpt lat="62.634706387903" lon="17.978755315353">
        <ele>86.6</ele>
        <time>2017-10-23T18:20:53Z</time>
      </trkpt>
      <trkpt lat="62.634724828083" lon="17.978758751932">
        <ele>86.4</ele>
        <time>2017-10-23T18:20:54Z</time>
      </trkpt>
      <trkpt lat="62.634741508064" lon="17.978764032529">
        <ele>86.4</ele>
        <time>2017-10-23T18:20:55Z</time>
      </trkpt>
      <trkpt lat="62.63475693076" lon="17.978780628691">
        <ele>86.2</ele>
        <time>2017-10-23T18:20:56Z</time>
      </trkpt>
      <trkpt lat="62.634771515266" lon="17.978793788274">
        <ele>86.2</ele>
        <time>2017-10-23T18:20:57Z</time>
      </trkpt>
      <trkpt lat="62.634788614342" lon="17.978806864038">
        <ele>86</ele>
        <time>2017-10-23T18:20:58Z</time>
      </trkpt>
      <trkpt lat="62.634810072006" lon="17.978814323929">
        <ele>85.8</ele>
        <time>2017-10-23T18:21:00Z</time>
      </trkpt>
      <trkpt lat="62.634824740331" lon="17.978819017793">
        <ele>85.8</ele>
        <time>2017-10-23T18:21:01Z</time>
      </trkpt>
      <trkpt lat="62.634838989561" lon="17.978820442716">
        <ele>85.6</ele>
        <time>2017-10-23T18:21:02Z</time>
      </trkpt>
      <trkpt lat="62.634856256275" lon="17.978832596471">
        <ele>85.4</ele>
        <time>2017-10-23T18:21:03Z</time>
      </trkpt>
      <trkpt lat="62.634868242392" lon="17.978833937575">
        <ele>85.4</ele>
        <time>2017-10-23T18:21:04Z</time>
      </trkpt>
      <trkpt lat="62.634881066699" lon="17.978840559276">
        <ele>85.4</ele>
        <time>2017-10-23T18:21:05Z</time>
      </trkpt>
      <trkpt lat="62.634896489395" lon="17.978852042479">
        <ele>85.4</ele>
        <time>2017-10-23T18:21:06Z</time>
      </trkpt>
      <trkpt lat="62.634911073901" lon="17.978862100759">
        <ele>85.4</ele>
        <time>2017-10-23T18:21:07Z</time>
      </trkpt>
      <trkpt lat="62.634926999511" lon="17.978875679437">
        <ele>85.4</ele>
        <time>2017-10-23T18:21:08Z</time>
      </trkpt>
      <trkpt lat="62.634943092759" lon="17.978880038025">
        <ele>85.2</ele>
        <time>2017-10-23T18:21:09Z</time>
      </trkpt>
      <trkpt lat="62.634956922894" lon="17.978882552595">
        <ele>85.2</ele>
        <time>2017-10-23T18:21:10Z</time>
      </trkpt>
      <trkpt lat="62.634970753029" lon="17.978890180124">
        <ele>85.2</ele>
        <time>2017-10-23T18:21:11Z</time>
      </trkpt>
      <trkpt lat="62.634985672811" lon="17.978900992775">
        <ele>85.2</ele>
        <time>2017-10-23T18:21:12Z</time>
      </trkpt>
      <trkpt lat="62.634997323652" lon="17.978902752974">
        <ele>85.2</ele>
        <time>2017-10-23T18:21:13Z</time>
      </trkpt>
      <trkpt lat="62.635012997805" lon="17.978904261716">
        <ele>85.2</ele>
        <time>2017-10-23T18:21:14Z</time>
      </trkpt>
      <trkpt lat="62.635023894275" lon="17.978909039399">
        <ele>85.4</ele>
        <time>2017-10-23T18:21:15Z</time>
      </trkpt>
      <trkpt lat="62.63503269527" lon="17.97891482291">
        <ele>85.2</ele>
        <time>2017-10-23T18:21:16Z</time>
      </trkpt>
      <trkpt lat="62.635043172645" lon="17.978917253661">
        <ele>85.2</ele>
        <time>2017-10-23T18:21:17Z</time>
      </trkpt>
      <trkpt lat="62.63505448821" lon="17.978917086023">
        <ele>85.2</ele>
        <time>2017-10-23T18:21:18Z</time>
      </trkpt>
      <trkpt lat="62.635066977241" lon="17.978926641389">
        <ele>85.2</ele>
        <time>2017-10-23T18:21:19Z</time>
      </trkpt>
      <trkpt lat="62.635079130996" lon="17.978934855651">
        <ele>85.2</ele>
        <time>2017-10-23T18:21:20Z</time>
      </trkpt>
      <trkpt lat="62.635091200932" lon="17.978938040773">
        <ele>85.2</ele>
        <time>2017-10-23T18:21:21Z</time>
      </trkpt>
      <trkpt lat="62.635109557293" lon="17.978935442384">
        <ele>85</ele>
        <time>2017-10-23T18:21:22Z</time>
      </trkpt>
      <trkpt lat="62.635123555066" lon="17.978947679958">
        <ele>85</ele>
        <time>2017-10-23T18:21:23Z</time>
      </trkpt>
      <trkpt lat="62.635135625002" lon="17.978951284175">
        <ele>85</ele>
        <time>2017-10-23T18:21:24Z</time>
      </trkpt>
      <trkpt lat="62.635148197852" lon="17.978958157333">
        <ele>85</ele>
        <time>2017-10-23T18:21:25Z</time>
      </trkpt>
      <trkpt lat="62.635160435426" lon="17.978966371595">
        <ele>85.2</ele>
        <time>2017-10-23T18:21:26Z</time>
      </trkpt>
      <trkpt lat="62.635171248077" lon="17.978971316916">
        <ele>85.2</ele>
        <time>2017-10-23T18:21:27Z</time>
      </trkpt>
      <trkpt lat="62.635184156203" lon="17.978966874509">
        <ele>85.2</ele>
        <time>2017-10-23T18:21:28Z</time>
      </trkpt>
      <trkpt lat="62.635194130664" lon="17.978959582256">
        <ele>85.2</ele>
        <time>2017-10-23T18:21:29Z</time>
      </trkpt>
      <trkpt lat="62.635207960799" lon="17.978957067686">
        <ele>85</ele>
        <time>2017-10-23T18:21:30Z</time>
      </trkpt>
      <trkpt lat="62.63522547897" lon="17.978967880337">
        <ele>84.8</ele>
        <time>2017-10-23T18:21:31Z</time>
      </trkpt>
      <trkpt lat="62.635236291621" lon="17.978967712699">
        <ele>84.6</ele>
        <time>2017-10-23T18:21:32Z</time>
      </trkpt>
      <trkpt lat="62.635242410408" lon="17.97896930526">
        <ele>84.6</ele>
        <time>2017-10-23T18:21:33Z</time>
      </trkpt>
      <trkpt lat="62.635260180036" lon="17.978971400735">
        <ele>84.6</ele>
        <time>2017-10-23T18:21:34Z</time>
      </trkpt>
      <trkpt lat="62.63527577037" lon="17.978975424047">
        <ele>84.4</ele>
        <time>2017-10-23T18:21:35Z</time>
      </trkpt>
      <trkpt lat="62.63528499046" lon="17.978975004952">
        <ele>84.4</ele>
        <time>2017-10-23T18:21:36Z</time>
      </trkpt>
      <trkpt lat="62.635298820595" lon="17.978971568373">
        <ele>84.4</ele>
        <time>2017-10-23T18:21:37Z</time>
      </trkpt>
      <trkpt lat="62.635309884703" lon="17.978975256409">
        <ele>84.4</ele>
        <time>2017-10-23T18:21:38Z</time>
      </trkpt>
      <trkpt lat="62.635315668214" lon="17.978970478726">
        <ele>84.2</ele>
        <time>2017-10-23T18:21:39Z</time>
      </trkpt>
      <trkpt lat="62.63532522358" lon="17.97897265802">
        <ele>84.2</ele>
        <time>2017-10-23T18:21:40Z</time>
      </trkpt>
      <trkpt lat="62.635337209697" lon="17.978973831486">
        <ele>84.2</ele>
        <time>2017-10-23T18:21:41Z</time>
      </trkpt>
      <trkpt lat="62.635351794203" lon="17.978973663848">
        <ele>84.2</ele>
        <time>2017-10-23T18:21:42Z</time>
      </trkpt>
      <trkpt lat="62.635355230782" lon="17.978971987468">
        <ele>84</ele>
        <time>2017-10-23T18:21:43Z</time>
      </trkpt>
      <trkpt lat="62.635378364826" lon="17.978973244753">
        <ele>84</ele>
        <time>2017-10-23T18:21:44Z</time>
      </trkpt>
      <trkpt lat="62.635387584916" lon="17.978976513694">
        <ele>84</ele>
        <time>2017-10-23T18:21:45Z</time>
      </trkpt>
      <trkpt lat="62.635401750327" lon="17.978977100427">
        <ele>83.8</ele>
        <time>2017-10-23T18:21:46Z</time>
      </trkpt>
      <trkpt lat="62.635404935449" lon="17.978966874509">
        <ele>83.8</ele>
        <time>2017-10-23T18:21:47Z</time>
      </trkpt>
      <trkpt lat="62.635414155539" lon="17.978963354111">
        <ele>83.6</ele>
        <time>2017-10-23T18:21:48Z</time>
      </trkpt>
      <trkpt lat="62.635426393113" lon="17.978963857025">
        <ele>83.6</ele>
        <time>2017-10-23T18:21:49Z</time>
      </trkpt>
      <trkpt lat="62.635439049782" lon="17.978964359939">
        <ele>83.6</ele>
        <time>2017-10-23T18:21:50Z</time>
      </trkpt>
      <trkpt lat="62.635454807754" lon="17.978970897821">
        <ele>83.4</ele>
        <time>2017-10-23T18:21:51Z</time>
      </trkpt>
      <trkpt lat="62.635467045328" lon="17.978966371595">
        <ele>83.4</ele>
        <time>2017-10-23T18:21:52Z</time>
      </trkpt>
      <trkpt lat="62.63548028873" lon="17.978960839541">
        <ele>83.4</ele>
        <time>2017-10-23T18:21:53Z</time>
      </trkpt>
      <trkpt lat="62.635491436657" lon="17.978957989695">
        <ele>83.2</ele>
        <time>2017-10-23T18:21:54Z</time>
      </trkpt>
      <trkpt lat="62.635497639263" lon="17.978966120138">
        <ele>83.2</ele>
        <time>2017-10-23T18:21:55Z</time>
      </trkpt>
      <trkpt lat="62.635516582357" lon="17.978971987468">
        <ele>83</ele>
        <time>2017-10-23T18:21:56Z</time>
      </trkpt>
      <trkpt lat="62.635527562646" lon="17.978969389079">
        <ele>83</ele>
        <time>2017-10-23T18:21:57Z</time>
      </trkpt>
      <trkpt lat="62.635539213487" lon="17.978972238925">
        <ele>83</ele>
        <time>2017-10-23T18:21:58Z</time>
      </trkpt>
      <trkpt lat="62.635553043622" lon="17.978969472898">
        <ele>83</ele>
        <time>2017-10-23T18:21:59Z</time>
      </trkpt>
      <trkpt lat="62.63556829868" lon="17.978971736011">
        <ele>82.8</ele>
        <time>2017-10-23T18:22:00Z</time>
      </trkpt>
      <trkpt lat="62.635577686408" lon="17.97897014345">
        <ele>82.8</ele>
        <time>2017-10-23T18:22:01Z</time>
      </trkpt>
      <trkpt lat="62.635589923982" lon="17.978967461242">
        <ele>82.8</ele>
        <time>2017-10-23T18:22:02Z</time>
      </trkpt>
      <trkpt lat="62.635596964778" lon="17.978972825658">
        <ele>82.6</ele>
        <time>2017-10-23T18:22:03Z</time>
      </trkpt>
      <trkpt lat="62.635613477121" lon="17.978971316916">
        <ele>82.6</ele>
        <time>2017-10-23T18:22:04Z</time>
      </trkpt>
      <trkpt lat="62.635628815998" lon="17.978981375196">
        <ele>82.6</ele>
        <time>2017-10-23T18:22:05Z</time>
      </trkpt>
      <trkpt lat="62.635643232866" lon="17.978976094599">
        <ele>82.4</ele>
        <time>2017-10-23T18:22:06Z</time>
      </trkpt>
      <trkpt lat="62.63565295587" lon="17.978971233097">
        <ele>82.4</ele>
        <time>2017-10-23T18:22:07Z</time>
      </trkpt>
      <trkpt lat="62.635663684702" lon="17.978967377423">
        <ele>82.4</ele>
        <time>2017-10-23T18:22:08Z</time>
      </trkpt>
      <trkpt lat="62.635674162077" lon="17.978966287776">
        <ele>82.2</ele>
        <time>2017-10-23T18:22:09Z</time>
      </trkpt>
      <trkpt lat="62.635682711615" lon="17.978963102654">
        <ele>82.2</ele>
        <time>2017-10-23T18:22:10Z</time>
      </trkpt>
      <trkpt lat="62.635696877026" lon="17.978958492609">
        <ele>82.2</ele>
        <time>2017-10-23T18:22:11Z</time>
      </trkpt>
      <trkpt lat="62.635711126256" lon="17.978957822057">
        <ele>82.2</ele>
        <time>2017-10-23T18:22:12Z</time>
      </trkpt>
      <trkpt lat="62.635723447649" lon="17.97896176155">
        <ele>82.2</ele>
        <time>2017-10-23T18:22:13Z</time>
      </trkpt>
      <trkpt lat="62.635740295268" lon="17.978962264464">
        <ele>82.2</ele>
        <time>2017-10-23T18:22:14Z</time>
      </trkpt>
      <trkpt lat="62.635756388516" lon="17.978965281948">
        <ele>82.2</ele>
        <time>2017-10-23T18:22:15Z</time>
      </trkpt>
      <trkpt lat="62.635766782072" lon="17.978965784862">
        <ele>82</ele>
        <time>2017-10-23T18:22:16Z</time>
      </trkpt>
      <trkpt lat="62.635783462053" lon="17.978964779034">
        <ele>82</ele>
        <time>2017-10-23T18:22:17Z</time>
      </trkpt>
      <trkpt lat="62.635798465654" lon="17.978958744066">
        <ele>82</ele>
        <time>2017-10-23T18:22:18Z</time>
      </trkpt>
      <trkpt lat="62.635811289961" lon="17.978963018835">
        <ele>82</ele>
        <time>2017-10-23T18:22:19Z</time>
      </trkpt>
      <trkpt lat="62.635822437888" lon="17.978968718527">
        <ele>82</ele>
        <time>2017-10-23T18:22:20Z</time>
      </trkpt>
      <trkpt lat="62.63583568129" lon="17.978968383251">
        <ele>82</ele>
        <time>2017-10-23T18:22:21Z</time>
      </trkpt>
      <trkpt lat="62.635848757054" lon="17.978965365767">
        <ele>82</ele>
        <time>2017-10-23T18:22:22Z</time>
      </trkpt>
      <trkpt lat="62.635862671008" lon="17.978971065459">
        <ele>82</ele>
        <time>2017-10-23T18:22:23Z</time>
      </trkpt>
      <trkpt lat="62.635877004057" lon="17.97897517259">
        <ele>82</ele>
        <time>2017-10-23T18:22:24Z</time>
      </trkpt>
      <trkpt lat="62.635892259115" lon="17.978983889766">
        <ele>82</ele>
        <time>2017-10-23T18:22:25Z</time>
      </trkpt>
      <trkpt lat="62.635906005431" lon="17.978996043521">
        <ele>82</ele>
        <time>2017-10-23T18:22:26Z</time>
      </trkpt>
      <trkpt lat="62.63591950029" lon="17.979005598887">
        <ele>82</ele>
        <time>2017-10-23T18:22:27Z</time>
      </trkpt>
      <trkpt lat="62.635936096452" lon="17.979012220588">
        <ele>82.2</ele>
        <time>2017-10-23T18:22:28Z</time>
      </trkpt>
      <trkpt lat="62.635948250207" lon="17.979024122886">
        <ele>82.2</ele>
        <time>2017-10-23T18:22:29Z</time>
      </trkpt>
      <trkpt lat="62.635960403962" lon="17.97903803684">
        <ele>82.4</ele>
        <time>2017-10-23T18:22:30Z</time>
      </trkpt>
      <trkpt lat="62.63597314445" lon="17.979051950794">
        <ele>82.4</ele>
        <time>2017-10-23T18:22:31Z</time>
      </trkpt>
      <trkpt lat="62.635985465843" lon="17.979064942739">
        <ele>82.4</ele>
        <time>2017-10-23T18:22:32Z</time>
      </trkpt>
      <trkpt lat="62.635996529951" lon="17.979080449254">
        <ele>82.6</ele>
        <time>2017-10-23T18:22:33Z</time>
      </trkpt>
      <trkpt lat="62.636003822204" lon="17.979104086212">
        <ele>82.6</ele>
        <time>2017-10-23T18:22:34Z</time>
      </trkpt>
      <trkpt lat="62.636008683706" lon="17.979127890808">
        <ele>82.6</ele>
        <time>2017-10-23T18:22:35Z</time>
      </trkpt>
      <trkpt lat="62.636008767525" lon="17.979158820019">
        <ele>82.6</ele>
        <time>2017-10-23T18:22:36Z</time>
      </trkpt>
      <trkpt lat="62.63601337757" lon="17.979188743402">
        <ele>82.6</ele>
        <time>2017-10-23T18:22:37Z</time>
      </trkpt>
      <trkpt lat="62.636004492756" lon="17.979230149988">
        <ele>82.6</ele>
        <time>2017-10-23T18:22:38Z</time>
      </trkpt>
      <trkpt lat="62.636009102801" lon="17.979260241009">
        <ele>82.6</ele>
        <time>2017-10-23T18:22:39Z</time>
      </trkpt>
      <trkpt lat="62.636010443905" lon="17.979279938474">
        <ele>82.4</ele>
        <time>2017-10-23T18:22:40Z</time>
      </trkpt>
      <trkpt lat="62.636010443905" lon="17.979308101658">
        <ele>82.4</ele>
        <time>2017-10-23T18:22:41Z</time>
      </trkpt>
      <trkpt lat="62.636012707018" lon="17.979324614001">
        <ele>82.4</ele>
        <time>2017-10-23T18:22:42Z</time>
      </trkpt>
      <trkpt lat="62.636015975959" lon="17.979345820208">
        <ele>82.2</ele>
        <time>2017-10-23T18:22:43Z</time>
      </trkpt>
      <trkpt lat="62.636014551036" lon="17.979368367519">
        <ele>82.2</ele>
        <time>2017-10-23T18:22:44Z</time>
      </trkpt>
      <trkpt lat="62.636012790837" lon="17.979399967282">
        <ele>82.2</ele>
        <time>2017-10-23T18:22:45Z</time>
      </trkpt>
      <trkpt lat="62.636011449733" lon="17.979419245652">
        <ele>82</ele>
        <time>2017-10-23T18:22:46Z</time>
      </trkpt>
      <trkpt lat="62.636008935163" lon="17.979444810447">
        <ele>81.8</ele>
        <time>2017-10-23T18:22:47Z</time>
      </trkpt>
      <trkpt lat="62.636006588231" lon="17.97946719012">
        <ele>81.6</ele>
        <time>2017-10-23T18:22:48Z</time>
      </trkpt>
      <trkpt lat="62.636004073661" lon="17.979490910897">
        <ele>81.4</ele>
        <time>2017-10-23T18:22:49Z</time>
      </trkpt>
      <trkpt lat="62.636003906023" lon="17.979513122932">
        <ele>81.2</ele>
        <time>2017-10-23T18:22:50Z</time>
      </trkpt>
      <trkpt lat="62.636005750041" lon="17.979535251148">
        <ele>81</ele>
        <time>2017-10-23T18:22:51Z</time>
      </trkpt>
      <trkpt lat="62.636007091145" lon="17.979552350224">
        <ele>80.8</ele>
        <time>2017-10-23T18:22:52Z</time>
      </trkpt>
      <trkpt lat="62.636003151652" lon="17.979571460956">
        <ele>80.6</ele>
        <time>2017-10-23T18:22:53Z</time>
      </trkpt>
      <trkpt lat="62.636000553263" lon="17.979592750982">
        <ele>80.4</ele>
        <time>2017-10-23T18:22:54Z</time>
      </trkpt>
      <trkpt lat="62.635995440304" lon="17.979619573062">
        <ele>80.2</ele>
        <time>2017-10-23T18:22:55Z</time>
      </trkpt>
      <trkpt lat="62.635999631254" lon="17.979645137857">
        <ele>79.8</ele>
        <time>2017-10-23T18:22:56Z</time>
      </trkpt>
      <trkpt lat="62.636002900195" lon="17.979678497819">
        <ele>79.6</ele>
        <time>2017-10-23T18:22:57Z</time>
      </trkpt>
      <trkpt lat="62.636000972358" lon="17.97970104513">
        <ele>79.4</ele>
        <time>2017-10-23T18:22:58Z</time>
      </trkpt>
      <trkpt lat="62.63599996653" lon="17.979724765907">
        <ele>79.2</ele>
        <time>2017-10-23T18:22:59Z</time>
      </trkpt>
      <trkpt lat="62.635996529951" lon="17.979745720657">
        <ele>79.2</ele>
        <time>2017-10-23T18:23:00Z</time>
      </trkpt>
      <trkpt lat="62.635995356485" lon="17.979769357615">
        <ele>79</ele>
        <time>2017-10-23T18:23:01Z</time>
      </trkpt>
      <trkpt lat="62.635997368141" lon="17.979795257686">
        <ele>79</ele>
        <time>2017-10-23T18:23:02Z</time>
      </trkpt>
      <trkpt lat="62.635998709245" lon="17.979822834137">
        <ele>78.8</ele>
        <time>2017-10-23T18:23:03Z</time>
      </trkpt>
      <trkpt lat="62.636001810548" lon="17.979853930986">
        <ele>78.6</ele>
        <time>2017-10-23T18:23:04Z</time>
      </trkpt>
      <trkpt lat="62.636005498584" lon="17.979879747238">
        <ele>78.6</ele>
        <time>2017-10-23T18:23:05Z</time>
      </trkpt>
      <trkpt lat="62.636006252955" lon="17.979895756667">
        <ele>78.4</ele>
        <time>2017-10-23T18:23:06Z</time>
      </trkpt>
      <trkpt lat="62.636007426421" lon="17.979915957046">
        <ele>78.4</ele>
        <time>2017-10-23T18:23:07Z</time>
      </trkpt>
      <trkpt lat="62.636011533552" lon="17.979934313407">
        <ele>78.2</ele>
        <time>2017-10-23T18:23:08Z</time>
      </trkpt>
      <trkpt lat="62.636013209932" lon="17.979954765243">
        <ele>78.2</ele>
        <time>2017-10-23T18:23:09Z</time>
      </trkpt>
      <trkpt lat="62.636006252955" lon="17.979967421912">
        <ele>78</ele>
        <time>2017-10-23T18:23:10Z</time>
      </trkpt>
      <trkpt lat="62.636009102801" lon="17.979958788555">
        <ele>78</ele>
        <time>2017-10-23T18:23:11Z</time>
      </trkpt>
      <trkpt lat="62.636010276267" lon="17.979960129659">
        <ele>78.2</ele>
        <time>2017-10-23T18:23:12Z</time>
      </trkpt>
      <trkpt lat="62.636006169136" lon="17.979970690853">
        <ele>78.2</ele>
        <time>2017-10-23T18:23:13Z</time>
      </trkpt>
      <trkpt lat="62.63606785992" lon="17.980449129705">
        <ele>77.8</ele>
        <time>2017-10-23T18:23:45Z</time>
      </trkpt>
      <trkpt lat="62.636077666743" lon="17.980512915964">
        <ele>77.8</ele>
        <time>2017-10-23T18:23:46Z</time>
      </trkpt>
      <trkpt lat="62.63609049105" lon="17.980575864033">
        <ele>77.6</ele>
        <time>2017-10-23T18:23:47Z</time>
      </trkpt>
      <trkpt lat="62.636098705312" lon="17.980636129894">
        <ele>77.4</ele>
        <time>2017-10-23T18:23:48Z</time>
      </trkpt>
      <trkpt lat="62.636107087212" lon="17.980692204805">
        <ele>77.4</ele>
        <time>2017-10-23T18:23:49Z</time>
      </trkpt>
      <trkpt lat="62.636119660062" lon="17.980748950268">
        <ele>77.2</ele>
        <time>2017-10-23T18:23:50Z</time>
      </trkpt>
      <trkpt lat="62.636134496025" lon="17.980808964672">
        <ele>76.8</ele>
        <time>2017-10-23T18:23:51Z</time>
      </trkpt>
      <trkpt lat="62.636145643952" lon="17.980876522786">
        <ele>76.8</ele>
        <time>2017-10-23T18:23:52Z</time>
      </trkpt>
      <trkpt lat="62.636159054992" lon="17.980948104212">
        <ele>76.6</ele>
        <time>2017-10-23T18:23:53Z</time>
      </trkpt>
      <trkpt lat="62.636176740801" lon="17.981016500516">
        <ele>76.4</ele>
        <time>2017-10-23T18:23:54Z</time>
      </trkpt>
      <trkpt lat="62.636192247316" lon="17.981081879336">
        <ele>76.2</ele>
        <time>2017-10-23T18:23:55Z</time>
      </trkpt>
      <trkpt lat="62.636199539569" lon="17.98115698116">
        <ele>76.2</ele>
        <time>2017-10-23T18:23:56Z</time>
      </trkpt>
      <trkpt lat="62.636205155442" lon="17.981233172631">
        <ele>75.8</ele>
        <time>2017-10-23T18:23:57Z</time>
      </trkpt>
      <trkpt lat="62.636212363876" lon="17.981314309423">
        <ele>75.8</ele>
        <time>2017-10-23T18:23:58Z</time>
      </trkpt>
      <trkpt lat="62.636218985577" lon="17.9813883216">
        <ele>75.6</ele>
        <time>2017-10-23T18:23:59Z</time>
      </trkpt>
      <trkpt lat="62.636225858735" lon="17.981463339605">
        <ele>75.6</ele>
        <time>2017-10-23T18:24:00Z</time>
      </trkpt>
      <trkpt lat="62.636230887875" lon="17.981535423945">
        <ele>75.6</ele>
        <time>2017-10-23T18:24:01Z</time>
      </trkpt>
      <trkpt lat="62.636235665558" lon="17.98160708919">
        <ele>75.4</ele>
        <time>2017-10-23T18:24:02Z</time>
      </trkpt>
      <trkpt lat="62.636242873992" lon="17.981681269005">
        <ele>75.4</ele>
        <time>2017-10-23T18:24:03Z</time>
      </trkpt>
      <trkpt lat="62.63624723258" lon="17.981769614231">
        <ele>75.4</ele>
        <time>2017-10-23T18:24:04Z</time>
      </trkpt>
      <trkpt lat="62.636249663331" lon="17.981853684688">
        <ele>75.4</ele>
        <time>2017-10-23T18:24:05Z</time>
      </trkpt>
      <trkpt lat="62.636250166245" lon="17.981930211435">
        <ele>75.2</ele>
        <time>2017-10-23T18:24:06Z</time>
      </trkpt>
      <trkpt lat="62.636252848453" lon="17.982002044318">
        <ele>75.2</ele>
        <time>2017-10-23T18:24:07Z</time>
      </trkpt>
      <trkpt lat="62.63626148181" lon="17.982089383716">
        <ele>75.2</ele>
        <time>2017-10-23T18:24:08Z</time>
      </trkpt>
      <trkpt lat="62.636269779891" lon="17.9821678383">
        <ele>75.2</ele>
        <time>2017-10-23T18:24:09Z</time>
      </trkpt>
      <trkpt lat="62.63627489285" lon="17.982246963436">
        <ele>75</ele>
        <time>2017-10-23T18:24:10Z</time>
      </trkpt>
      <trkpt lat="62.636278999981" lon="17.982330698617">
        <ele>75</ele>
        <time>2017-10-23T18:24:11Z</time>
      </trkpt>
      <trkpt lat="62.636280173447" lon="17.98240756064">
        <ele>75</ele>
        <time>2017-10-23T18:24:12Z</time>
      </trkpt>
      <trkpt lat="62.636279586714" lon="17.982491547278">
        <ele>75.2</ele>
        <time>2017-10-23T18:24:13Z</time>
      </trkpt>
      <trkpt lat="62.636277826515" lon="17.982568157844">
        <ele>75.2</ele>
        <time>2017-10-23T18:24:14Z</time>
      </trkpt>
      <trkpt lat="62.636278664705" lon="17.982641331831">
        <ele>75.2</ele>
        <time>2017-10-23T18:24:15Z</time>
      </trkpt>
      <trkpt lat="62.636279838171" lon="17.982719786415">
        <ele>75.2</ele>
        <time>2017-10-23T18:24:16Z</time>
      </trkpt>
      <trkpt lat="62.636278748524" lon="17.982791367841">
        <ele>75.2</ele>
        <time>2017-10-23T18:24:17Z</time>
      </trkpt>
      <trkpt lat="62.636277491239" lon="17.982868732778">
        <ele>75.2</ele>
        <time>2017-10-23T18:24:18Z</time>
      </trkpt>
      <trkpt lat="62.636277994153" lon="17.982938470186">
        <ele>75.2</ele>
        <time>2017-10-23T18:24:19Z</time>
      </trkpt>
      <trkpt lat="62.636276150135" lon="17.983010722164">
        <ele>75.2</ele>
        <time>2017-10-23T18:24:20Z</time>
      </trkpt>
      <trkpt lat="62.63626986371" lon="17.983078615554">
        <ele>75.2</ele>
        <time>2017-10-23T18:24:21Z</time>
      </trkpt>
      <trkpt lat="62.636282939474" lon="17.983154136473">
        <ele>75.4</ele>
        <time>2017-10-23T18:24:22Z</time>
      </trkpt>
      <trkpt lat="62.636286962786" lon="17.983231585229">
        <ele>75.4</ele>
        <time>2017-10-23T18:24:23Z</time>
      </trkpt>
      <trkpt lat="62.636285621682" lon="17.983298724248">
        <ele>75.4</ele>
        <time>2017-10-23T18:24:24Z</time>
      </trkpt>
      <trkpt lat="62.63628159837" lon="17.983368796932">
        <ele>75.4</ele>
        <time>2017-10-23T18:24:25Z</time>
      </trkpt>
      <trkpt lat="62.636274557574" lon="17.983436103589">
        <ele>75.6</ele>
        <time>2017-10-23T18:24:26Z</time>
      </trkpt>
      <trkpt lat="62.636269947529" lon="17.983491507948">
        <ele>75.6</ele>
        <time>2017-10-23T18:24:27Z</time>
      </trkpt>
      <trkpt lat="62.63626148181" lon="17.983562335003">
        <ele>75.6</ele>
        <time>2017-10-23T18:24:28Z</time>
      </trkpt>
      <trkpt lat="62.636253183729" lon="17.983627294728">
        <ele>75.8</ele>
        <time>2017-10-23T18:24:29Z</time>
      </trkpt>
      <trkpt lat="62.636244885648" lon="17.983694098471">
        <ele>75.8</ele>
        <time>2017-10-23T18:24:30Z</time>
      </trkpt>
      <trkpt lat="62.636235246463" lon="17.983758806739">
        <ele>75.8</ele>
        <time>2017-10-23T18:24:31Z</time>
      </trkpt>
      <trkpt lat="62.636226445468" lon="17.983817982953">
        <ele>76</ele>
        <time>2017-10-23T18:24:32Z</time>
      </trkpt>
      <trkpt lat="62.636217476835" lon="17.983880428108">
        <ele>76.2</ele>
        <time>2017-10-23T18:24:33Z</time>
      </trkpt>
      <trkpt lat="62.636211525686" lon="17.983942370349">
        <ele>76.2</ele>
        <time>2017-10-23T18:24:34Z</time>
      </trkpt>
      <trkpt lat="62.636201551225" lon="17.98399760707">
        <ele>76.4</ele>
        <time>2017-10-23T18:24:35Z</time>
      </trkpt>
      <trkpt lat="62.636193336963" lon="17.984052843791">
        <ele>76.4</ele>
        <time>2017-10-23T18:24:36Z</time>
      </trkpt>
      <trkpt lat="62.636188726918" lon="17.984111517091">
        <ele>76.4</ele>
        <time>2017-10-23T18:24:37Z</time>
      </trkpt>
      <trkpt lat="62.636182775769" lon="17.984173040237">
        <ele>76.6</ele>
        <time>2017-10-23T18:24:38Z</time>
      </trkpt>
      <trkpt lat="62.636181434665" lon="17.984231629718">
        <ele>76.8</ele>
        <time>2017-10-23T18:24:39Z</time>
      </trkpt>
      <trkpt lat="62.636182524312" lon="17.984294829244">
        <ele>77</ele>
        <time>2017-10-23T18:24:40Z</time>
      </trkpt>
      <trkpt lat="62.636179674466" lon="17.984361046254">
        <ele>77</ele>
        <time>2017-10-23T18:24:41Z</time>
      </trkpt>
      <trkpt lat="62.636175567335" lon="17.984431957128">
        <ele>77</ele>
        <time>2017-10-23T18:24:42Z</time>
      </trkpt>
      <trkpt lat="62.636170789652" lon="17.984509573522">
        <ele>77.2</ele>
        <time>2017-10-23T18:24:43Z</time>
      </trkpt>
      <trkpt lat="62.636166347245" lon="17.984575622894">
        <ele>77.2</ele>
        <time>2017-10-23T18:24:44Z</time>
      </trkpt>
      <trkpt lat="62.636163916494" lon="17.984634380013">
        <ele>77.2</ele>
        <time>2017-10-23T18:24:45Z</time>
      </trkpt>
      <trkpt lat="62.636162072476" lon="17.984695316426">
        <ele>77.4</ele>
        <time>2017-10-23T18:24:46Z</time>
      </trkpt>
      <trkpt lat="62.636158887354" lon="17.984752564803">
        <ele>77.4</ele>
        <time>2017-10-23T18:24:47Z</time>
      </trkpt>
      <trkpt lat="62.636149751083" lon="17.984818949451">
        <ele>77.4</ele>
        <time>2017-10-23T18:24:48Z</time>
      </trkpt>
      <trkpt lat="62.636145979228" lon="17.98487854476">
        <ele>77.6</ele>
        <time>2017-10-23T18:24:49Z</time>
      </trkpt>
      <trkpt lat="62.636142794106" lon="17.98493637987">
        <ele>77.6</ele>
        <time>2017-10-23T18:24:50Z</time>
      </trkpt>
      <trkpt lat="62.636139776622" lon="17.984994969351">
        <ele>77.8</ele>
        <time>2017-10-23T18:24:51Z</time>
      </trkpt>
      <trkpt lat="62.636136004767" lon="17.985054816117">
        <ele>78</ele>
        <time>2017-10-23T18:24:52Z</time>
      </trkpt>
      <trkpt lat="62.636134998939" lon="17.985119189109">
        <ele>78</ele>
        <time>2017-10-23T18:24:53Z</time>
      </trkpt>
      <trkpt lat="62.636132652007" lon="17.985177946228">
        <ele>78.2</ele>
        <time>2017-10-23T18:24:54Z</time>
      </trkpt>
      <trkpt lat="62.636127622867" lon="17.985237541537">
        <ele>78.4</ele>
        <time>2017-10-23T18:24:55Z</time>
      </trkpt>
      <trkpt lat="62.636123096641" lon="17.9853026689">
        <ele>78.4</ele>
        <time>2017-10-23T18:24:56Z</time>
      </trkpt>
      <trkpt lat="62.636117396949" lon="17.985360587829">
        <ele>78.6</ele>
        <time>2017-10-23T18:24:57Z</time>
      </trkpt>
      <trkpt lat="62.636112200171" lon="17.98543510292">
        <ele>78.6</ele>
        <time>2017-10-23T18:24:58Z</time>
      </trkpt>
      <trkpt lat="62.63610474028" lon="17.985504588871">
        <ele>78.8</ele>
        <time>2017-10-23T18:24:59Z</time>
      </trkpt>
      <trkpt lat="62.636094346724" lon="17.98556837513">
        <ele>78.8</ele>
        <time>2017-10-23T18:25:00Z</time>
      </trkpt>
      <trkpt lat="62.636087725023" lon="17.985629227724">
        <ele>79</ele>
        <time>2017-10-23T18:25:01Z</time>
      </trkpt>
      <trkpt lat="62.63607959458" lon="17.985682033694">
        <ele>79</ele>
        <time>2017-10-23T18:25:02Z</time>
      </trkpt>
      <trkpt lat="62.636071967051" lon="17.985727212135">
        <ele>79.2</ele>
        <time>2017-10-23T18:25:03Z</time>
      </trkpt>
      <trkpt lat="62.636060735305" lon="17.985767361436">
        <ele>79</ele>
        <time>2017-10-23T18:25:04Z</time>
      </trkpt>
      <trkpt lat="62.636041373116" lon="17.985814132438">
        <ele>79.2</ele>
        <time>2017-10-23T18:25:05Z</time>
      </trkpt>
      <trkpt lat="62.636029051723" lon="17.9858558743">
        <ele>79.2</ele>
        <time>2017-10-23T18:25:06Z</time>
      </trkpt>
      <trkpt lat="62.636018574348" lon="17.985891245918">
        <ele>79.4</ele>
        <time>2017-10-23T18:25:07Z</time>
      </trkpt>
      <trkpt lat="62.635998457788" lon="17.985922342767">
        <ele>79.6</ele>
        <time>2017-10-23T18:25:08Z</time>
      </trkpt>
      <trkpt lat="62.635968031491" lon="17.985956205643">
        <ele>79.6</ele>
        <time>2017-10-23T18:25:09Z</time>
      </trkpt>
      <trkpt lat="62.635944310714" lon="17.985983027723">
        <ele>79.8</ele>
        <time>2017-10-23T18:25:10Z</time>
      </trkpt>
      <trkpt lat="62.635919667928" lon="17.986011190907">
        <ele>80</ele>
        <time>2017-10-23T18:25:11Z</time>
      </trkpt>
      <trkpt lat="62.635899048454" lon="17.986030804553">
        <ele>80</ele>
        <time>2017-10-23T18:25:12Z</time>
      </trkpt>
      <trkpt lat="62.635871639641" lon="17.986064415972">
        <ele>80.2</ele>
        <time>2017-10-23T18:25:13Z</time>
      </trkpt>
      <trkpt lat="62.63584406319" lon="17.986121077616">
        <ele>80.2</ele>
        <time>2017-10-23T18:25:14Z</time>
      </trkpt>
      <trkpt lat="62.635816151463" lon="17.986169189722">
        <ele>80.2</ele>
        <time>2017-10-23T18:25:15Z</time>
      </trkpt>
      <trkpt lat="62.635790586668" lon="17.986203555512">
        <ele>80.2</ele>
        <time>2017-10-23T18:25:16Z</time>
      </trkpt>
      <trkpt lat="62.63577449342" lon="17.98623389799">
        <ele>80.4</ele>
        <time>2017-10-23T18:25:17Z</time>
      </trkpt>
      <trkpt lat="62.63576024419" lon="17.986268934332">
        <ele>80.4</ele>
        <time>2017-10-23T18:25:18Z</time>
      </trkpt>
      <trkpt lat="62.635738535069" lon="17.986313358402">
        <ele>80.6</ele>
        <time>2017-10-23T18:25:19Z</time>
      </trkpt>
      <trkpt lat="62.63571665831" lon="17.986360716137">
        <ele>80.8</ele>
        <time>2017-10-23T18:25:20Z</time>
      </trkpt>
      <trkpt lat="62.635696457931" lon="17.986401787447">
        <ele>80.8</ele>
        <time>2017-10-23T18:25:21Z</time>
      </trkpt>
      <trkpt lat="62.635679358855" lon="17.98645350377">
        <ele>81.2</ele>
        <time>2017-10-23T18:25:22Z</time>
      </trkpt>
      <trkpt lat="62.63566133777" lon="17.986502789342">
        <ele>81.4</ele>
        <time>2017-10-23T18:25:23Z</time>
      </trkpt>
      <trkpt lat="62.635646166531" lon="17.986545117937">
        <ele>81.6</ele>
        <time>2017-10-23T18:25:24Z</time>
      </trkpt>
      <trkpt lat="62.635629151274" lon="17.986587027437">
        <ele>81.8</ele>
        <time>2017-10-23T18:25:25Z</time>
      </trkpt>
      <trkpt lat="62.635617248976" lon="17.986629439851">
        <ele>81.8</ele>
        <time>2017-10-23T18:25:26Z</time>
      </trkpt>
      <trkpt lat="62.635605262859" lon="17.986671516989">
        <ele>81.8</ele>
        <time>2017-10-23T18:25:27Z</time>
      </trkpt>
      <trkpt lat="62.635597300054" lon="17.986705547503">
        <ele>82</ele>
        <time>2017-10-23T18:25:28Z</time>
      </trkpt>
      <trkpt lat="62.635585313937" lon="17.986740080931">
        <ele>82</ele>
        <time>2017-10-23T18:25:29Z</time>
      </trkpt>
      <trkpt lat="62.635576345304" lon="17.986778302395">
        <ele>82.2</ele>
        <time>2017-10-23T18:25:30Z</time>
      </trkpt>
      <trkpt lat="62.635563353359" lon="17.986828845252">
        <ele>82.2</ele>
        <time>2017-10-23T18:25:31Z</time>
      </trkpt>
      <trkpt lat="62.635546589559" lon="17.986883662878">
        <ele>82.4</ele>
        <time>2017-10-23T18:25:32Z</time>
      </trkpt>
      <trkpt lat="62.635530747768" lon="17.986940408341">
        <ele>82.6</ele>
        <time>2017-10-23T18:25:33Z</time>
      </trkpt>
      <trkpt lat="62.635517001452" lon="17.986987933714">
        <ele>82.6</ele>
        <time>2017-10-23T18:25:34Z</time>
      </trkpt>
      <trkpt lat="62.63550375805" lon="17.987026238997">
        <ele>82.8</ele>
        <time>2017-10-23T18:25:35Z</time>
      </trkpt>
      <trkpt lat="62.635491520476" lon="17.98706119152">
        <ele>83</ele>
        <time>2017-10-23T18:25:36Z</time>
      </trkpt>
      <trkpt lat="62.635478696169" lon="17.987103436296">
        <ele>83</ele>
        <time>2017-10-23T18:25:37Z</time>
      </trkpt>
      <trkpt lat="62.63546687769" lon="17.987151967497">
        <ele>83.2</ele>
        <time>2017-10-23T18:25:38Z</time>
      </trkpt>
      <trkpt lat="62.635454221021" lon="17.987183818717">
        <ele>83.2</ele>
        <time>2017-10-23T18:25:39Z</time>
      </trkpt>
      <trkpt lat="62.635433769185" lon="17.987222207819">
        <ele>83.4</ele>
        <time>2017-10-23T18:25:40Z</time>
      </trkpt>
      <trkpt lat="62.635407450019" lon="17.987280210567">
        <ele>83.6</ele>
        <time>2017-10-23T18:25:41Z</time>
      </trkpt>
      <trkpt lat="62.63538305869" lon="17.987336369297">
        <ele>83.6</ele>
        <time>2017-10-23T18:25:42Z</time>
      </trkpt>
      <trkpt lat="62.635361433388" lon="17.987382553566">
        <ele>83.6</ele>
        <time>2017-10-23T18:25:43Z</time>
      </trkpt>
      <trkpt lat="62.635340981552" lon="17.987423960152">
        <ele>83.6</ele>
        <time>2017-10-23T18:25:44Z</time>
      </trkpt>
      <trkpt lat="62.635323295743" lon="17.987456649562">
        <ele>83.8</ele>
        <time>2017-10-23T18:25:45Z</time>
      </trkpt>
      <trkpt lat="62.635302676269" lon="17.987494619569">
        <ele>83.8</ele>
        <time>2017-10-23T18:25:46Z</time>
      </trkpt>
      <trkpt lat="62.635285241917" lon="17.98753728344">
        <ele>83.8</ele>
        <time>2017-10-23T18:25:47Z</time>
      </trkpt>
      <trkpt lat="62.635261102045" lon="17.987585647003">
        <ele>84</ele>
        <time>2017-10-23T18:25:48Z</time>
      </trkpt>
      <trkpt lat="62.635236710716" lon="17.987627053589">
        <ele>84.2</ele>
        <time>2017-10-23T18:25:49Z</time>
      </trkpt>
      <trkpt lat="62.635210307731" lon="17.987669885098">
        <ele>84.4</ele>
        <time>2017-10-23T18:25:50Z</time>
      </trkpt>
      <trkpt lat="62.635188011877" lon="17.987705005259">
        <ele>84.6</ele>
        <time>2017-10-23T18:25:51Z</time>
      </trkpt>
      <trkpt lat="62.635160603064" lon="17.987744735465">
        <ele>84.6</ele>
        <time>2017-10-23T18:25:52Z</time>
      </trkpt>
      <trkpt lat="62.63513579264" lon="17.987786309689">
        <ele>84.6</ele>
        <time>2017-10-23T18:25:53Z</time>
      </trkpt>
      <trkpt lat="62.635116095175" lon="17.987824866429">
        <ele>84.8</ele>
        <time>2017-10-23T18:25:54Z</time>
      </trkpt>
      <trkpt lat="62.635096230072" lon="17.987855544183">
        <ele>85</ele>
        <time>2017-10-23T18:25:55Z</time>
      </trkpt>
      <trkpt lat="62.635077622254" lon="17.987884461738">
        <ele>85</ele>
        <time>2017-10-23T18:25:56Z</time>
      </trkpt>
      <trkpt lat="62.635054655848" lon="17.987919749537">
        <ele>85.2</ele>
        <time>2017-10-23T18:25:57Z</time>
      </trkpt>
      <trkpt lat="62.635028336682" lon="17.987955372612">
        <ele>85.2</ele>
        <time>2017-10-23T18:25:58Z</time>
      </trkpt>
      <trkpt lat="62.635003274801" lon="17.987989570764">
        <ele>85.4</ele>
        <time>2017-10-23T18:25:59Z</time>
      </trkpt>
      <trkpt lat="62.634976368902" lon="17.988015303197">
        <ele>85.4</ele>
        <time>2017-10-23T18:26:00Z</time>
      </trkpt>
      <trkpt lat="62.634944601501" lon="17.988030306798">
        <ele>85.6</ele>
        <time>2017-10-23T18:26:01Z</time>
      </trkpt>
      <trkpt lat="62.634911409177" lon="17.988049585168">
        <ele>85.8</ele>
        <time>2017-10-23T18:26:02Z</time>
      </trkpt>
      <trkpt lat="62.634877965396" lon="17.988062577113">
        <ele>86</ele>
        <time>2017-10-23T18:26:03Z</time>
      </trkpt>
      <trkpt lat="62.63484913166" lon="17.988071629565">
        <ele>86.2</ele>
        <time>2017-10-23T18:26:04Z</time>
      </trkpt>
      <trkpt lat="62.634820130286" lon="17.988078921818">
        <ele>86.4</ele>
        <time>2017-10-23T18:26:05Z</time>
      </trkpt>
      <trkpt lat="62.634796074233" lon="17.988074227954">
        <ele>86.6</ele>
        <time>2017-10-23T18:26:06Z</time>
      </trkpt>
      <trkpt lat="62.634770425619" lon="17.988075569058">
        <ele>86.8</ele>
        <time>2017-10-23T18:26:07Z</time>
      </trkpt>
      <trkpt lat="62.634739580227" lon="17.988081520207">
        <ele>86.8</ele>
        <time>2017-10-23T18:26:08Z</time>
      </trkpt>
      <trkpt lat="62.63470831574" lon="17.988086633166">
        <ele>87</ele>
        <time>2017-10-23T18:26:09Z</time>
      </trkpt>
      <trkpt lat="62.634674369045" lon="17.988098703102">
        <ele>87</ele>
        <time>2017-10-23T18:26:10Z</time>
      </trkpt>
      <trkpt lat="62.634644780938" lon="17.988100630939">
        <ele>87</ele>
        <time>2017-10-23T18:26:11Z</time>
      </trkpt>
      <trkpt lat="62.634619719057" lon="17.988102055862">
        <ele>87.2</ele>
        <time>2017-10-23T18:26:12Z</time>
      </trkpt>
      <trkpt lat="62.634587448742" lon="17.988104821889">
        <ele>87.2</ele>
        <time>2017-10-23T18:26:13Z</time>
      </trkpt>
      <trkpt lat="62.634560039929" lon="17.988112617056">
        <ele>87.2</ele>
        <time>2017-10-23T18:26:14Z</time>
      </trkpt>
      <trkpt lat="62.634521650827" lon="17.988135499643">
        <ele>87.4</ele>
        <time>2017-10-23T18:26:15Z</time>
      </trkpt>
      <trkpt lat="62.634482507354" lon="17.988152850176">
        <ele>87.4</ele>
        <time>2017-10-23T18:26:16Z</time>
      </trkpt>
      <trkpt lat="62.634451745781" lon="17.988166512673">
        <ele>87.4</ele>
        <time>2017-10-23T18:26:17Z</time>
      </trkpt>
      <trkpt lat="62.634414362507" lon="17.988176990048">
        <ele>87.8</ele>
        <time>2017-10-23T18:26:18Z</time>
      </trkpt>
      <trkpt lat="62.634380248174" lon="17.98819023345">
        <ele>87.8</ele>
        <time>2017-10-23T18:26:19Z</time>
      </trkpt>
      <trkpt lat="62.634344038366" lon="17.988201046101">
        <ele>88</ele>
        <time>2017-10-23T18:26:20Z</time>
      </trkpt>
      <trkpt lat="62.634309253481" lon="17.988201716653">
        <ele>88</ele>
        <time>2017-10-23T18:26:21Z</time>
      </trkpt>
      <trkpt lat="62.634277905175" lon="17.988194759676">
        <ele>88.2</ele>
        <time>2017-10-23T18:26:22Z</time>
      </trkpt>
      <trkpt lat="62.634243874661" lon="17.98819107164">
        <ele>88.4</ele>
        <time>2017-10-23T18:26:23Z</time>
      </trkpt>
      <trkpt lat="62.634203390084" lon="17.988199872635">
        <ele>88.4</ele>
        <time>2017-10-23T18:26:24Z</time>
      </trkpt>
      <trkpt lat="62.634167264095" lon="17.988207667802">
        <ele>88.2</ele>
        <time>2017-10-23T18:26:25Z</time>
      </trkpt>
      <trkpt lat="62.63413583197" lon="17.988208757449">
        <ele>88.4</ele>
        <time>2017-10-23T18:26:26Z</time>
      </trkpt>
      <trkpt lat="62.634102472008" lon="17.988207751621">
        <ele>88.4</ele>
        <time>2017-10-23T18:26:27Z</time>
      </trkpt>
      <trkpt lat="62.634068441494" lon="17.988200124092">
        <ele>88.4</ele>
        <time>2017-10-23T18:26:28Z</time>
      </trkpt>
      <trkpt lat="62.634037344645" lon="17.98819274802">
        <ele>88.4</ele>
        <time>2017-10-23T18:26:29Z</time>
      </trkpt>
      <trkpt lat="62.634002895036" lon="17.988182354464">
        <ele>88.6</ele>
        <time>2017-10-23T18:26:30Z</time>
      </trkpt>
      <trkpt lat="62.633967942513" lon="17.988174810754">
        <ele>88.6</ele>
        <time>2017-10-23T18:26:31Z</time>
      </trkpt>
      <trkpt lat="62.633934331094" lon="17.988163495189">
        <ele>88.6</ele>
        <time>2017-10-23T18:26:32Z</time>
      </trkpt>
      <trkpt lat="62.633904742987" lon="17.988147150484">
        <ele>88.8</ele>
        <time>2017-10-23T18:26:33Z</time>
      </trkpt>
      <trkpt lat="62.633872807948" lon="17.988135164367">
        <ele>88.8</ele>
        <time>2017-10-23T18:26:34Z</time>
      </trkpt>
      <trkpt lat="62.633839280348" lon="17.988126279553">
        <ele>88.8</ele>
        <time>2017-10-23T18:26:35Z</time>
      </trkpt>
      <trkpt lat="62.633809524603" lon="17.988104989527">
        <ele>89</ele>
        <time>2017-10-23T18:26:36Z</time>
      </trkpt>
      <trkpt lat="62.633781529057" lon="17.988084202415">
        <ele>89.2</ele>
        <time>2017-10-23T18:26:37Z</time>
      </trkpt>
      <trkpt lat="62.633749510199" lon="17.988057128878">
        <ele>89.2</ele>
        <time>2017-10-23T18:26:38Z</time>
      </trkpt>
      <trkpt lat="62.633723693947" lon="17.988026199667">
        <ele>89.4</ele>
        <time>2017-10-23T18:26:39Z</time>
      </trkpt>
      <trkpt lat="62.633693686745" lon="17.987994013171">
        <ele>89.6</ele>
        <time>2017-10-23T18:26:40Z</time>
      </trkpt>
      <trkpt lat="62.633664517733" lon="17.98796308396">
        <ele>89.6</ele>
        <time>2017-10-23T18:26:41Z</time>
      </trkpt>
      <trkpt lat="62.633640629318" lon="17.98793877645">
        <ele>89.8</ele>
        <time>2017-10-23T18:26:42Z</time>
      </trkpt>
      <trkpt lat="62.633616740903" lon="17.987909272162">
        <ele>89.8</ele>
        <time>2017-10-23T18:26:43Z</time>
      </trkpt>
      <trkpt lat="62.633591176108" lon="17.987893849466">
        <ele>89.8</ele>
        <time>2017-10-23T18:26:44Z</time>
      </trkpt>
      <trkpt lat="62.633563432019" lon="17.987877672399">
        <ele>90</ele>
        <time>2017-10-23T18:26:45Z</time>
      </trkpt>
      <trkpt lat="62.633529569143" lon="17.987849676853">
        <ele>90.2</ele>
        <time>2017-10-23T18:26:46Z</time>
      </trkpt>
      <trkpt lat="62.633502411787" lon="17.987815646339">
        <ele>90.4</ele>
        <time>2017-10-23T18:26:47Z</time>
      </trkpt>
      <trkpt lat="62.633474332422" lon="17.987771892821">
        <ele>90.6</ele>
        <time>2017-10-23T18:26:48Z</time>
      </trkpt>
      <trkpt lat="62.633439798994" lon="17.987739790144">
        <ele>90.8</ele>
        <time>2017-10-23T18:26:49Z</time>
      </trkpt>
      <trkpt lat="62.633411468172" lon="17.987708944752">
        <ele>90.8</ele>
        <time>2017-10-23T18:26:50Z</time>
      </trkpt>
      <trkpt lat="62.633387412119" lon="17.98767726117">
        <ele>91</ele>
        <time>2017-10-23T18:26:51Z</time>
      </trkpt>
      <trkpt lat="62.633366708826" lon="17.987633004738">
        <ele>91</ele>
        <time>2017-10-23T18:26:52Z</time>
      </trkpt>
      <trkpt lat="62.633348939198" lon="17.98758422208">
        <ele>91</ele>
        <time>2017-10-23T18:26:53Z</time>
      </trkpt>
      <trkpt lat="62.63332781681" lon="17.987530242644">
        <ele>91.2</ele>
        <time>2017-10-23T18:26:54Z</time>
      </trkpt>
      <trkpt lat="62.633304850404" lon="17.987474000095">
        <ele>91.4</ele>
        <time>2017-10-23T18:26:55Z</time>
      </trkpt>
      <trkpt lat="62.633281967817" lon="17.987422367591">
        <ele>91.6</ele>
        <time>2017-10-23T18:26:56Z</time>
      </trkpt>
      <trkpt lat="62.633263946732" lon="17.987372662924">
        <ele>91.8</ele>
        <time>2017-10-23T18:26:57Z</time>
      </trkpt>
      <trkpt lat="62.633247099113" lon="17.987300746222">
        <ele>91.8</ele>
        <time>2017-10-23T18:26:58Z</time>
      </trkpt>
      <trkpt lat="62.633232179331" lon="17.987231092633">
        <ele>91.8</ele>
        <time>2017-10-23T18:26:59Z</time>
      </trkpt>
      <trkpt lat="62.633218516834" lon="17.987164037433">
        <ele>91.6</ele>
        <time>2017-10-23T18:27:00Z</time>
      </trkpt>
      <trkpt lat="62.633207285088" lon="17.987087929781">
        <ele>91.6</ele>
        <time>2017-10-23T18:27:01Z</time>
      </trkpt>
      <trkpt lat="62.633198987007" lon="17.987019198201">
        <ele>91</ele>
        <time>2017-10-23T18:27:02Z</time>
      </trkpt>
      <trkpt lat="62.63318783908" lon="17.986946275671">
        <ele>90.6</ele>
        <time>2017-10-23T18:27:03Z</time>
      </trkpt>
      <trkpt lat="62.633173422212" lon="17.9868784661">
        <ele>90.2</ele>
        <time>2017-10-23T18:27:04Z</time>
      </trkpt>
      <trkpt lat="62.633161017" lon="17.986805124475">
        <ele>90</ele>
        <time>2017-10-23T18:27:05Z</time>
      </trkpt>
      <trkpt lat="62.633156071679" lon="17.986731363755">
        <ele>89.6</ele>
        <time>2017-10-23T18:27:06Z</time>
      </trkpt>
      <trkpt lat="62.633151042539" lon="17.986668583324">
        <ele>89.6</ele>
        <time>2017-10-23T18:27:07Z</time>
      </trkpt>
      <trkpt lat="62.633143247372" lon="17.9866018634">
        <ele>89.4</ele>
        <time>2017-10-23T18:27:08Z</time>
      </trkpt>
      <trkpt lat="62.633140732802" lon="17.986532377449">
        <ele>89.4</ele>
        <time>2017-10-23T18:27:09Z</time>
      </trkpt>
      <trkpt lat="62.633141990087" lon="17.986455766883">
        <ele>89.2</ele>
        <time>2017-10-23T18:27:10Z</time>
      </trkpt>
      <trkpt lat="62.633144337019" lon="17.986382760534">
        <ele>89.2</ele>
        <time>2017-10-23T18:27:11Z</time>
      </trkpt>
      <trkpt lat="62.633145510485" lon="17.986304725045">
        <ele>89.2</ele>
        <time>2017-10-23T18:27:12Z</time>
      </trkpt>
      <trkpt lat="62.633147019227" lon="17.986225013176">
        <ele>89.2</ele>
        <time>2017-10-23T18:27:13Z</time>
      </trkpt>
      <trkpt lat="62.63314509139" lon="17.986146307135">
        <ele>89</ele>
        <time>2017-10-23T18:27:14Z</time>
      </trkpt>
      <trkpt lat="62.633142325363" lon="17.986069948026">
        <ele>88.8</ele>
        <time>2017-10-23T18:27:15Z</time>
      </trkpt>
      <trkpt lat="62.633139056422" lon="17.985988643596">
        <ele>88.4</ele>
        <time>2017-10-23T18:27:16Z</time>
      </trkpt>
      <trkpt lat="62.633134697834" lon="17.985916559256">
        <ele>88.2</ele>
        <time>2017-10-23T18:27:17Z</time>
      </trkpt>
      <trkpt lat="62.633130758341" lon="17.985835590102">
        <ele>88</ele>
        <time>2017-10-23T18:27:18Z</time>
      </trkpt>
      <trkpt lat="62.633128746685" lon="17.985760572097">
        <ele>87.8</ele>
        <time>2017-10-23T18:27:19Z</time>
      </trkpt>
      <trkpt lat="62.6331274894" lon="17.985686979015">
        <ele>87.6</ele>
        <time>2017-10-23T18:27:20Z</time>
      </trkpt>
      <trkpt lat="62.633127657038" lon="17.985619337082">
        <ele>87.6</ele>
        <time>2017-10-23T18:27:21Z</time>
      </trkpt>
      <trkpt lat="62.633129920151" lon="17.985554209719">
        <ele>87.4</ele>
        <time>2017-10-23T18:27:22Z</time>
      </trkpt>
      <trkpt lat="62.633129920151" lon="17.985472989108">
        <ele>87.4</ele>
        <time>2017-10-23T18:27:23Z</time>
      </trkpt>
      <trkpt lat="62.633131847988" lon="17.985398138741">
        <ele>87.2</ele>
        <time>2017-10-23T18:27:24Z</time>
      </trkpt>
      <trkpt lat="62.633134362558" lon="17.98531607994">
        <ele>87.2</ele>
        <time>2017-10-23T18:27:25Z</time>
      </trkpt>
      <trkpt lat="62.633134865472" lon="17.98523309913">
        <ele>87</ele>
        <time>2017-10-23T18:27:26Z</time>
      </trkpt>
      <trkpt lat="62.633138804965" lon="17.985154560727">
        <ele>86.8</ele>
        <time>2017-10-23T18:27:27Z</time>
      </trkpt>
      <trkpt lat="62.633148360331" lon="17.985067891881">
        <ele>86.6</ele>
        <time>2017-10-23T18:27:28Z</time>
      </trkpt>
      <trkpt lat="62.633158418611" lon="17.984994047342">
        <ele>86</ele>
        <time>2017-10-23T18:27:29Z</time>
      </trkpt>
      <trkpt lat="62.633167890158" lon="17.984923387925">
        <ele>85.6</ele>
        <time>2017-10-23T18:27:30Z</time>
      </trkpt>
      <trkpt lat="62.633177445524" lon="17.984858847295">
        <ele>85.2</ele>
        <time>2017-10-23T18:27:31Z</time>
      </trkpt>
      <trkpt lat="62.633189347822" lon="17.98480059309">
        <ele>85</ele>
        <time>2017-10-23T18:27:32Z</time>
      </trkpt>
      <trkpt lat="62.633201920672" lon="17.98473605246">
        <ele>84.6</ele>
        <time>2017-10-23T18:27:33Z</time>
      </trkpt>
      <trkpt lat="62.633213236237" lon="17.984665812138">
        <ele>84.6</ele>
        <time>2017-10-23T18:27:34Z</time>
      </trkpt>
      <trkpt lat="62.63322388125" lon="17.984598002567">
        <ele>84.4</ele>
        <time>2017-10-23T18:27:35Z</time>
      </trkpt>
      <trkpt lat="62.633236789376" lon="17.984533964851">
        <ele>84.2</ele>
        <time>2017-10-23T18:27:36Z</time>
      </trkpt>
      <trkpt lat="62.633249278407" lon="17.984476297379">
        <ele>84.2</ele>
        <time>2017-10-23T18:27:37Z</time>
      </trkpt>
      <trkpt lat="62.633262186533" lon="17.984414522776">
        <ele>84.2</ele>
        <time>2017-10-23T18:27:38Z</time>
      </trkpt>
      <trkpt lat="62.633274759383" lon="17.984352915811">
        <ele>84</ele>
        <time>2017-10-23T18:27:39Z</time>
      </trkpt>
      <trkpt lat="62.633281967817" lon="17.984293152864">
        <ele>84</ele>
        <time>2017-10-23T18:27:40Z</time>
      </trkpt>
      <trkpt lat="62.633291104088" lon="17.984238670514">
        <ele>84</ele>
        <time>2017-10-23T18:27:41Z</time>
      </trkpt>
      <trkpt lat="62.633302922567" lon="17.984175806264">
        <ele>84</ele>
        <time>2017-10-23T18:27:42Z</time>
      </trkpt>
      <trkpt lat="62.633312226476" lon="17.984110175987">
        <ele>84</ele>
        <time>2017-10-23T18:27:43Z</time>
      </trkpt>
      <trkpt lat="62.63331859672" lon="17.984043288425">
        <ele>84</ele>
        <time>2017-10-23T18:27:44Z</time>
      </trkpt>
      <trkpt lat="62.633322033299" lon="17.98397749051">
        <ele>84.2</ele>
        <time>2017-10-23T18:27:45Z</time>
      </trkpt>
      <trkpt lat="62.633327565353" lon="17.983909345663">
        <ele>84.2</ele>
        <time>2017-10-23T18:27:46Z</time>
      </trkpt>
      <trkpt lat="62.633337120719" lon="17.983847654879">
        <ele>84.4</ele>
        <time>2017-10-23T18:27:47Z</time>
      </trkpt>
      <trkpt lat="62.63334625699" lon="17.983777498376">
        <ele>84.4</ele>
        <time>2017-10-23T18:27:48Z</time>
      </trkpt>
      <trkpt lat="62.633356734365" lon="17.983714550307">
        <ele>84.4</ele>
        <time>2017-10-23T18:27:49Z</time>
      </trkpt>
      <trkpt lat="62.633369474853" lon="17.983649087668">
        <ele>84.4</ele>
        <time>2017-10-23T18:27:50Z</time>
      </trkpt>
      <trkpt lat="62.633381963884" lon="17.983586977789">
        <ele>84.6</ele>
        <time>2017-10-23T18:27:51Z</time>
      </trkpt>
      <trkpt lat="62.63339319563" lon="17.983522437159">
        <ele>84.6</ele>
        <time>2017-10-23T18:27:52Z</time>
      </trkpt>
      <trkpt lat="62.63340493029" lon="17.983450436638">
        <ele>84.6</ele>
        <time>2017-10-23T18:27:53Z</time>
      </trkpt>
      <trkpt lat="62.633416245855" lon="17.983380447773">
        <ele>84.6</ele>
        <time>2017-10-23T18:27:54Z</time>
      </trkpt>
      <trkpt lat="62.633426807049" lon="17.983311548555">
        <ele>84.8</ele>
        <time>2017-10-23T18:27:55Z</time>
      </trkpt>
      <trkpt lat="62.633438374071" lon="17.983249522495">
        <ele>84.8</ele>
        <time>2017-10-23T18:27:56Z</time>
      </trkpt>
      <trkpt lat="62.633452958577" lon="17.983191603566">
        <ele>84.8</ele>
        <time>2017-10-23T18:27:57Z</time>
      </trkpt>
      <trkpt lat="62.633464777056" lon="17.983128320221">
        <ele>84.8</ele>
        <time>2017-10-23T18:27:58Z</time>
      </trkpt>
      <trkpt lat="62.633477769001" lon="17.983070904206">
        <ele>84.8</ele>
        <time>2017-10-23T18:27:59Z</time>
      </trkpt>
      <trkpt lat="62.633496460638" lon="17.983018098236">
        <ele>85</ele>
        <time>2017-10-23T18:28:00Z</time>
      </trkpt>
      <trkpt lat="62.633512134791" lon="17.98296328061">
        <ele>84.8</ele>
        <time>2017-10-23T18:28:01Z</time>
      </trkpt>
      <trkpt lat="62.633523031261" lon="17.982906702785">
        <ele>84.8</ele>
        <time>2017-10-23T18:28:02Z</time>
      </trkpt>
      <trkpt lat="62.633530910247" lon="17.98284006668">
        <ele>84.8</ele>
        <time>2017-10-23T18:28:03Z</time>
      </trkpt>
      <trkpt lat="62.6335382025" lon="17.982773430575">
        <ele>85</ele>
        <time>2017-10-23T18:28:04Z</time>
      </trkpt>
      <trkpt lat="62.633545075658" lon="17.982716098379">
        <ele>84.8</ele>
        <time>2017-10-23T18:28:05Z</time>
      </trkpt>
      <trkpt lat="62.633551194445" lon="17.982655329604">
        <ele>84.8</ele>
        <time>2017-10-23T18:28:06Z</time>
      </trkpt>
      <trkpt lat="62.633560330716" lon="17.982603361824">
        <ele>84.8</ele>
        <time>2017-10-23T18:28:07Z</time>
      </trkpt>
      <trkpt lat="62.633572316833" lon="17.982552483691">
        <ele>84.8</ele>
        <time>2017-10-23T18:28:08Z</time>
      </trkpt>
      <trkpt lat="62.633577681249" lon="17.982504203947">
        <ele>84.8</ele>
        <time>2017-10-23T18:28:09Z</time>
      </trkpt>
      <trkpt lat="62.633583883855" lon="17.982439998593">
        <ele>84.8</ele>
        <time>2017-10-23T18:28:10Z</time>
      </trkpt>
      <trkpt lat="62.633591176108" lon="17.982378978361">
        <ele>84.8</ele>
        <time>2017-10-23T18:28:11Z</time>
      </trkpt>
      <trkpt lat="62.633599809465" lon="17.98231619793">
        <ele>84.8</ele>
        <time>2017-10-23T18:28:12Z</time>
      </trkpt>
      <trkpt lat="62.633608861917" lon="17.982248723635">
        <ele>84.8</ele>
        <time>2017-10-23T18:28:13Z</time>
      </trkpt>
      <trkpt lat="62.633619590749" lon="17.982191475258">
        <ele>84.8</ele>
        <time>2017-10-23T18:28:14Z</time>
      </trkpt>
      <trkpt lat="62.633629984305" lon="17.982128862465">
        <ele>84.8</ele>
        <time>2017-10-23T18:28:15Z</time>
      </trkpt>
      <trkpt lat="62.633635097264" lon="17.98206641731">
        <ele>84.8</ele>
        <time>2017-10-23T18:28:16Z</time>
      </trkpt>
      <trkpt lat="62.633641467508" lon="17.98200606763">
        <ele>84.8</ele>
        <time>2017-10-23T18:28:17Z</time>
      </trkpt>
      <trkpt lat="62.63364800539" lon="17.981934737661">
        <ele>85</ele>
        <time>2017-10-23T18:28:18Z</time>
      </trkpt>
      <trkpt lat="62.633652280159" lon="17.98186860447">
        <ele>85</ele>
        <time>2017-10-23T18:28:19Z</time>
      </trkpt>
      <trkpt lat="62.633659320955" lon="17.98179987289">
        <ele>85</ele>
        <time>2017-10-23T18:28:20Z</time>
      </trkpt>
      <trkpt lat="62.633667786674" lon="17.981738433563">
        <ele>85</ele>
        <time>2017-10-23T18:28:21Z</time>
      </trkpt>
      <trkpt lat="62.633674743651" lon="17.981675317856">
        <ele>85</ele>
        <time>2017-10-23T18:28:22Z</time>
      </trkpt>
      <trkpt lat="62.633676922945" lon="17.981600216032">
        <ele>85</ele>
        <time>2017-10-23T18:28:23Z</time>
      </trkpt>
      <trkpt lat="62.63368153299" lon="17.981531065357">
        <ele>85</ele>
        <time>2017-10-23T18:28:24Z</time>
      </trkpt>
      <trkpt lat="62.633693602926" lon="17.981464764528">
        <ele>85</ele>
        <time>2017-10-23T18:28:25Z</time>
      </trkpt>
      <trkpt lat="62.633708103613" lon="17.981401481183">
        <ele>85</ele>
        <time>2017-10-23T18:28:26Z</time>
      </trkpt>
      <trkpt lat="62.633721598472" lon="17.981341299141">
        <ele>85</ele>
        <time>2017-10-23T18:28:27Z</time>
      </trkpt>
      <trkpt lat="62.633734171322" lon="17.981273741027">
        <ele>85.2</ele>
        <time>2017-10-23T18:28:28Z</time>
      </trkpt>
      <trkpt lat="62.633750096932" lon="17.981209535673">
        <ele>85.2</ele>
        <time>2017-10-23T18:28:29Z</time>
      </trkpt>
      <trkpt lat="62.633763340334" lon="17.981148096346">
        <ele>85.2</ele>
        <time>2017-10-23T18:28:30Z</time>
      </trkpt>
      <trkpt lat="62.6337812776" lon="17.981094871281">
        <ele>85.2</ele>
        <time>2017-10-23T18:28:31Z</time>
      </trkpt>
      <trkpt lat="62.633799047228" lon="17.981040891845">
        <ele>85.4</ele>
        <time>2017-10-23T18:28:32Z</time>
      </trkpt>
      <trkpt lat="62.633816900675" lon="17.980986493314">
        <ele>85.6</ele>
        <time>2017-10-23T18:28:33Z</time>
      </trkpt>
      <trkpt lat="62.633839699443" lon="17.980933687344">
        <ele>85.6</ele>
        <time>2017-10-23T18:28:34Z</time>
      </trkpt>
      <trkpt lat="62.633860989469" lon="17.980875768415">
        <ele>85.6</ele>
        <time>2017-10-23T18:28:35Z</time>
      </trkpt>
      <trkpt lat="62.633879429649" lon="17.980823884454">
        <ele>85.8</ele>
        <time>2017-10-23T18:28:36Z</time>
      </trkpt>
      <trkpt lat="62.633899713847" lon="17.980779041289">
        <ele>85.8</ele>
        <time>2017-10-23T18:28:37Z</time>
      </trkpt>
      <trkpt lat="62.633921674425" lon="17.980722044369">
        <ele>85.8</ele>
        <time>2017-10-23T18:28:38Z</time>
      </trkpt>
      <trkpt lat="62.633936761845" lon="17.980660856499">
        <ele>86</ele>
        <time>2017-10-23T18:28:39Z</time>
      </trkpt>
      <trkpt lat="62.633954280016" lon="17.980604194855">
        <ele>86</ele>
        <time>2017-10-23T18:28:40Z</time>
      </trkpt>
      <trkpt lat="62.633971462911" lon="17.98055599893">
        <ele>86</ele>
        <time>2017-10-23T18:28:41Z</time>
      </trkpt>
      <trkpt lat="62.633990573643" lon="17.980497660906">
        <ele>86</ele>
        <time>2017-10-23T18:28:42Z</time>
      </trkpt>
      <trkpt lat="62.634011109298" lon="17.98045038699">
        <ele>86</ele>
        <time>2017-10-23T18:28:43Z</time>
      </trkpt>
      <trkpt lat="62.63403524917" lon="17.98039590464">
        <ele>86.2</ele>
        <time>2017-10-23T18:28:44Z</time>
      </trkpt>
      <trkpt lat="62.634056120101" lon="17.980343433946">
        <ele>86.2</ele>
        <time>2017-10-23T18:28:45Z</time>
      </trkpt>
      <trkpt lat="62.634081768715" lon="17.980291466166">
        <ele>86.2</ele>
        <time>2017-10-23T18:28:46Z</time>
      </trkpt>
      <trkpt lat="62.634101969094" lon="17.980243940793">
        <ele>86.2</ele>
        <time>2017-10-23T18:28:47Z</time>
      </trkpt>
      <trkpt lat="62.634122253292" lon="17.980191889194">
        <ele>86.4</ele>
        <time>2017-10-23T18:28:48Z</time>
      </trkpt>
      <trkpt lat="62.634143878594" lon="17.980146794572">
        <ele>86.4</ele>
        <time>2017-10-23T18:28:49Z</time>
      </trkpt>
      <trkpt lat="62.634163576059" lon="17.980099353018">
        <ele>86.4</ele>
        <time>2017-10-23T18:28:50Z</time>
      </trkpt>
      <trkpt lat="62.634180675135" lon="17.980055096586">
        <ele>86.4</ele>
        <time>2017-10-23T18:28:51Z</time>
      </trkpt>
      <trkpt lat="62.634198193306" lon="17.980002458254">
        <ele>86.4</ele>
        <time>2017-10-23T18:28:52Z</time>
      </trkpt>
      <trkpt lat="62.634221411169" lon="17.979944036411">
        <ele>86.2</ele>
        <time>2017-10-23T18:28:53Z</time>
      </trkpt>
      <trkpt lat="62.634244880489" lon="17.979888464414">
        <ele>86.2</ele>
        <time>2017-10-23T18:28:54Z</time>
      </trkpt>
      <trkpt lat="62.634264661773" lon="17.979834904073">
        <ele>86.2</ele>
        <time>2017-10-23T18:28:55Z</time>
      </trkpt>
      <trkpt lat="62.634281341754" lon="17.979785953777">
        <ele>86.2</ele>
        <time>2017-10-23T18:28:56Z</time>
      </trkpt>
      <trkpt lat="62.634296093898" lon="17.979726442287">
        <ele>86.2</ele>
        <time>2017-10-23T18:28:57Z</time>
      </trkpt>
      <trkpt lat="62.634310929861" lon="17.979656872517">
        <ele>86.2</ele>
        <time>2017-10-23T18:28:58Z</time>
      </trkpt>
      <trkpt lat="62.634325933462" lon="17.979594427362">
        <ele>86.2</ele>
        <time>2017-10-23T18:28:59Z</time>
      </trkpt>
      <trkpt lat="62.63433783576" lon="17.979537346623">
        <ele>86.2</ele>
        <time>2017-10-23T18:29:00Z</time>
      </trkpt>
      <trkpt lat="62.634349235144" lon="17.97946970469">
        <ele>86.2</ele>
        <time>2017-10-23T18:29:01Z</time>
      </trkpt>
      <trkpt lat="62.634361556537" lon="17.979411534304">
        <ele>86.2</ele>
        <time>2017-10-23T18:29:02Z</time>
      </trkpt>
      <trkpt lat="62.634374045568" lon="17.979352190452">
        <ele>86.2</ele>
        <time>2017-10-23T18:29:03Z</time>
      </trkpt>
      <trkpt lat="62.634386534599" lon="17.97929871393">
        <ele>86.2</ele>
        <time>2017-10-23T18:29:04Z</time>
      </trkpt>
      <trkpt lat="62.634398604535" lon="17.97924087882">
        <ele>86.2</ele>
        <time>2017-10-23T18:29:05Z</time>
      </trkpt>
      <trkpt lat="62.634410842109" lon="17.979183798081">
        <ele>86.2</ele>
        <time>2017-10-23T18:29:06Z</time>
      </trkpt>
      <trkpt lat="62.634425678072" lon="17.979123364582">
        <ele>86.2</ele>
        <time>2017-10-23T18:29:07Z</time>
      </trkpt>
      <trkpt lat="62.634442944786" lon="17.979050022957">
        <ele>86.2</ele>
        <time>2017-10-23T18:29:08Z</time>
      </trkpt>
      <trkpt lat="62.634458367482" lon="17.978991349657">
        <ele>86.2</ele>
        <time>2017-10-23T18:29:09Z</time>
      </trkpt>
      <trkpt lat="62.63448619539" lon="17.978894957807">
        <ele>86.2</ele>
        <time>2017-10-23T18:29:11Z</time>
      </trkpt>
      <trkpt lat="62.634499019697" lon="17.978862352216">
        <ele>86.2</ele>
        <time>2017-10-23T18:29:12Z</time>
      </trkpt>
      <trkpt lat="62.634504551751" lon="17.978831171548">
        <ele>86.4</ele>
        <time>2017-10-23T18:29:13Z</time>
      </trkpt>
      <trkpt lat="62.63451134109" lon="17.978805522934">
        <ele>86.4</ele>
        <time>2017-10-23T18:29:14Z</time>
      </trkpt>
      <trkpt lat="62.634522489017" lon="17.978788172401">
        <ele>86.6</ele>
        <time>2017-10-23T18:29:15Z</time>
      </trkpt>
      <trkpt lat="62.634534726591" lon="17.978769480764">
        <ele>86.4</ele>
        <time>2017-10-23T18:29:16Z</time>
      </trkpt>
      <trkpt lat="62.634547131803" lon="17.978754644801">
        <ele>86.4</ele>
        <time>2017-10-23T18:29:17Z</time>
      </trkpt>
      <trkpt lat="62.6345607943" lon="17.97874047939">
        <ele>86.2</ele>
        <time>2017-10-23T18:29:18Z</time>
      </trkpt>
      <trkpt lat="62.634573450969" lon="17.978726313979">
        <ele>86</ele>
        <time>2017-10-23T18:29:19Z</time>
      </trkpt>
      <trkpt lat="62.634587113466" lon="17.978717596803">
        <ele>86</ele>
        <time>2017-10-23T18:29:20Z</time>
      </trkpt>
      <trkpt lat="62.634599518678" lon="17.97872036283">
        <ele>85.8</ele>
        <time>2017-10-23T18:29:21Z</time>
      </trkpt>
      <trkpt lat="62.634612259166" lon="17.978712316206">
        <ele>85.8</ele>
        <time>2017-10-23T18:29:22Z</time>
      </trkpt>
      <trkpt lat="62.634625502568" lon="17.978710723645">
        <ele>85.8</ele>
        <time>2017-10-23T18:29:23Z</time>
      </trkpt>
      <trkpt lat="62.634640925264" lon="17.978714327862">
        <ele>85.8</ele>
        <time>2017-10-23T18:29:24Z</time>
      </trkpt>
      <trkpt lat="62.634656850874" lon="17.978718351174">
        <ele>85.8</ele>
        <time>2017-10-23T18:29:25Z</time>
      </trkpt>
      <trkpt lat="62.63467143538" lon="17.978723380314">
        <ele>85.8</ele>
        <time>2017-10-23T18:29:26Z</time>
      </trkpt>
      <trkpt lat="62.634684678782" lon="17.978729247644">
        <ele>85.8</ele>
        <time>2017-10-23T18:29:27Z</time>
      </trkpt>
      <trkpt lat="62.63469658108" lon="17.978736539897">
        <ele>86</ele>
        <time>2017-10-23T18:29:28Z</time>
      </trkpt>
      <trkpt lat="62.634710243577" lon="17.978742574865">
        <ele>86</ele>
        <time>2017-10-23T18:29:29Z</time>
      </trkpt>
      <trkpt lat="62.6347200504" lon="17.978741736675">
        <ele>86</ele>
        <time>2017-10-23T18:29:30Z</time>
      </trkpt>
      <trkpt lat="62.634727175015" lon="17.978732432766">
        <ele>86</ele>
        <time>2017-10-23T18:29:31Z</time>
      </trkpt>
      <trkpt lat="62.634733126164" lon="17.978721620115">
        <ele>86.2</ele>
        <time>2017-10-23T18:29:32Z</time>
      </trkpt>
      <trkpt lat="62.634735389277" lon="17.978707370885">
        <ele>86.2</ele>
        <time>2017-10-23T18:29:33Z</time>
      </trkpt>
      <trkpt lat="62.634733712897" lon="17.978690271809">
        <ele>86</ele>
        <time>2017-10-23T18:29:34Z</time>
      </trkpt>
      <trkpt lat="62.634731952698" lon="17.978673340371">
        <ele>86</ele>
        <time>2017-10-23T18:29:35Z</time>
      </trkpt>
      <trkpt lat="62.634734634906" lon="17.978656911847">
        <ele>85.8</ele>
        <time>2017-10-23T18:29:36Z</time>
      </trkpt>
      <trkpt lat="62.634738909675" lon="17.978646518291">
        <ele>85.6</ele>
        <time>2017-10-23T18:29:37Z</time>
      </trkpt>
      <trkpt lat="62.634748213584" lon="17.97863822021">
        <ele>85.4</ele>
        <time>2017-10-23T18:29:38Z</time>
      </trkpt>
      <trkpt lat="62.634747207756" lon="17.978635202726">
        <ele>85.4</ele>
        <time>2017-10-23T18:29:39Z</time>
      </trkpt>
      <trkpt lat="62.63474771067" lon="17.978640064228">
        <ele>85.4</ele>
        <time>2017-10-23T18:29:40Z</time>
      </trkpt>
      <trkpt lat="62.634880647604" lon="17.978878613102">
        <ele>85.2</ele>
        <time>2017-10-23T18:30:27Z</time>
      </trkpt>
      <trkpt lat="62.634904871295" lon="17.97888967721">
        <ele>85</ele>
        <time>2017-10-23T18:30:28Z</time>
      </trkpt>
      <trkpt lat="62.634923143837" lon="17.978896215092">
        <ele>84.8</ele>
        <time>2017-10-23T18:30:29Z</time>
      </trkpt>
      <trkpt lat="62.634939404723" lon="17.978901160413">
        <ele>84.6</ele>
        <time>2017-10-23T18:30:30Z</time>
      </trkpt>
      <trkpt lat="62.634954659781" lon="17.978908704123">
        <ele>84.6</ele>
        <time>2017-10-23T18:30:31Z</time>
      </trkpt>
      <trkpt lat="62.634969495744" lon="17.97891649929">
        <ele>84.8</ele>
        <time>2017-10-23T18:30:32Z</time>
      </trkpt>
      <trkpt lat="62.634984499345" lon="17.978925551742">
        <ele>84.8</ele>
        <time>2017-10-23T18:30:33Z</time>
      </trkpt>
      <trkpt lat="62.634999083851" lon="17.978935610022">
        <ele>85</ele>
        <time>2017-10-23T18:30:34Z</time>
      </trkpt>
      <trkpt lat="62.635015177099" lon="17.978946171216">
        <ele>85</ele>
        <time>2017-10-23T18:30:35Z</time>
      </trkpt>
      <trkpt lat="62.635030096881" lon="17.978951535632">
        <ele>85</ele>
        <time>2017-10-23T18:30:36Z</time>
      </trkpt>
      <trkpt lat="62.635043675559" lon="17.978955726582">
        <ele>85.2</ele>
        <time>2017-10-23T18:30:37Z</time>
      </trkpt>
      <trkpt lat="62.635058343884" lon="17.978960252808">
        <ele>85</ele>
        <time>2017-10-23T18:30:38Z</time>
      </trkpt>
      <trkpt lat="62.635071335829" lon="17.978963773206">
        <ele>85</ele>
        <time>2017-10-23T18:30:39Z</time>
      </trkpt>
      <trkpt lat="62.635085752697" lon="17.978967880337">
        <ele>85</ele>
        <time>2017-10-23T18:30:40Z</time>
      </trkpt>
      <trkpt lat="62.635098828461" lon="17.978969891993">
        <ele>85</ele>
        <time>2017-10-23T18:30:41Z</time>
      </trkpt>
      <trkpt lat="62.635110982216" lon="17.978968718527">
        <ele>84.8</ele>
        <time>2017-10-23T18:30:42Z</time>
      </trkpt>
      <trkpt lat="62.635127159283" lon="17.978976178418">
        <ele>84.8</ele>
        <time>2017-10-23T18:30:43Z</time>
      </trkpt>
      <trkpt lat="62.635142330522" lon="17.978977100427">
        <ele>84.8</ele>
        <time>2017-10-23T18:30:44Z</time>
      </trkpt>
      <trkpt lat="62.635154987191" lon="17.978980788463">
        <ele>84.6</ele>
        <time>2017-10-23T18:30:45Z</time>
      </trkpt>
      <trkpt lat="62.635174014104" lon="17.978986739612">
        <ele>84.6</ele>
        <time>2017-10-23T18:30:46Z</time>
      </trkpt>
      <trkpt lat="62.635187341325" lon="17.9789910982">
        <ele>84.4</ele>
        <time>2017-10-23T18:30:47Z</time>
      </trkpt>
      <trkpt lat="62.63519949508" lon="17.978992690761">
        <ele>84.4</ele>
        <time>2017-10-23T18:30:48Z</time>
      </trkpt>
      <trkpt lat="62.635217180889" lon="17.979001575575">
        <ele>84.6</ele>
        <time>2017-10-23T18:30:49Z</time>
      </trkpt>
      <trkpt lat="62.635231933033" lon="17.97900953838">
        <ele>84.6</ele>
        <time>2017-10-23T18:30:50Z</time>
      </trkpt>
      <trkpt lat="62.63524391915" lon="17.979013561692">
        <ele>84.4</ele>
        <time>2017-10-23T18:30:51Z</time>
      </trkpt>
      <trkpt lat="62.635255486172" lon="17.979017836461">
        <ele>84.4</ele>
        <time>2017-10-23T18:30:52Z</time>
      </trkpt>
      <trkpt lat="62.635268897212" lon="17.979019680479">
        <ele>84.6</ele>
        <time>2017-10-23T18:30:53Z</time>
      </trkpt>
      <trkpt lat="62.635279374587" lon="17.97902043485">
        <ele>84.4</ele>
        <time>2017-10-23T18:30:54Z</time>
      </trkpt>
      <trkpt lat="62.635290690152" lon="17.979020351031">
        <ele>84.2</ele>
        <time>2017-10-23T18:30:55Z</time>
      </trkpt>
      <trkpt lat="62.635301838079" lon="17.979024206705">
        <ele>84</ele>
        <time>2017-10-23T18:30:56Z</time>
      </trkpt>
      <trkpt lat="62.635311561083" lon="17.979027224189">
        <ele>84</ele>
        <time>2017-10-23T18:30:57Z</time>
      </trkpt>
      <trkpt lat="62.635330336539" lon="17.979029403483">
        <ele>83.8</ele>
        <time>2017-10-23T18:30:58Z</time>
      </trkpt>
      <trkpt lat="62.635344753407" lon="17.979030409311">
        <ele>83.8</ele>
        <time>2017-10-23T18:30:59Z</time>
      </trkpt>
      <trkpt lat="62.635354644049" lon="17.979031918053">
        <ele>83.6</ele>
        <time>2017-10-23T18:31:00Z</time>
      </trkpt>
      <trkpt lat="62.635362355397" lon="17.97902630218">
        <ele>83.6</ele>
        <time>2017-10-23T18:31:01Z</time>
      </trkpt>
      <trkpt lat="62.635369899107" lon="17.979019680479">
        <ele>83.6</ele>
        <time>2017-10-23T18:31:02Z</time>
      </trkpt>
      <trkpt lat="62.635380041206" lon="17.9790162439">
        <ele>83.6</ele>
        <time>2017-10-23T18:31:03Z</time>
      </trkpt>
      <trkpt lat="62.635397224101" lon="17.979010628027">
        <ele>83.6</ele>
        <time>2017-10-23T18:31:04Z</time>
      </trkpt>
      <trkpt lat="62.635410467503" lon="17.979003754869">
        <ele>83.4</ele>
        <time>2017-10-23T18:31:05Z</time>
      </trkpt>
      <trkpt lat="62.635423459448" lon="17.979001491756">
        <ele>83.4</ele>
        <time>2017-10-23T18:31:06Z</time>
      </trkpt>
      <trkpt lat="62.635436199936" lon="17.978997971358">
        <ele>83.4</ele>
        <time>2017-10-23T18:31:07Z</time>
      </trkpt>
      <trkpt lat="62.63544508475" lon="17.97899528915">
        <ele>83.4</ele>
        <time>2017-10-23T18:31:08Z</time>
      </trkpt>
      <trkpt lat="62.635453718107" lon="17.978994786236">
        <ele>83.2</ele>
        <time>2017-10-23T18:31:09Z</time>
      </trkpt>
      <trkpt lat="62.635463357292" lon="17.978997216987">
        <ele>83.2</ele>
        <time>2017-10-23T18:31:10Z</time>
      </trkpt>
      <trkpt lat="62.635471571554" lon="17.978996043521">
        <ele>83.2</ele>
        <time>2017-10-23T18:31:11Z</time>
      </trkpt>
      <trkpt lat="62.635480624006" lon="17.978997049349">
        <ele>83</ele>
        <time>2017-10-23T18:31:12Z</time>
      </trkpt>
      <trkpt lat="62.635489927915" lon="17.979000988842">
        <ele>83</ele>
        <time>2017-10-23T18:31:13Z</time>
      </trkpt>
      <trkpt lat="62.635498225996" lon="17.979003587231">
        <ele>83</ele>
        <time>2017-10-23T18:31:14Z</time>
      </trkpt>
      <trkpt lat="62.635509206285" lon="17.979001491756">
        <ele>82.8</ele>
        <time>2017-10-23T18:31:15Z</time>
      </trkpt>
      <trkpt lat="62.635522952601" lon="17.978997300806">
        <ele>82.6</ele>
        <time>2017-10-23T18:31:16Z</time>
      </trkpt>
      <trkpt lat="62.635534351985" lon="17.978992355485">
        <ele>82.6</ele>
        <time>2017-10-23T18:31:17Z</time>
      </trkpt>
      <trkpt lat="62.63553644746" lon="17.978989924734">
        <ele>82.6</ele>
        <time>2017-10-23T18:31:18Z</time>
      </trkpt>
      <trkpt lat="62.635548768853" lon="17.97898355449">
        <ele>82.4</ele>
        <time>2017-10-23T18:31:19Z</time>
      </trkpt>
      <trkpt lat="62.635555390554" lon="17.978983973585">
        <ele>82.4</ele>
        <time>2017-10-23T18:31:20Z</time>
      </trkpt>
      <trkpt lat="62.635558994771" lon="17.978984727956">
        <ele>82.2</ele>
        <time>2017-10-23T18:31:21Z</time>
      </trkpt>
      <trkpt lat="62.63556746049" lon="17.978987158707">
        <ele>82.2</ele>
        <time>2017-10-23T18:31:22Z</time>
      </trkpt>
      <trkpt lat="62.635579362788" lon="17.978990762924">
        <ele>82.2</ele>
        <time>2017-10-23T18:31:23Z</time>
      </trkpt>
      <trkpt lat="62.635588499059" lon="17.978992187847">
        <ele>82</ele>
        <time>2017-10-23T18:31:24Z</time>
      </trkpt>
      <trkpt lat="62.635602161556" lon="17.978995959702">
        <ele>82</ele>
        <time>2017-10-23T18:31:25Z</time>
      </trkpt>
      <trkpt lat="62.635612638931" lon="17.978997636082">
        <ele>82</ele>
        <time>2017-10-23T18:31:26Z</time>
      </trkpt>
      <trkpt lat="62.635624541229" lon="17.978996043521">
        <ele>81.8</ele>
        <time>2017-10-23T18:31:27Z</time>
      </trkpt>
      <trkpt lat="62.63563954483" lon="17.978995037693">
        <ele>81.8</ele>
        <time>2017-10-23T18:31:28Z</time>
      </trkpt>
      <trkpt lat="62.635647591454" lon="17.978993445132">
        <ele>81.8</ele>
        <time>2017-10-23T18:31:29Z</time>
      </trkpt>
      <trkpt lat="62.635655721897" lon="17.978992858399">
        <ele>81.8</ele>
        <time>2017-10-23T18:31:30Z</time>
      </trkpt>
      <trkpt lat="62.635669384394" lon="17.978996630254">
        <ele>81.8</ele>
        <time>2017-10-23T18:31:31Z</time>
      </trkpt>
      <trkpt lat="62.635685226185" lon="17.979003168136">
        <ele>81.6</ele>
        <time>2017-10-23T18:31:32Z</time>
      </trkpt>
      <trkpt lat="62.635700984157" lon="17.979006604715">
        <ele>81.6</ele>
        <time>2017-10-23T18:31:33Z</time>
      </trkpt>
      <trkpt lat="62.63571498193" lon="17.979006437077">
        <ele>81.6</ele>
        <time>2017-10-23T18:31:34Z</time>
      </trkpt>
      <trkpt lat="62.635730572264" lon="17.979008784009">
        <ele>81.6</ele>
        <time>2017-10-23T18:31:35Z</time>
      </trkpt>
      <trkpt lat="62.63574599496" lon="17.979010544208">
        <ele>81.6</ele>
        <time>2017-10-23T18:31:36Z</time>
      </trkpt>
      <trkpt lat="62.635761501475" lon="17.979007945819">
        <ele>81.4</ele>
        <time>2017-10-23T18:31:37Z</time>
      </trkpt>
      <trkpt lat="62.63577449342" lon="17.979000821204">
        <ele>81.4</ele>
        <time>2017-10-23T18:31:38Z</time>
      </trkpt>
      <trkpt lat="62.635781534216" lon="17.978994367141">
        <ele>81.4</ele>
        <time>2017-10-23T18:31:39Z</time>
      </trkpt>
      <trkpt lat="62.63580299188" lon="17.978998725729">
        <ele>81.4</ele>
        <time>2017-10-23T18:31:40Z</time>
      </trkpt>
      <trkpt lat="62.635820761508" lon="17.978995624426">
        <ele>81.4</ele>
        <time>2017-10-23T18:31:41Z</time>
      </trkpt>
      <trkpt lat="62.635836770937" lon="17.978987074888">
        <ele>81.4</ele>
        <time>2017-10-23T18:31:42Z</time>
      </trkpt>
      <trkpt lat="62.635850098158" lon="17.978987913078">
        <ele>81.4</ele>
        <time>2017-10-23T18:31:43Z</time>
      </trkpt>
      <trkpt lat="62.635863006284" lon="17.978993361313">
        <ele>81.4</ele>
        <time>2017-10-23T18:31:44Z</time>
      </trkpt>
      <trkpt lat="62.635875411496" lon="17.978999563919">
        <ele>81.4</ele>
        <time>2017-10-23T18:31:45Z</time>
      </trkpt>
      <trkpt lat="62.635890247459" lon="17.979005766525">
        <ele>81.4</ele>
        <time>2017-10-23T18:31:46Z</time>
      </trkpt>
      <trkpt lat="62.635902652671" lon="17.979008364914">
        <ele>81.4</ele>
        <time>2017-10-23T18:31:47Z</time>
      </trkpt>
      <trkpt lat="62.635914387331" lon="17.979016579176">
        <ele>81.4</ele>
        <time>2017-10-23T18:31:48Z</time>
      </trkpt>
      <trkpt lat="62.635926289629" lon="17.979025715447">
        <ele>81.6</ele>
        <time>2017-10-23T18:31:49Z</time>
      </trkpt>
      <trkpt lat="62.635939700669" lon="17.979035354632">
        <ele>81.6</ele>
        <time>2017-10-23T18:31:50Z</time>
      </trkpt>
      <trkpt lat="62.635952776433" lon="17.979046251102">
        <ele>81.8</ele>
        <time>2017-10-23T18:31:51Z</time>
      </trkpt>
      <trkpt lat="62.63596476255" lon="17.97906150616">
        <ele>81.8</ele>
        <time>2017-10-23T18:31:52Z</time>
      </trkpt>
      <trkpt lat="62.635975156106" lon="17.979080700711">
        <ele>82</ele>
        <time>2017-10-23T18:31:53Z</time>
      </trkpt>
      <trkpt lat="62.635984795291" lon="17.979098135063">
        <ele>82</ele>
        <time>2017-10-23T18:31:54Z</time>
      </trkpt>
      <trkpt lat="62.635993093372" lon="17.979112803388">
        <ele>82</ele>
        <time>2017-10-23T18:31:55Z</time>
      </trkpt>
      <trkpt lat="62.635999631254" lon="17.979131997939">
        <ele>82</ele>
        <time>2017-10-23T18:31:56Z</time>
      </trkpt>
      <trkpt lat="62.636002564919" lon="17.979153874698">
        <ele>82</ele>
        <time>2017-10-23T18:31:57Z</time>
      </trkpt>
      <trkpt lat="62.636003822204" lon="17.979185474461">
        <ele>82</ele>
        <time>2017-10-23T18:31:58Z</time>
      </trkpt>
      <trkpt lat="62.636003067833" lon="17.979213050912">
        <ele>81.8</ele>
        <time>2017-10-23T18:31:59Z</time>
      </trkpt>
      <trkpt lat="62.63600331929" lon="17.9792425552">
        <ele>81.8</ele>
        <time>2017-10-23T18:32:00Z</time>
      </trkpt>
      <trkpt lat="62.636004744213" lon="17.97927440642">
        <ele>81.8</ele>
        <time>2017-10-23T18:32:01Z</time>
      </trkpt>
      <trkpt lat="62.636005079489" lon="17.979299803577">
        <ele>81.8</ele>
        <time>2017-10-23T18:32:02Z</time>
      </trkpt>
      <trkpt lat="62.636005666222" lon="17.979322937621">
        <ele>81.6</ele>
        <time>2017-10-23T18:32:03Z</time>
      </trkpt>
      <trkpt lat="62.636006252955" lon="17.979346909855">
        <ele>81.6</ele>
        <time>2017-10-23T18:32:04Z</time>
      </trkpt>
      <trkpt lat="62.636005666222" lon="17.979368367519">
        <ele>81.6</ele>
        <time>2017-10-23T18:32:05Z</time>
      </trkpt>
      <trkpt lat="62.636001810548" lon="17.979382030016">
        <ele>81.4</ele>
        <time>2017-10-23T18:32:06Z</time>
      </trkpt>
      <trkpt lat="62.635998457788" lon="17.97939929673">
        <ele>81.4</ele>
        <time>2017-10-23T18:32:07Z</time>
      </trkpt>
      <trkpt lat="62.635995524123" lon="17.979417820729">
        <ele>81.2</ele>
        <time>2017-10-23T18:32:08Z</time>
      </trkpt>
      <trkpt lat="62.635994350657" lon="17.97944036804">
        <ele>81</ele>
        <time>2017-10-23T18:32:09Z</time>
      </trkpt>
      <trkpt lat="62.635994518295" lon="17.979463753541">
        <ele>81</ele>
        <time>2017-10-23T18:32:10Z</time>
      </trkpt>
      <trkpt lat="62.635995272666" lon="17.979483870101">
        <ele>80.8</ele>
        <time>2017-10-23T18:32:11Z</time>
      </trkpt>
      <trkpt lat="62.635996110856" lon="17.979507758516">
        <ele>80.6</ele>
        <time>2017-10-23T18:32:12Z</time>
      </trkpt>
      <trkpt lat="62.635995859399" lon="17.97952586342">
        <ele>80.4</ele>
        <time>2017-10-23T18:32:13Z</time>
      </trkpt>
      <trkpt lat="62.635996027037" lon="17.97954011265">
        <ele>80.2</ele>
        <time>2017-10-23T18:32:14Z</time>
      </trkpt>
      <trkpt lat="62.635998206331" lon="17.979556122079">
        <ele>80.2</ele>
        <time>2017-10-23T18:32:15Z</time>
      </trkpt>
      <trkpt lat="62.635997619598" lon="17.979576909191">
        <ele>80</ele>
        <time>2017-10-23T18:32:16Z</time>
      </trkpt>
      <trkpt lat="62.635996865227" lon="17.979597612484">
        <ele>79.8</ele>
        <time>2017-10-23T18:32:17Z</time>
      </trkpt>
      <trkpt lat="62.635998457788" lon="17.979615717388">
        <ele>79.8</ele>
        <time>2017-10-23T18:32:18Z</time>
      </trkpt>
      <trkpt lat="62.636001391453" lon="17.979634576663">
        <ele>79.4</ele>
        <time>2017-10-23T18:32:19Z</time>
      </trkpt>
      <trkpt lat="62.636002732557" lon="17.979655866689">
        <ele>79.2</ele>
        <time>2017-10-23T18:32:20Z</time>
      </trkpt>
      <trkpt lat="62.636003906023" lon="17.979671792299">
        <ele>79</ele>
        <time>2017-10-23T18:32:21Z</time>
      </trkpt>
      <trkpt lat="62.636006420593" lon="17.979686879719">
        <ele>78.8</ele>
        <time>2017-10-23T18:32:22Z</time>
      </trkpt>
      <trkpt lat="62.636009018982" lon="17.979709678487">
        <ele>78.6</ele>
        <time>2017-10-23T18:32:23Z</time>
      </trkpt>
      <trkpt lat="62.636010360086" lon="17.979735997653">
        <ele>78.4</ele>
        <time>2017-10-23T18:32:24Z</time>
      </trkpt>
      <trkpt lat="62.636013293751" lon="17.979761897724">
        <ele>78.2</ele>
        <time>2017-10-23T18:32:25Z</time>
      </trkpt>
      <trkpt lat="62.63601421576" lon="17.97977732042">
        <ele>78</ele>
        <time>2017-10-23T18:32:26Z</time>
      </trkpt>
      <trkpt lat="62.636014467217" lon="17.979792491659">
        <ele>78</ele>
        <time>2017-10-23T18:32:27Z</time>
      </trkpt>
      <trkpt lat="62.636013293751" lon="17.979807662898">
        <ele>78</ele>
        <time>2017-10-23T18:32:28Z</time>
      </trkpt>
      <trkpt lat="62.636014886312" lon="17.97984186105">
        <ele>77.8</ele>
        <time>2017-10-23T18:32:29Z</time>
      </trkpt>
      <trkpt lat="62.636016897968" lon="17.979861223239">
        <ele>77.8</ele>
        <time>2017-10-23T18:32:30Z</time>
      </trkpt>
      <trkpt lat="62.636017819977" lon="17.979878657591">
        <ele>77.8</ele>
        <time>2017-10-23T18:32:31Z</time>
      </trkpt>
      <trkpt lat="62.636018909624" lon="17.979897265409">
        <ele>77.6</ele>
        <time>2017-10-23T18:32:32Z</time>
      </trkpt>
      <trkpt lat="62.636020753642" lon="17.979911347001">
        <ele>77.6</ele>
        <time>2017-10-23T18:32:33Z</time>
      </trkpt>
      <trkpt lat="62.636024190221" lon="17.979922494928">
        <ele>77.6</ele>
        <time>2017-10-23T18:32:34Z</time>
      </trkpt>
      <trkpt lat="62.636024106402" lon="17.979940264556">
        <ele>77.6</ele>
        <time>2017-10-23T18:32:36Z</time>
      </trkpt>
      <trkpt lat="62.636025782782" lon="17.979931966475">
        <ele>77.6</ele>
        <time>2017-10-23T18:32:37Z</time>
      </trkpt>
      <trkpt lat="62.636063752789" lon="17.980363550506">
        <ele>77.2</ele>
        <time>2017-10-23T18:32:54Z</time>
      </trkpt>
      <trkpt lat="62.636075822725" lon="17.980441083081">
        <ele>77</ele>
        <time>2017-10-23T18:32:55Z</time>
      </trkpt>
      <trkpt lat="62.636084707539" lon="17.980513670335">
        <ele>76.8</ele>
        <time>2017-10-23T18:32:56Z</time>
      </trkpt>
      <trkpt lat="62.63609384381" lon="17.980585251761">
        <ele>76.6</ele>
        <time>2017-10-23T18:32:57Z</time>
      </trkpt>
      <trkpt lat="62.636108176859" lon="17.980663035793">
        <ele>76.6</ele>
        <time>2017-10-23T18:32:58Z</time>
      </trkpt>
      <trkpt lat="62.636124353926" lon="17.980734617219">
        <ele>76.6</ele>
        <time>2017-10-23T18:32:59Z</time>
      </trkpt>
      <trkpt lat="62.636140950088" lon="17.980802342971">
        <ele>76.4</ele>
        <time>2017-10-23T18:33:00Z</time>
      </trkpt>
      <trkpt lat="62.636155534594" lon="17.980872248017">
        <ele>76.4</ele>
        <time>2017-10-23T18:33:01Z</time>
      </trkpt>
      <trkpt lat="62.636167185435" lon="17.980947936574">
        <ele>76.2</ele>
        <time>2017-10-23T18:33:02Z</time>
      </trkpt>
      <trkpt lat="62.63618101557" lon="17.981028486633">
        <ele>76.2</ele>
        <time>2017-10-23T18:33:03Z</time>
      </trkpt>
      <trkpt lat="62.636192582592" lon="17.981106438303">
        <ele>76.2</ele>
        <time>2017-10-23T18:33:04Z</time>
      </trkpt>
      <trkpt lat="62.636199707207" lon="17.981177349177">
        <ele>76</ele>
        <time>2017-10-23T18:33:05Z</time>
      </trkpt>
      <trkpt lat="62.636205742175" lon="17.981247589499">
        <ele>75.8</ele>
        <time>2017-10-23T18:33:06Z</time>
      </trkpt>
      <trkpt lat="62.636214375532" lon="17.981315985803">
        <ele>75.6</ele>
        <time>2017-10-23T18:33:07Z</time>
      </trkpt>
      <trkpt lat="62.6362204105" lon="17.981398128423">
        <ele>75.6</ele>
        <time>2017-10-23T18:33:08Z</time>
      </trkpt>
      <trkpt lat="62.636228624762" lon="17.981473230247">
        <ele>75.4</ele>
        <time>2017-10-23T18:33:09Z</time>
      </trkpt>
      <trkpt lat="62.636233486264" lon="17.981552271564">
        <ele>75.2</ele>
        <time>2017-10-23T18:33:10Z</time>
      </trkpt>
      <trkpt lat="62.636234492092" lon="17.981627289569">
        <ele>75.2</ele>
        <time>2017-10-23T18:33:11Z</time>
      </trkpt>
      <trkpt lat="62.636240946155" lon="17.981703061945">
        <ele>75.2</ele>
        <time>2017-10-23T18:33:12Z</time>
      </trkpt>
      <trkpt lat="62.636247064942" lon="17.981787886773">
        <ele>75</ele>
        <time>2017-10-23T18:33:13Z</time>
      </trkpt>
      <trkpt lat="62.636252094082" lon="17.981869191203">
        <ele>75</ele>
        <time>2017-10-23T18:33:14Z</time>
      </trkpt>
      <trkpt lat="62.636260308344" lon="17.981939515344">
        <ele>75</ele>
        <time>2017-10-23T18:33:15Z</time>
      </trkpt>
      <trkpt lat="62.636267684416" lon="17.982017969928">
        <ele>74.8</ele>
        <time>2017-10-23T18:33:16Z</time>
      </trkpt>
      <trkpt lat="62.636274389936" lon="17.982086617689">
        <ele>74.8</ele>
        <time>2017-10-23T18:33:17Z</time>
      </trkpt>
      <trkpt lat="62.636279167619" lon="17.98216364735">
        <ele>74.8</ele>
        <time>2017-10-23T18:33:18Z</time>
      </trkpt>
      <trkpt lat="62.636281011637" lon="17.982241347563">
        <ele>74.8</ele>
        <time>2017-10-23T18:33:19Z</time>
      </trkpt>
      <trkpt lat="62.636283190931" lon="17.982318628681">
        <ele>74.6</ele>
        <time>2017-10-23T18:33:20Z</time>
      </trkpt>
      <trkpt lat="62.636283861483" lon="17.982387611718">
        <ele>74.8</ele>
        <time>2017-10-23T18:33:21Z</time>
      </trkpt>
      <trkpt lat="62.636282939474" lon="17.982462545904">
        <ele>74.8</ele>
        <time>2017-10-23T18:33:22Z</time>
      </trkpt>
      <trkpt lat="62.636283023293" lon="17.982542173954">
        <ele>74.8</ele>
        <time>2017-10-23T18:33:23Z</time>
      </trkpt>
      <trkpt lat="62.636285202587" lon="17.982617611054">
        <ele>74.8</ele>
        <time>2017-10-23T18:33:24Z</time>
      </trkpt>
      <trkpt lat="62.636287381881" lon="17.982690198308">
        <ele>74.8</ele>
        <time>2017-10-23T18:33:25Z</time>
      </trkpt>
      <trkpt lat="62.636288471528" lon="17.982752308187">
        <ele>74.8</ele>
        <time>2017-10-23T18:33:26Z</time>
      </trkpt>
      <trkpt lat="62.63628998027" lon="17.982811652039">
        <ele>75</ele>
        <time>2017-10-23T18:33:27Z</time>
      </trkpt>
      <trkpt lat="62.636290399365" lon="17.982876695583">
        <ele>75</ele>
        <time>2017-10-23T18:33:28Z</time>
      </trkpt>
      <trkpt lat="62.636292830116" lon="17.982935536521">
        <ele>75</ele>
        <time>2017-10-23T18:33:29Z</time>
      </trkpt>
      <trkpt lat="62.636296518152" lon="17.983005022472">
        <ele>75.2</ele>
        <time>2017-10-23T18:33:30Z</time>
      </trkpt>
      <trkpt lat="62.636303307491" lon="17.983084399065">
        <ele>75.2</ele>
        <time>2017-10-23T18:33:31Z</time>
      </trkpt>
      <trkpt lat="62.636308588088" lon="17.983160758174">
        <ele>75.2</ele>
        <time>2017-10-23T18:33:32Z</time>
      </trkpt>
      <trkpt lat="62.636308755726" lon="17.983240218586">
        <ele>75.2</ele>
        <time>2017-10-23T18:33:33Z</time>
      </trkpt>
      <trkpt lat="62.636308252812" lon="17.983314398401">
        <ele>75.2</ele>
        <time>2017-10-23T18:33:34Z</time>
      </trkpt>
      <trkpt lat="62.636303726586" lon="17.983382710886">
        <ele>75</ele>
        <time>2017-10-23T18:33:35Z</time>
      </trkpt>
      <trkpt lat="62.636296182876" lon="17.983447335335">
        <ele>75</ele>
        <time>2017-10-23T18:33:36Z</time>
      </trkpt>
      <trkpt lat="62.636286795148" lon="17.983513300888">
        <ele>75.2</ele>
        <time>2017-10-23T18:33:37Z</time>
      </trkpt>
      <trkpt lat="62.63627573104" lon="17.983583289753">
        <ele>75.2</ele>
        <time>2017-10-23T18:33:38Z</time>
      </trkpt>
      <trkpt lat="62.636266343312" lon="17.983636682456">
        <ele>75.2</ele>
        <time>2017-10-23T18:33:39Z</time>
      </trkpt>
      <trkpt lat="62.636255782118" lon="17.983695774851">
        <ele>75.4</ele>
        <time>2017-10-23T18:33:40Z</time>
      </trkpt>
      <trkpt lat="62.636245723838" lon="17.983750173382">
        <ele>75.6</ele>
        <time>2017-10-23T18:33:41Z</time>
      </trkpt>
      <trkpt lat="62.63623801249" lon="17.98380147061">
        <ele>75.6</ele>
        <time>2017-10-23T18:33:42Z</time>
      </trkpt>
      <trkpt lat="62.636224182355" lon="17.983862239385">
        <ele>75.6</ele>
        <time>2017-10-23T18:33:43Z</time>
      </trkpt>
      <trkpt lat="62.636212950609" lon="17.983919739219">
        <ele>75.8</ele>
        <time>2017-10-23T18:33:44Z</time>
      </trkpt>
      <trkpt lat="62.636207334736" lon="17.983969611524">
        <ele>75.8</ele>
        <time>2017-10-23T18:33:45Z</time>
      </trkpt>
      <trkpt lat="62.636200796854" lon="17.984029374471">
        <ele>76</ele>
        <time>2017-10-23T18:33:46Z</time>
      </trkpt>
      <trkpt lat="62.636196438266" lon="17.984089556513">
        <ele>76</ele>
        <time>2017-10-23T18:33:47Z</time>
      </trkpt>
      <trkpt lat="62.636196522085" lon="17.984166753812">
        <ele>76.2</ele>
        <time>2017-10-23T18:33:48Z</time>
      </trkpt>
      <trkpt lat="62.636198030827" lon="17.984245124577">
        <ele>76.4</ele>
        <time>2017-10-23T18:33:49Z</time>
      </trkpt>
      <trkpt lat="62.63619945575" lon="17.984310419578">
        <ele>76.8</ele>
        <time>2017-10-23T18:33:50Z</time>
      </trkpt>
      <trkpt lat="62.636195432438" lon="17.984378648244">
        <ele>76.8</ele>
        <time>2017-10-23T18:33:51Z</time>
      </trkpt>
      <trkpt lat="62.6361868829" lon="17.98444855329">
        <ele>77</ele>
        <time>2017-10-23T18:33:52Z</time>
      </trkpt>
      <trkpt lat="62.636180512656" lon="17.984507980961">
        <ele>77</ele>
        <time>2017-10-23T18:33:53Z</time>
      </trkpt>
      <trkpt lat="62.636177495172" lon="17.984569168831">
        <ele>77</ele>
        <time>2017-10-23T18:33:54Z</time>
      </trkpt>
      <trkpt lat="62.636175232059" lon="17.984629937606">
        <ele>77</ele>
        <time>2017-10-23T18:33:55Z</time>
      </trkpt>
      <trkpt lat="62.63617263367" lon="17.984688527087">
        <ele>77</ele>
        <time>2017-10-23T18:33:56Z</time>
      </trkpt>
      <trkpt lat="62.636169867643" lon="17.984751894251">
        <ele>77</ele>
        <time>2017-10-23T18:33:57Z</time>
      </trkpt>
      <trkpt lat="62.636161904838" lon="17.984826241704">
        <ele>77.2</ele>
        <time>2017-10-23T18:33:58Z</time>
      </trkpt>
      <trkpt lat="62.636152852386" lon="17.984893045447">
        <ele>77.4</ele>
        <time>2017-10-23T18:33:59Z</time>
      </trkpt>
      <trkpt lat="62.636144805762" lon="17.984960100647">
        <ele>77.4</ele>
        <time>2017-10-23T18:34:00Z</time>
      </trkpt>
      <trkpt lat="62.636139189889" lon="17.985027910218">
        <ele>77.4</ele>
        <time>2017-10-23T18:34:01Z</time>
      </trkpt>
      <trkpt lat="62.636135501853" lon="17.985094294866">
        <ele>77.6</ele>
        <time>2017-10-23T18:34:02Z</time>
      </trkpt>
      <trkpt lat="62.636131646179" lon="17.985160511876">
        <ele>77.6</ele>
        <time>2017-10-23T18:34:03Z</time>
      </trkpt>
      <trkpt lat="62.636129634523" lon="17.985223711402">
        <ele>77.8</ele>
        <time>2017-10-23T18:34:04Z</time>
      </trkpt>
      <trkpt lat="62.636120833528" lon="17.985289509317">
        <ele>77.8</ele>
        <time>2017-10-23T18:34:05Z</time>
      </trkpt>
      <trkpt lat="62.636111781076" lon="17.985347847341">
        <ele>78</ele>
        <time>2017-10-23T18:34:06Z</time>
      </trkpt>
      <trkpt lat="62.636100968425" lon="17.985401742958">
        <ele>78.2</ele>
        <time>2017-10-23T18:34:07Z</time>
      </trkpt>
      <trkpt lat="62.636084791358" lon="17.985465026303">
        <ele>78.4</ele>
        <time>2017-10-23T18:34:08Z</time>
      </trkpt>
      <trkpt lat="62.636072805241" lon="17.985516239712">
        <ele>78.4</ele>
        <time>2017-10-23T18:34:09Z</time>
      </trkpt>
      <trkpt lat="62.636065093893" lon="17.985570722062">
        <ele>78.4</ele>
        <time>2017-10-23T18:34:10Z</time>
      </trkpt>
      <trkpt lat="62.636064088065" lon="17.985611206639">
        <ele>78.6</ele>
        <time>2017-10-23T18:34:11Z</time>
      </trkpt>
      <trkpt lat="62.63605361069" lon="17.985654960157">
        <ele>78.8</ele>
        <time>2017-10-23T18:34:12Z</time>
      </trkpt>
      <trkpt lat="62.636039864374" lon="17.985705251557">
        <ele>78.8</ele>
        <time>2017-10-23T18:34:13Z</time>
      </trkpt>
      <trkpt lat="62.636025028411" lon="17.985749256532">
        <ele>79.2</ele>
        <time>2017-10-23T18:34:14Z</time>
      </trkpt>
      <trkpt lat="62.636007258783" lon="17.985781191571">
        <ele>79.2</ele>
        <time>2017-10-23T18:34:15Z</time>
      </trkpt>
      <trkpt lat="62.635987309861" lon="17.985809606212">
        <ele>79.2</ele>
        <time>2017-10-23T18:34:16Z</time>
      </trkpt>
      <trkpt lat="62.635967947672" lon="17.985839361957">
        <ele>79.4</ele>
        <time>2017-10-23T18:34:17Z</time>
      </trkpt>
      <trkpt lat="62.635948334026" lon="17.985863501829">
        <ele>79.6</ele>
        <time>2017-10-23T18:34:18Z</time>
      </trkpt>
      <trkpt lat="62.635924948525" lon="17.985893006117">
        <ele>79.6</ele>
        <time>2017-10-23T18:34:19Z</time>
      </trkpt>
      <trkpt lat="62.63589770735" lon="17.985930976124">
        <ele>79.6</ele>
        <time>2017-10-23T18:34:20Z</time>
      </trkpt>
      <trkpt lat="62.635870801451" lon="17.985971293063">
        <ele>79.6</ele>
        <time>2017-10-23T18:34:21Z</time>
      </trkpt>
      <trkpt lat="62.635843560276" lon="17.986011945278">
        <ele>79.8</ele>
        <time>2017-10-23T18:34:22Z</time>
      </trkpt>
      <trkpt lat="62.635818330757" lon="17.98605201076">
        <ele>79.8</ele>
        <time>2017-10-23T18:34:23Z</time>
      </trkpt>
      <trkpt lat="62.635797376007" lon="17.986091321871">
        <ele>79.8</ele>
        <time>2017-10-23T18:34:24Z</time>
      </trkpt>
      <trkpt lat="62.635778265275" lon="17.986120993797">
        <ele>80</ele>
        <time>2017-10-23T18:34:25Z</time>
      </trkpt>
      <trkpt lat="62.635768709909" lon="17.986152677379">
        <ele>80</ele>
        <time>2017-10-23T18:34:26Z</time>
      </trkpt>
      <trkpt lat="62.635757310525" lon="17.986188132816">
        <ele>80.2</ele>
        <time>2017-10-23T18:34:27Z</time>
      </trkpt>
      <trkpt lat="62.635737696879" lon="17.986231048144">
        <ele>80.4</ele>
        <time>2017-10-23T18:34:28Z</time>
      </trkpt>
      <trkpt lat="62.635719591975" lon="17.986279495526">
        <ele>80.8</ele>
        <time>2017-10-23T18:34:29Z</time>
      </trkpt>
      <trkpt lat="62.635702995813" lon="17.986325595976">
        <ele>81</ele>
        <time>2017-10-23T18:34:30Z</time>
      </trkpt>
      <trkpt lat="62.635688746583" lon="17.986371109693">
        <ele>81.2</ele>
        <time>2017-10-23T18:34:31Z</time>
      </trkpt>
      <trkpt lat="62.635678269208" lon="17.986414276478">
        <ele>81.4</ele>
        <time>2017-10-23T18:34:32Z</time>
      </trkpt>
      <trkpt lat="62.635662343598" lon="17.98646020929">
        <ele>81.4</ele>
        <time>2017-10-23T18:34:33Z</time>
      </trkpt>
      <trkpt lat="62.635638958097" lon="17.986515110735">
        <ele>81.6</ele>
        <time>2017-10-23T18:34:34Z</time>
      </trkpt>
      <trkpt lat="62.635614315311" lon="17.986570179818">
        <ele>81.6</ele>
        <time>2017-10-23T18:34:35Z</time>
      </trkpt>
      <trkpt lat="62.635594785484" lon="17.986623991616">
        <ele>81.6</ele>
        <time>2017-10-23T18:34:36Z</time>
      </trkpt>
      <trkpt lat="62.635584559566" lon="17.98667981507">
        <ele>81.8</ele>
        <time>2017-10-23T18:34:37Z</time>
      </trkpt>
      <trkpt lat="62.635572070535" lon="17.986739242741">
        <ele>82</ele>
        <time>2017-10-23T18:34:38Z</time>
      </trkpt>
      <trkpt lat="62.635554468545" lon="17.986801771715">
        <ele>82</ele>
        <time>2017-10-23T18:34:39Z</time>
      </trkpt>
      <trkpt lat="62.635537201831" lon="17.986853990952">
        <ele>82.2</ele>
        <time>2017-10-23T18:34:40Z</time>
      </trkpt>
      <trkpt lat="62.635524628981" lon="17.986904198533">
        <ele>82.2</ele>
        <time>2017-10-23T18:34:41Z</time>
      </trkpt>
      <trkpt lat="62.635507949" lon="17.986952059182">
        <ele>82.2</ele>
        <time>2017-10-23T18:34:42Z</time>
      </trkpt>
      <trkpt lat="62.635492945399" lon="17.986991537931">
        <ele>82.2</ele>
        <time>2017-10-23T18:34:43Z</time>
      </trkpt>
      <trkpt lat="62.635475511047" lon="17.987035291449">
        <ele>82.4</ele>
        <time>2017-10-23T18:34:44Z</time>
      </trkpt>
      <trkpt lat="62.635453885745" lon="17.987081391899">
        <ele>82.4</ele>
        <time>2017-10-23T18:34:45Z</time>
      </trkpt>
      <trkpt lat="62.635437792497" lon="17.987111985834">
        <ele>82.4</ele>
        <time>2017-10-23T18:34:46Z</time>
      </trkpt>
      <trkpt lat="62.635408539666" lon="17.987172084057">
        <ele>82.6</ele>
        <time>2017-10-23T18:34:47Z</time>
      </trkpt>
      <trkpt lat="62.635388842201" lon="17.987212568634">
        <ele>82.6</ele>
        <time>2017-10-23T18:34:48Z</time>
      </trkpt>
      <trkpt lat="62.635369144736" lon="17.987253556125">
        <ele>82.8</ele>
        <time>2017-10-23T18:34:49Z</time>
      </trkpt>
      <trkpt lat="62.63535875118" lon="17.987305356267">
        <ele>82.8</ele>
        <time>2017-10-23T18:34:50Z</time>
      </trkpt>
      <trkpt lat="62.635341400647" lon="17.987354306563">
        <ele>83</ele>
        <time>2017-10-23T18:34:51Z</time>
      </trkpt>
      <trkpt lat="62.635318434241" lon="17.987400993746">
        <ele>83.2</ele>
        <time>2017-10-23T18:34:52Z</time>
      </trkpt>
      <trkpt lat="62.635291025428" lon="17.987447094196">
        <ele>83.4</ele>
        <time>2017-10-23T18:34:53Z</time>
      </trkpt>
      <trkpt lat="62.635264622443" lon="17.987494451931">
        <ele>83.6</ele>
        <time>2017-10-23T18:34:54Z</time>
      </trkpt>
      <trkpt lat="62.635236459259" lon="17.987548850462">
        <ele>83.8</ele>
        <time>2017-10-23T18:34:55Z</time>
      </trkpt>
      <trkpt lat="62.635206284419" lon="17.987605512106">
        <ele>83.8</ele>
        <time>2017-10-23T18:34:56Z</time>
      </trkpt>
      <trkpt lat="62.635182815099" lon="17.987650103814">
        <ele>84</ele>
        <time>2017-10-23T18:34:57Z</time>
      </trkpt>
      <trkpt lat="62.635156663571" lon="17.987696707178">
        <ele>84.2</ele>
        <time>2017-10-23T18:34:58Z</time>
      </trkpt>
      <trkpt lat="62.635130092948" lon="17.987744232551">
        <ele>84.4</ele>
        <time>2017-10-23T18:34:59Z</time>
      </trkpt>
      <trkpt lat="62.635104528153" lon="17.987788237526">
        <ele>84.6</ele>
        <time>2017-10-23T18:35:00Z</time>
      </trkpt>
      <trkpt lat="62.635079550091" lon="17.98783484089">
        <ele>84.8</ele>
        <time>2017-10-23T18:35:01Z</time>
      </trkpt>
      <trkpt lat="62.635053566201" lon="17.987873816725">
        <ele>84.8</ele>
        <time>2017-10-23T18:35:02Z</time>
      </trkpt>
      <trkpt lat="62.635032192356" lon="17.987903237194">
        <ele>85</ele>
        <time>2017-10-23T18:35:03Z</time>
      </trkpt>
      <trkpt lat="62.635003190982" lon="17.98793961464">
        <ele>85</ele>
        <time>2017-10-23T18:35:04Z</time>
      </trkpt>
      <trkpt lat="62.634971591219" lon="17.987973393697">
        <ele>85.2</ele>
        <time>2017-10-23T18:35:05Z</time>
      </trkpt>
      <trkpt lat="62.634942422207" lon="17.987999461406">
        <ele>85.2</ele>
        <time>2017-10-23T18:35:06Z</time>
      </trkpt>
      <trkpt lat="62.634916270679" lon="17.988019913242">
        <ele>85.4</ele>
        <time>2017-10-23T18:35:07Z</time>
      </trkpt>
      <trkpt lat="62.634884754735" lon="17.988032989006">
        <ele>85.4</ele>
        <time>2017-10-23T18:35:08Z</time>
      </trkpt>
      <trkpt lat="62.634857178284" lon="17.988048998435">
        <ele>85.6</ele>
        <time>2017-10-23T18:35:09Z</time>
      </trkpt>
      <trkpt lat="62.634821974304" lon="17.988077664533">
        <ele>85.6</ele>
        <time>2017-10-23T18:35:10Z</time>
      </trkpt>
      <trkpt lat="62.634790625998" lon="17.988095434161">
        <ele>85.8</ele>
        <time>2017-10-23T18:35:11Z</time>
      </trkpt>
      <trkpt lat="62.634758020407" lon="17.988114209617">
        <ele>86</ele>
        <time>2017-10-23T18:35:12Z</time>
      </trkpt>
      <trkpt lat="62.634724660445" lon="17.988125525182">
        <ele>86.2</ele>
        <time>2017-10-23T18:35:13Z</time>
      </trkpt>
      <trkpt lat="62.634687612447" lon="17.988144300638">
        <ele>86.4</ele>
        <time>2017-10-23T18:35:14Z</time>
      </trkpt>
      <trkpt lat="62.634654336304" lon="17.988166177397">
        <ele>86.4</ele>
        <time>2017-10-23T18:35:15Z</time>
      </trkpt>
      <trkpt lat="62.634623239455" lon="17.988183360292">
        <ele>86.4</ele>
        <time>2017-10-23T18:35:16Z</time>
      </trkpt>
      <trkpt lat="62.634598261393" lon="17.988188389432">
        <ele>86.6</ele>
        <time>2017-10-23T18:35:17Z</time>
      </trkpt>
      <trkpt lat="62.634573283331" lon="17.988187467423">
        <ele>86.6</ele>
        <time>2017-10-23T18:35:18Z</time>
      </trkpt>
      <trkpt lat="62.634542773215" lon="17.988192999477">
        <ele>86.8</ele>
        <time>2017-10-23T18:35:19Z</time>
      </trkpt>
      <trkpt lat="62.634511005814" lon="17.988202638662">
        <ele>87</ele>
        <time>2017-10-23T18:35:20Z</time>
      </trkpt>
      <trkpt lat="62.634483345544" lon="17.988205823784">
        <ele>87</ele>
        <time>2017-10-23T18:35:21Z</time>
      </trkpt>
      <trkpt lat="62.634457613111" lon="17.988213367494">
        <ele>87</ele>
        <time>2017-10-23T18:35:22Z</time>
      </trkpt>
      <trkpt lat="62.634434562886" lon="17.988216301159">
        <ele>87.2</ele>
        <time>2017-10-23T18:35:23Z</time>
      </trkpt>
      <trkpt lat="62.63440321458" lon="17.988222503765">
        <ele>87.2</ele>
        <time>2017-10-23T18:35:24Z</time>
      </trkpt>
      <trkpt lat="62.634367675324" lon="17.98823298114">
        <ele>87.2</ele>
        <time>2017-10-23T18:35:25Z</time>
      </trkpt>
      <trkpt lat="62.634335237371" lon="17.988232562045">
        <ele>87.2</ele>
        <time>2017-10-23T18:35:26Z</time>
      </trkpt>
      <trkpt lat="62.634300201029" lon="17.988235998624">
        <ele>87.4</ele>
        <time>2017-10-23T18:35:27Z</time>
      </trkpt>
      <trkpt lat="62.63425485495" lon="17.988248739112">
        <ele>87.4</ele>
        <time>2017-10-23T18:35:28Z</time>
      </trkpt>
      <trkpt lat="62.634226188852" lon="17.988254690261">
        <ele>87.6</ele>
        <time>2017-10-23T18:35:29Z</time>
      </trkpt>
      <trkpt lat="62.634180423678" lon="17.988269610043">
        <ele>87.6</ele>
        <time>2017-10-23T18:35:30Z</time>
      </trkpt>
      <trkpt lat="62.634151087028" lon="17.988261395781">
        <ele>87.8</ele>
        <time>2017-10-23T18:35:31Z</time>
      </trkpt>
      <trkpt lat="62.634118649075" lon="17.988255193175">
        <ele>87.8</ele>
        <time>2017-10-23T18:35:32Z</time>
      </trkpt>
      <trkpt lat="62.634095515031" lon="17.988236166262">
        <ele>88</ele>
        <time>2017-10-23T18:35:33Z</time>
      </trkpt>
      <trkpt lat="62.634049079305" lon="17.988248990569">
        <ele>87.8</ele>
        <time>2017-10-23T18:35:34Z</time>
      </trkpt>
      <trkpt lat="62.634015886981" lon="17.988243542334">
        <ele>88</ele>
        <time>2017-10-23T18:35:35Z</time>
      </trkpt>
      <trkpt lat="62.633983951942" lon="17.988237591185">
        <ele>88</ele>
        <time>2017-10-23T18:35:36Z</time>
      </trkpt>
      <trkpt lat="62.633955788758" lon="17.988228874009">
        <ele>88.2</ele>
        <time>2017-10-23T18:35:37Z</time>
      </trkpt>
      <trkpt lat="62.633916645285" lon="17.98822543743">
        <ele>88.2</ele>
        <time>2017-10-23T18:35:38Z</time>
      </trkpt>
      <trkpt lat="62.633879764925" lon="17.988216971711">
        <ele>88.4</ele>
        <time>2017-10-23T18:35:39Z</time>
      </trkpt>
      <trkpt lat="62.633845399135" lon="17.98819693897">
        <ele>88.4</ele>
        <time>2017-10-23T18:35:40Z</time>
      </trkpt>
      <trkpt lat="62.633810698069" lon="17.988183192654">
        <ele>88.4</ele>
        <time>2017-10-23T18:35:41Z</time>
      </trkpt>
      <trkpt lat="62.633776835193" lon="17.988169949252">
        <ele>88.6</ele>
        <time>2017-10-23T18:35:42Z</time>
      </trkpt>
      <trkpt lat="62.6337393681" lon="17.988149748873">
        <ele>88.6</ele>
        <time>2017-10-23T18:35:43Z</time>
      </trkpt>
      <trkpt lat="62.633705589043" lon="17.988129716132">
        <ele>88.6</ele>
        <time>2017-10-23T18:35:44Z</time>
      </trkpt>
      <trkpt lat="62.633677090583" lon="17.988103564604">
        <ele>88.8</ele>
        <time>2017-10-23T18:35:45Z</time>
      </trkpt>
      <trkpt lat="62.633641132232" lon="17.988077161619">
        <ele>88.8</ele>
        <time>2017-10-23T18:35:46Z</time>
      </trkpt>
      <trkpt lat="62.633613304324" lon="17.988049166073">
        <ele>89</ele>
        <time>2017-10-23T18:35:47Z</time>
      </trkpt>
      <trkpt lat="62.633586482244" lon="17.988024188011">
        <ele>89</ele>
        <time>2017-10-23T18:35:48Z</time>
      </trkpt>
      <trkpt lat="62.633555553033" lon="17.987998204121">
        <ele>89</ele>
        <time>2017-10-23T18:35:49Z</time>
      </trkpt>
      <trkpt lat="62.633530407333" lon="17.98797062767">
        <ele>89.2</ele>
        <time>2017-10-23T18:35:50Z</time>
      </trkpt>
      <trkpt lat="62.633510458411" lon="17.98794715835">
        <ele>89.4</ele>
        <time>2017-10-23T18:35:51Z</time>
      </trkpt>
      <trkpt lat="62.633485312711" lon="17.98792285084">
        <ele>89.4</ele>
        <time>2017-10-23T18:35:52Z</time>
      </trkpt>
      <trkpt lat="62.633459999373" lon="17.987884126462">
        <ele>89.8</ele>
        <time>2017-10-23T18:35:53Z</time>
      </trkpt>
      <trkpt lat="62.633435859501" lon="17.98784322279">
        <ele>90</ele>
        <time>2017-10-23T18:35:54Z</time>
      </trkpt>
      <trkpt lat="62.633411803448" lon="17.987796703245">
        <ele>90.2</ele>
        <time>2017-10-23T18:35:55Z</time>
      </trkpt>
      <trkpt lat="62.633388585585" lon="17.987757056858">
        <ele>90.2</ele>
        <time>2017-10-23T18:35:56Z</time>
      </trkpt>
      <trkpt lat="62.633371318871" lon="17.987717745747">
        <ele>90.4</ele>
        <time>2017-10-23T18:35:57Z</time>
      </trkpt>
      <trkpt lat="62.633349777388" lon="17.987669298365">
        <ele>90.4</ele>
        <time>2017-10-23T18:35:58Z</time>
      </trkpt>
      <trkpt lat="62.633327146258" lon="17.98763870443">
        <ele>90.6</ele>
        <time>2017-10-23T18:35:59Z</time>
      </trkpt>
      <trkpt lat="62.633306778241" lon="17.987602410803">
        <ele>90.8</ele>
        <time>2017-10-23T18:36:00Z</time>
      </trkpt>
      <trkpt lat="62.633288840975" lon="17.987551365032">
        <ele>91</ele>
        <time>2017-10-23T18:36:01Z</time>
      </trkpt>
      <trkpt lat="62.633270987528" lon="17.987499061976">
        <ele>91.2</ele>
        <time>2017-10-23T18:36:02Z</time>
      </trkpt>
      <trkpt lat="62.633251960615" lon="17.987450446956">
        <ele>91.2</ele>
        <time>2017-10-23T18:36:03Z</time>
      </trkpt>
      <trkpt lat="62.633229329485" lon="17.987393366217">
        <ele>91.4</ele>
        <time>2017-10-23T18:36:04Z</time>
      </trkpt>
      <trkpt lat="62.633209967296" lon="17.987329244682">
        <ele>91.2</ele>
        <time>2017-10-23T18:36:05Z</time>
      </trkpt>
      <trkpt lat="62.633194963695" lon="17.987250454822">
        <ele>91.2</ele>
        <time>2017-10-23T18:36:06Z</time>
      </trkpt>
      <trkpt lat="62.63317694261" lon="17.987174850084">
        <ele>91.2</ele>
        <time>2017-10-23T18:36:07Z</time>
      </trkpt>
      <trkpt lat="62.633164034484" lon="17.98709136636">
        <ele>91</ele>
        <time>2017-10-23T18:36:08Z</time>
      </trkpt>
      <trkpt lat="62.633156155498" lon="17.987018862925">
        <ele>90.8</ele>
        <time>2017-10-23T18:36:09Z</time>
      </trkpt>
      <trkpt lat="62.633147019227" lon="17.986938396685">
        <ele>90.4</ele>
        <time>2017-10-23T18:36:10Z</time>
      </trkpt>
      <trkpt lat="62.633141068078" lon="17.986858517178">
        <ele>90.2</ele>
        <time>2017-10-23T18:36:11Z</time>
      </trkpt>
      <trkpt lat="62.633136374214" lon="17.986783499173">
        <ele>89.8</ele>
        <time>2017-10-23T18:36:12Z</time>
      </trkpt>
      <trkpt lat="62.633131009798" lon="17.986710073729">
        <ele>89.4</ele>
        <time>2017-10-23T18:36:13Z</time>
      </trkpt>
      <trkpt lat="62.63312665121" lon="17.986638576122">
        <ele>89</ele>
        <time>2017-10-23T18:36:14Z</time>
      </trkpt>
      <trkpt lat="62.63312497483" lon="17.986573448759">
        <ele>88.8</ele>
        <time>2017-10-23T18:36:15Z</time>
      </trkpt>
      <trkpt lat="62.633124639554" lon="17.986497173469">
        <ele>88.8</ele>
        <time>2017-10-23T18:36:16Z</time>
      </trkpt>
      <trkpt lat="62.633124639554" lon="17.986422071645">
        <ele>88.8</ele>
        <time>2017-10-23T18:36:17Z</time>
      </trkpt>
      <trkpt lat="62.633126902667" lon="17.986341605405">
        <ele>88.8</ele>
        <time>2017-10-23T18:36:18Z</time>
      </trkpt>
      <trkpt lat="62.633128998142" lon="17.986251080885">
        <ele>88.8</ele>
        <time>2017-10-23T18:36:19Z</time>
      </trkpt>
      <trkpt lat="62.633130171608" lon="17.98617103374">
        <ele>88.6</ele>
        <time>2017-10-23T18:36:20Z</time>
      </trkpt>
      <trkpt lat="62.633125896839" lon="17.986077659374">
        <ele>88.6</ele>
        <time>2017-10-23T18:36:21Z</time>
      </trkpt>
      <trkpt lat="62.633119023681" lon="17.985991744899">
        <ele>88.2</ele>
        <time>2017-10-23T18:36:22Z</time>
      </trkpt>
      <trkpt lat="62.633112569618" lon="17.985901890931">
        <ele>87.8</ele>
        <time>2017-10-23T18:36:23Z</time>
      </trkpt>
      <trkpt lat="62.633109635953" lon="17.985819496854">
        <ele>87.6</ele>
        <time>2017-10-23T18:36:24Z</time>
      </trkpt>
      <trkpt lat="62.633108881582" lon="17.985743053926">
        <ele>87.2</ele>
        <time>2017-10-23T18:36:25Z</time>
      </trkpt>
      <trkpt lat="62.633108294849" lon="17.985666024265">
        <ele>87</ele>
        <time>2017-10-23T18:36:26Z</time>
      </trkpt>
      <trkpt lat="62.633109803591" lon="17.985601818911">
        <ele>87</ele>
        <time>2017-10-23T18:36:27Z</time>
      </trkpt>
      <trkpt lat="62.633110557962" lon="17.985522777594">
        <ele>87</ele>
        <time>2017-10-23T18:36:28Z</time>
      </trkpt>
      <trkpt lat="62.633112485799" lon="17.985444825924">
        <ele>86.8</ele>
        <time>2017-10-23T18:36:29Z</time>
      </trkpt>
      <trkpt lat="62.63311407836" lon="17.98536553315">
        <ele>86.8</ele>
        <time>2017-10-23T18:36:30Z</time>
      </trkpt>
      <trkpt lat="62.633117850215" lon="17.985281462693">
        <ele>86.8</ele>
        <time>2017-10-23T18:36:31Z</time>
      </trkpt>
      <trkpt lat="62.633124891011" lon="17.985202840471">
        <ele>86.8</ele>
        <time>2017-10-23T18:36:32Z</time>
      </trkpt>
      <trkpt lat="62.63312329845" lon="17.98516772031">
        <ele>86.6</ele>
        <time>2017-10-23T18:36:33Z</time>
      </trkpt>
      <trkpt lat="62.633133440549" lon="17.985034364281">
        <ele>86.4</ele>
        <time>2017-10-23T18:36:34Z</time>
      </trkpt>
      <trkpt lat="62.633142828277" lon="17.984953478946">
        <ele>86</ele>
        <time>2017-10-23T18:36:35Z</time>
      </trkpt>
      <trkpt lat="62.633150539625" lon="17.984879299131">
        <ele>85.6</ele>
        <time>2017-10-23T18:36:36Z</time>
      </trkpt>
      <trkpt lat="62.633155065851" lon="17.984811321922">
        <ele>85</ele>
        <time>2017-10-23T18:36:37Z</time>
      </trkpt>
      <trkpt lat="62.633165459407" lon="17.984736806831">
        <ele>84.6</ele>
        <time>2017-10-23T18:36:38Z</time>
      </trkpt>
      <trkpt lat="62.63317861899" lon="17.984675283685">
        <ele>84.2</ele>
        <time>2017-10-23T18:36:39Z</time>
      </trkpt>
      <trkpt lat="62.633191862392" lon="17.98460864758">
        <ele>84</ele>
        <time>2017-10-23T18:36:40Z</time>
      </trkpt>
      <trkpt lat="62.633204686699" lon="17.984543436398">
        <ele>84</ele>
        <time>2017-10-23T18:36:41Z</time>
      </trkpt>
      <trkpt lat="62.633217091911" lon="17.984478979587">
        <ele>84</ele>
        <time>2017-10-23T18:36:42Z</time>
      </trkpt>
      <trkpt lat="62.633231257322" lon="17.984417121165">
        <ele>83.8</ele>
        <time>2017-10-23T18:36:43Z</time>
      </trkpt>
      <trkpt lat="62.633245590371" lon="17.984358112589">
        <ele>83.6</ele>
        <time>2017-10-23T18:36:44Z</time>
      </trkpt>
      <trkpt lat="62.633257325031" lon="17.984301367126">
        <ele>83.6</ele>
        <time>2017-10-23T18:36:45Z</time>
      </trkpt>
      <trkpt lat="62.633265036379" lon="17.984229953338">
        <ele>83.6</ele>
        <time>2017-10-23T18:36:46Z</time>
      </trkpt>
      <trkpt lat="62.63327501084" lon="17.98416105412">
        <ele>83.8</ele>
        <time>2017-10-23T18:36:47Z</time>
      </trkpt>
      <trkpt lat="62.633287080776" lon="17.984089975608">
        <ele>83.8</ele>
        <time>2017-10-23T18:36:48Z</time>
      </trkpt>
      <trkpt lat="62.633297558151" lon="17.984017975087">
        <ele>83.8</ele>
        <time>2017-10-23T18:36:49Z</time>
      </trkpt>
      <trkpt lat="62.633304179852" lon="17.98394815386">
        <ele>83.8</ele>
        <time>2017-10-23T18:36:50Z</time>
      </trkpt>
      <trkpt lat="62.633311220648" lon="17.983885457248">
        <ele>83.8</ele>
        <time>2017-10-23T18:36:51Z</time>
      </trkpt>
      <trkpt lat="62.633320356919" lon="17.983822760636">
        <ele>83.8</ele>
        <time>2017-10-23T18:36:52Z</time>
      </trkpt>
      <trkpt lat="62.633331337208" lon="17.983757297997">
        <ele>83.8</ele>
        <time>2017-10-23T18:36:53Z</time>
      </trkpt>
      <trkpt lat="62.633341814583" lon="17.983689907521">
        <ele>84</ele>
        <time>2017-10-23T18:36:54Z</time>
      </trkpt>
      <trkpt lat="62.633351956682" lon="17.983622517045">
        <ele>84</ele>
        <time>2017-10-23T18:36:55Z</time>
      </trkpt>
      <trkpt lat="62.633364026618" lon="17.983559988071">
        <ele>84</ele>
        <time>2017-10-23T18:36:56Z</time>
      </trkpt>
      <trkpt lat="62.633372827613" lon="17.983496704726">
        <ele>84.2</ele>
        <time>2017-10-23T18:36:57Z</time>
      </trkpt>
      <trkpt lat="62.633381544789" lon="17.983428559879">
        <ele>84.2</ele>
        <time>2017-10-23T18:36:58Z</time>
      </trkpt>
      <trkpt lat="62.633390429603" lon="17.983363348697">
        <ele>84.2</ele>
        <time>2017-10-23T18:36:59Z</time>
      </trkpt>
      <trkpt lat="62.633401074616" lon="17.983289671796">
        <ele>84.4</ele>
        <time>2017-10-23T18:37:00Z</time>
      </trkpt>
      <trkpt lat="62.633410965258" lon="17.983220437302">
        <ele>84.2</ele>
        <time>2017-10-23T18:37:01Z</time>
      </trkpt>
      <trkpt lat="62.633421274995" lon="17.983147514772">
        <ele>84.2</ele>
        <time>2017-10-23T18:37:02Z</time>
      </trkpt>
      <trkpt lat="62.633432087646" lon="17.983078783192">
        <ele>84.2</ele>
        <time>2017-10-23T18:37:03Z</time>
      </trkpt>
      <trkpt lat="62.633445833962" lon="17.983011979449">
        <ele>84.2</ele>
        <time>2017-10-23T18:37:04Z</time>
      </trkpt>
      <trkpt lat="62.633455137871" lon="17.982943834602">
        <ele>84.2</ele>
        <time>2017-10-23T18:37:05Z</time>
      </trkpt>
      <trkpt lat="62.633465699065" lon="17.982879210153">
        <ele>84.2</ele>
        <time>2017-10-23T18:37:06Z</time>
      </trkpt>
      <trkpt lat="62.63347785282" lon="17.982819866301">
        <ele>84.2</ele>
        <time>2017-10-23T18:37:07Z</time>
      </trkpt>
      <trkpt lat="62.633490174213" lon="17.982753565472">
        <ele>84.2</ele>
        <time>2017-10-23T18:37:08Z</time>
      </trkpt>
      <trkpt lat="62.633502244149" lon="17.982693802525">
        <ele>84.2</ele>
        <time>2017-10-23T18:37:09Z</time>
      </trkpt>
      <trkpt lat="62.633514146447" lon="17.982635380682">
        <ele>84.2</ele>
        <time>2017-10-23T18:37:10Z</time>
      </trkpt>
      <trkpt lat="62.63352562965" lon="17.982581485065">
        <ele>84.2</ele>
        <time>2017-10-23T18:37:11Z</time>
      </trkpt>
      <trkpt lat="62.633535101197" lon="17.982529601104">
        <ele>84.2</ele>
        <time>2017-10-23T18:37:12Z</time>
      </trkpt>
      <trkpt lat="62.63354574621" lon="17.982469670519">
        <ele>84.4</ele>
        <time>2017-10-23T18:37:13Z</time>
      </trkpt>
      <trkpt lat="62.633559827802" lon="17.982416277816">
        <ele>84.2</ele>
        <time>2017-10-23T18:37:14Z</time>
      </trkpt>
      <trkpt lat="62.633573322661" lon="17.98235978381">
        <ele>84.4</ele>
        <time>2017-10-23T18:37:15Z</time>
      </trkpt>
      <trkpt lat="62.633583967674" lon="17.982295746094">
        <ele>84.4</ele>
        <time>2017-10-23T18:37:16Z</time>
      </trkpt>
      <trkpt lat="62.633592349574" lon="17.982235647871">
        <ele>84.2</ele>
        <time>2017-10-23T18:37:17Z</time>
      </trkpt>
      <trkpt lat="62.633601402026" lon="17.982170771965">
        <ele>84.4</ele>
        <time>2017-10-23T18:37:18Z</time>
      </trkpt>
      <trkpt lat="62.633610119202" lon="17.982101705109">
        <ele>84.2</ele>
        <time>2017-10-23T18:37:19Z</time>
      </trkpt>
      <trkpt lat="62.633618836378" lon="17.982036074832">
        <ele>84.2</ele>
        <time>2017-10-23T18:37:20Z</time>
      </trkpt>
      <trkpt lat="62.633621434767" lon="17.981969690184">
        <ele>84.4</ele>
        <time>2017-10-23T18:37:21Z</time>
      </trkpt>
      <trkpt lat="62.633627134459" lon="17.9818996175">
        <ele>84.4</ele>
        <time>2017-10-23T18:37:22Z</time>
      </trkpt>
      <trkpt lat="62.633638030929" lon="17.981831472653">
        <ele>84.4</ele>
        <time>2017-10-23T18:37:23Z</time>
      </trkpt>
      <trkpt lat="62.633650939055" lon="17.981760394141">
        <ele>84.6</ele>
        <time>2017-10-23T18:37:24Z</time>
      </trkpt>
      <trkpt lat="62.633657728394" lon="17.981686465783">
        <ele>84.6</ele>
        <time>2017-10-23T18:37:25Z</time>
      </trkpt>
      <trkpt lat="62.633663008991" lon="17.981615219633">
        <ele>84.8</ele>
        <time>2017-10-23T18:37:26Z</time>
      </trkpt>
      <trkpt lat="62.633666529389" lon="17.981556713971">
        <ele>84.6</ele>
        <time>2017-10-23T18:37:27Z</time>
      </trkpt>
      <trkpt lat="62.633669630692" lon="17.981481695966">
        <ele>84.6</ele>
        <time>2017-10-23T18:37:28Z</time>
      </trkpt>
      <trkpt lat="62.633681030076" lon="17.981406510323">
        <ele>84.6</ele>
        <time>2017-10-23T18:37:29Z</time>
      </trkpt>
      <trkpt lat="62.633695614582" lon="17.981335264173">
        <ele>84.6</ele>
        <time>2017-10-23T18:37:30Z</time>
      </trkpt>
      <trkpt lat="62.63370667869" lon="17.981261922548">
        <ele>84.6</ele>
        <time>2017-10-23T18:37:31Z</time>
      </trkpt>
      <trkpt lat="62.633717072246" lon="17.98119050876">
        <ele>84.6</ele>
        <time>2017-10-23T18:37:32Z</time>
      </trkpt>
      <trkpt lat="62.633730818562" lon="17.981128817976">
        <ele>84.8</ele>
        <time>2017-10-23T18:37:33Z</time>
      </trkpt>
      <trkpt lat="62.633753365873" lon="17.981069138848">
        <ele>84.6</ele>
        <time>2017-10-23T18:37:34Z</time>
      </trkpt>
      <trkpt lat="62.633774488261" lon="17.981014824136">
        <ele>84.6</ele>
        <time>2017-10-23T18:37:35Z</time>
      </trkpt>
      <trkpt lat="62.633794018088" lon="17.980955228827">
        <ele>84.6</ele>
        <time>2017-10-23T18:37:36Z</time>
      </trkpt>
      <trkpt lat="62.633813212639" lon="17.980904434513">
        <ele>84.6</ele>
        <time>2017-10-23T18:37:37Z</time>
      </trkpt>
      <trkpt lat="62.633836765778" lon="17.980849197792">
        <ele>84.8</ele>
        <time>2017-10-23T18:37:38Z</time>
      </trkpt>
      <trkpt lat="62.633855373596" lon="17.980794296347">
        <ele>85</ele>
        <time>2017-10-23T18:37:39Z</time>
      </trkpt>
      <trkpt lat="62.633874819604" lon="17.980738640531">
        <ele>85.2</ele>
        <time>2017-10-23T18:37:40Z</time>
      </trkpt>
      <trkpt lat="62.633892505413" lon="17.980683655267">
        <ele>85.4</ele>
        <time>2017-10-23T18:37:41Z</time>
      </trkpt>
      <trkpt lat="62.63390868248" lon="17.980625820157">
        <ele>85.6</ele>
        <time>2017-10-23T18:37:42Z</time>
      </trkpt>
      <trkpt lat="62.633925362461" lon="17.980563794097">
        <ele>85.6</ele>
        <time>2017-10-23T18:37:43Z</time>
      </trkpt>
      <trkpt lat="62.633944808469" lon="17.980497660906">
        <ele>85.8</ele>
        <time>2017-10-23T18:37:44Z</time>
      </trkpt>
      <trkpt lat="62.633966182314" lon="17.980438065597">
        <ele>86</ele>
        <time>2017-10-23T18:37:45Z</time>
      </trkpt>
      <trkpt lat="62.633987807616" lon="17.980376710089">
        <ele>85.8</ele>
        <time>2017-10-23T18:37:46Z</time>
      </trkpt>
      <trkpt lat="62.634000212828" lon="17.980318204427">
        <ele>86</ele>
        <time>2017-10-23T18:37:47Z</time>
      </trkpt>
      <trkpt lat="62.634013540049" lon="17.980265230819">
        <ele>86</ele>
        <time>2017-10-23T18:37:48Z</time>
      </trkpt>
      <trkpt lat="62.634033069876" lon="17.980220303835">
        <ele>86</ele>
        <time>2017-10-23T18:37:49Z</time>
      </trkpt>
      <trkpt lat="62.634054611359" lon="17.980174287204">
        <ele>86</ele>
        <time>2017-10-23T18:37:50Z</time>
      </trkpt>
      <trkpt lat="62.63407380591" lon="17.980126678012">
        <ele>86.2</ele>
        <time>2017-10-23T18:37:51Z</time>
      </trkpt>
      <trkpt lat="62.634095431212" lon="17.98007403968">
        <ele>86.2</ele>
        <time>2017-10-23T18:37:52Z</time>
      </trkpt>
      <trkpt lat="62.634117559428" lon="17.980022407176">
        <ele>86.2</ele>
        <time>2017-10-23T18:37:53Z</time>
      </trkpt>
      <trkpt lat="62.634141112567" lon="17.979983682798">
        <ele>86.2</ele>
        <time>2017-10-23T18:37:54Z</time>
      </trkpt>
      <trkpt lat="62.634163995154" lon="17.979937247072">
        <ele>86.2</ele>
        <time>2017-10-23T18:37:55Z</time>
      </trkpt>
      <trkpt lat="62.634184614628" lon="17.979881004523">
        <ele>86.2</ele>
        <time>2017-10-23T18:37:56Z</time>
      </trkpt>
      <trkpt lat="62.634201462247" lon="17.97982677363">
        <ele>86</ele>
        <time>2017-10-23T18:37:57Z</time>
      </trkpt>
      <trkpt lat="62.634218142228" lon="17.979761143353">
        <ele>86</ele>
        <time>2017-10-23T18:37:58Z</time>
      </trkpt>
      <trkpt lat="62.634235325123" lon="17.9797035597">
        <ele>86</ele>
        <time>2017-10-23T18:37:59Z</time>
      </trkpt>
      <trkpt lat="62.634248233249" lon="17.979638013242">
        <ele>85.8</ele>
        <time>2017-10-23T18:38:00Z</time>
      </trkpt>
      <trkpt lat="62.63426072228" lon="17.979569952214">
        <ele>85.8</ele>
        <time>2017-10-23T18:38:01Z</time>
      </trkpt>
      <trkpt lat="62.634275222967" lon="17.979506501231">
        <ele>85.8</ele>
        <time>2017-10-23T18:38:02Z</time>
      </trkpt>
      <trkpt lat="62.634289388378" lon="17.97944120623">
        <ele>85.8</ele>
        <time>2017-10-23T18:38:03Z</time>
      </trkpt>
      <trkpt lat="62.63430514635" lon="17.979376330324">
        <ele>85.8</ele>
        <time>2017-10-23T18:38:04Z</time>
      </trkpt>
      <trkpt lat="62.634320988141" lon="17.979318495214">
        <ele>85.8</ele>
        <time>2017-10-23T18:38:05Z</time>
      </trkpt>
      <trkpt lat="62.634335572647" lon="17.979261414475">
        <ele>85.8</ele>
        <time>2017-10-23T18:38:06Z</time>
      </trkpt>
      <trkpt lat="62.63434873223" lon="17.979206010116">
        <ele>86</ele>
        <time>2017-10-23T18:38:07Z</time>
      </trkpt>
      <trkpt lat="62.634364490202" lon="17.979140463658">
        <ele>85.8</ele>
        <time>2017-10-23T18:38:08Z</time>
      </trkpt>
      <trkpt lat="62.63437890707" lon="17.979082880005">
        <ele>86</ele>
        <time>2017-10-23T18:38:09Z</time>
      </trkpt>
      <trkpt lat="62.634393323938" lon="17.979016160081">
        <ele>85.8</ele>
        <time>2017-10-23T18:38:10Z</time>
      </trkpt>
      <trkpt lat="62.634408746634" lon="17.978944243379">
        <ele>86</ele>
        <time>2017-10-23T18:38:11Z</time>
      </trkpt>
      <trkpt lat="62.634424588425" lon="17.978882804052">
        <ele>86</ele>
        <time>2017-10-23T18:38:12Z</time>
      </trkpt>
      <trkpt lat="62.634454260351" lon="17.97878238889">
        <ele>86</ele>
        <time>2017-10-23T18:38:14Z</time>
      </trkpt>
      <trkpt lat="62.634466833201" lon="17.978762523787">
        <ele>86</ele>
        <time>2017-10-23T18:38:15Z</time>
      </trkpt>
      <trkpt lat="62.634478148766" lon="17.978745759987">
        <ele>86</ele>
        <time>2017-10-23T18:38:16Z</time>
      </trkpt>
      <trkpt lat="62.634486949761" lon="17.978732768042">
        <ele>86</ele>
        <time>2017-10-23T18:38:17Z</time>
      </trkpt>
      <trkpt lat="62.634486698304" lon="17.978731594576">
        <ele>86</ele>
        <time>2017-10-23T18:38:18Z</time>
      </trkpt>
      <trkpt lat="62.634486949761" lon="17.978736372259">
        <ele>86</ele>
        <time>2017-10-23T18:38:19Z</time>
      </trkpt>
      <trkpt lat="62.634487201218" lon="17.978735534069">
        <ele>86</ele>
        <time>2017-10-23T18:38:20Z</time>
      </trkpt>
      <trkpt lat="62.634771934361" lon="17.97886620789">
        <ele>85.6</ele>
        <time>2017-10-23T18:40:20Z</time>
      </trkpt>
      <trkpt lat="62.6347954875" lon="17.978879451292">
        <ele>85.6</ele>
        <time>2017-10-23T18:40:21Z</time>
      </trkpt>
      <trkpt lat="62.634825997616" lon="17.978889593391">
        <ele>85.6</ele>
        <time>2017-10-23T18:40:22Z</time>
      </trkpt>
      <trkpt lat="62.634849802212" lon="17.97889805911">
        <ele>85.4</ele>
        <time>2017-10-23T18:40:23Z</time>
      </trkpt>
      <trkpt lat="62.634878384491" lon="17.978914487634">
        <ele>85.2</ele>
        <time>2017-10-23T18:40:24Z</time>
      </trkpt>
      <trkpt lat="62.634904284562" lon="17.978927228122">
        <ele>85.2</ele>
        <time>2017-10-23T18:40:25Z</time>
      </trkpt>
      <trkpt lat="62.634932615384" lon="17.978935945298">
        <ele>85.2</ele>
        <time>2017-10-23T18:40:26Z</time>
      </trkpt>
      <trkpt lat="62.634955665609" lon="17.978947596139">
        <ele>85</ele>
        <time>2017-10-23T18:40:27Z</time>
      </trkpt>
      <trkpt lat="62.634977039454" lon="17.978958744066">
        <ele>85</ele>
        <time>2017-10-23T18:40:28Z</time>
      </trkpt>
      <trkpt lat="62.63499916767" lon="17.978966623052">
        <ele>85</ele>
        <time>2017-10-23T18:40:29Z</time>
      </trkpt>
      <trkpt lat="62.635023139904" lon="17.978978190074">
        <ele>85</ele>
        <time>2017-10-23T18:40:30Z</time>
      </trkpt>
      <trkpt lat="62.635048369423" lon="17.978992606942">
        <ele>84.8</ele>
        <time>2017-10-23T18:40:31Z</time>
      </trkpt>
      <trkpt lat="62.635072593114" lon="17.979002246127">
        <ele>84.8</ele>
        <time>2017-10-23T18:40:32Z</time>
      </trkpt>
      <trkpt lat="62.635097990271" lon="17.979011633855">
        <ele>84.8</ele>
        <time>2017-10-23T18:40:33Z</time>
      </trkpt>
      <trkpt lat="62.635124728532" lon="17.979024374343">
        <ele>84.8</ele>
        <time>2017-10-23T18:40:34Z</time>
      </trkpt>
      <trkpt lat="62.635151131517" lon="17.979030074035">
        <ele>84.8</ele>
        <time>2017-10-23T18:40:35Z</time>
      </trkpt>
      <trkpt lat="62.635179210882" lon="17.979038958849">
        <ele>84.8</ele>
        <time>2017-10-23T18:40:36Z</time>
      </trkpt>
      <trkpt lat="62.635206452057" lon="17.979051112604">
        <ele>84.6</ele>
        <time>2017-10-23T18:40:37Z</time>
      </trkpt>
      <trkpt lat="62.6352313463" lon="17.979055387373">
        <ele>84.6</ele>
        <time>2017-10-23T18:40:38Z</time>
      </trkpt>
      <trkpt lat="62.63525733019" lon="17.979066451481">
        <ele>84.6</ele>
        <time>2017-10-23T18:40:39Z</time>
      </trkpt>
      <trkpt lat="62.635281470062" lon="17.97906402073">
        <ele>84.4</ele>
        <time>2017-10-23T18:40:40Z</time>
      </trkpt>
      <trkpt lat="62.635304520287" lon="17.979059410685">
        <ele>84.4</ele>
        <time>2017-10-23T18:40:41Z</time>
      </trkpt>
      <trkpt lat="62.635329665987" lon="17.979060919427">
        <ele>84.2</ele>
        <time>2017-10-23T18:40:42Z</time>
      </trkpt>
      <trkpt lat="62.635353638221" lon="17.979057399029">
        <ele>84.2</ele>
        <time>2017-10-23T18:40:43Z</time>
      </trkpt>
      <trkpt lat="62.635377358998" lon="17.979055135916">
        <ele>84</ele>
        <time>2017-10-23T18:40:44Z</time>
      </trkpt>
      <trkpt lat="62.635404935449" lon="17.979054968278">
        <ele>84</ele>
        <time>2017-10-23T18:40:45Z</time>
      </trkpt>
      <trkpt lat="62.635430667882" lon="17.979061589979">
        <ele>83.8</ele>
        <time>2017-10-23T18:40:46Z</time>
      </trkpt>
      <trkpt lat="62.635455897401" lon="17.979062931083">
        <ele>83.8</ele>
        <time>2017-10-23T18:40:47Z</time>
      </trkpt>
      <trkpt lat="62.6354744214" lon="17.979046334921">
        <ele>83.6</ele>
        <time>2017-10-23T18:40:48Z</time>
      </trkpt>
      <trkpt lat="62.635496633435" lon="17.979034432623">
        <ele>83.4</ele>
        <time>2017-10-23T18:40:49Z</time>
      </trkpt>
      <trkpt lat="62.635514738339" lon="17.979027559465">
        <ele>83.2</ele>
        <time>2017-10-23T18:40:50Z</time>
      </trkpt>
      <trkpt lat="62.635540219315" lon="17.979024206705">
        <ele>83.2</ele>
        <time>2017-10-23T18:40:51Z</time>
      </trkpt>
      <trkpt lat="62.6355666223" lon="17.97902043485">
        <ele>83</ele>
        <time>2017-10-23T18:40:52Z</time>
      </trkpt>
      <trkpt lat="62.635595204579" lon="17.979010041294">
        <ele>82.8</ele>
        <time>2017-10-23T18:40:53Z</time>
      </trkpt>
      <trkpt lat="62.63562864836" lon="17.978998055177">
        <ele>82.6</ele>
        <time>2017-10-23T18:40:54Z</time>
      </trkpt>
      <trkpt lat="62.635654129336" lon="17.978988499811">
        <ele>82.4</ele>
        <time>2017-10-23T18:40:55Z</time>
      </trkpt>
      <trkpt lat="62.635679610312" lon="17.978994031865">
        <ele>82.2</ele>
        <time>2017-10-23T18:40:56Z</time>
      </trkpt>
      <trkpt lat="62.635705426564" lon="17.9789827163">
        <ele>82.2</ele>
        <time>2017-10-23T18:40:57Z</time>
      </trkpt>
      <trkpt lat="62.635729063522" lon="17.978979698816">
        <ele>82</ele>
        <time>2017-10-23T18:40:58Z</time>
      </trkpt>
      <trkpt lat="62.635755466507" lon="17.978972993296">
        <ele>82</ele>
        <time>2017-10-23T18:40:59Z</time>
      </trkpt>
      <trkpt lat="62.635782288587" lon="17.978970897821">
        <ele>81.8</ele>
        <time>2017-10-23T18:41:00Z</time>
      </trkpt>
      <trkpt lat="62.635807434287" lon="17.978976429875">
        <ele>81.8</ele>
        <time>2017-10-23T18:41:01Z</time>
      </trkpt>
      <trkpt lat="62.635831406521" lon="17.978980956101">
        <ele>81.8</ele>
        <time>2017-10-23T18:41:02Z</time>
      </trkpt>
      <trkpt lat="62.635857558049" lon="17.978988667449">
        <ele>81.6</ele>
        <time>2017-10-23T18:41:03Z</time>
      </trkpt>
      <trkpt lat="62.635884966862" lon="17.978996881711">
        <ele>81.6</ele>
        <time>2017-10-23T18:41:04Z</time>
      </trkpt>
      <trkpt lat="62.635909609648" lon="17.979002665222">
        <ele>81.6</ele>
        <time>2017-10-23T18:41:05Z</time>
      </trkpt>
      <trkpt lat="62.635934839167" lon="17.979014399882">
        <ele>81.6</ele>
        <time>2017-10-23T18:41:06Z</time>
      </trkpt>
      <trkpt lat="62.635955793917" lon="17.979032420967">
        <ele>81.6</ele>
        <time>2017-10-23T18:41:07Z</time>
      </trkpt>
      <trkpt lat="62.635973060631" lon="17.979051028785">
        <ele>81.6</ele>
        <time>2017-10-23T18:41:08Z</time>
      </trkpt>
      <trkpt lat="62.635993428648" lon="17.979085729851">
        <ele>81.6</ele>
        <time>2017-10-23T18:41:09Z</time>
      </trkpt>
      <trkpt lat="62.636006085317" lon="17.979135769794">
        <ele>81.8</ele>
        <time>2017-10-23T18:41:10Z</time>
      </trkpt>
      <trkpt lat="62.63601337757" lon="17.979192599076">
        <ele>81.8</ele>
        <time>2017-10-23T18:41:11Z</time>
      </trkpt>
      <trkpt lat="62.636019831633" lon="17.979236436413">
        <ele>81.8</ele>
        <time>2017-10-23T18:41:12Z</time>
      </trkpt>
      <trkpt lat="62.636018658167" lon="17.979281866311">
        <ele>81.8</ele>
        <time>2017-10-23T18:41:13Z</time>
      </trkpt>
      <trkpt lat="62.636017065606" lon="17.979330816607">
        <ele>81.8</ele>
        <time>2017-10-23T18:41:14Z</time>
      </trkpt>
      <trkpt lat="62.63601840671" lon="17.979375492134">
        <ele>81.6</ele>
        <time>2017-10-23T18:41:15Z</time>
      </trkpt>
      <trkpt lat="62.636016814149" lon="17.979424274792">
        <ele>81.6</ele>
        <time>2017-10-23T18:41:16Z</time>
      </trkpt>
      <trkpt lat="62.636014299579" lon="17.979478338047">
        <ele>81.4</ele>
        <time>2017-10-23T18:41:17Z</time>
      </trkpt>
      <trkpt lat="62.636013042294" lon="17.979530473465">
        <ele>81.2</ele>
        <time>2017-10-23T18:41:18Z</time>
      </trkpt>
      <trkpt lat="62.636011785009" lon="17.979591996611">
        <ele>81</ele>
        <time>2017-10-23T18:41:19Z</time>
      </trkpt>
      <trkpt lat="62.636011868828" lon="17.979650502273">
        <ele>80.6</ele>
        <time>2017-10-23T18:41:20Z</time>
      </trkpt>
      <trkpt lat="62.636010276267" lon="17.979712276876">
        <ele>80.2</ele>
        <time>2017-10-23T18:41:21Z</time>
      </trkpt>
      <trkpt lat="62.636006336774" lon="17.979763490285">
        <ele>80</ele>
        <time>2017-10-23T18:41:22Z</time>
      </trkpt>
      <trkpt lat="62.636004492756" lon="17.979818140273">
        <ele>79.6</ele>
        <time>2017-10-23T18:41:23Z</time>
      </trkpt>
      <trkpt lat="62.636008851344" lon="17.979881423618">
        <ele>79.2</ele>
        <time>2017-10-23T18:41:24Z</time>
      </trkpt>
      <trkpt lat="62.636013629027" lon="17.979941438022">
        <ele>79</ele>
        <time>2017-10-23T18:41:25Z</time>
      </trkpt>
      <trkpt lat="62.636017233244" lon="17.98000446991">
        <ele>78.6</ele>
        <time>2017-10-23T18:41:26Z</time>
      </trkpt>
      <trkpt lat="62.636020166909" lon="17.980067166522">
        <ele>78.2</ele>
        <time>2017-10-23T18:41:27Z</time>
      </trkpt>
      <trkpt lat="62.636027040067" lon="17.980123241433">
        <ele>78</ele>
        <time>2017-10-23T18:41:28Z</time>
      </trkpt>
      <trkpt lat="62.636044055324" lon="17.980183591113">
        <ele>77.6</ele>
        <time>2017-10-23T18:41:29Z</time>
      </trkpt>
      <trkpt lat="62.636063166056" lon="17.980254166711">
        <ele>77.4</ele>
        <time>2017-10-23T18:41:30Z</time>
      </trkpt>
      <trkpt lat="62.636076409458" lon="17.980311918002">
        <ele>77.2</ele>
        <time>2017-10-23T18:41:31Z</time>
      </trkpt>
      <trkpt lat="62.636088563213" lon="17.980375033709">
        <ele>76.8</ele>
        <time>2017-10-23T18:41:32Z</time>
      </trkpt>
      <trkpt lat="62.636096526018" lon="17.980430018973">
        <ele>76.6</ele>
        <time>2017-10-23T18:41:33Z</time>
      </trkpt>
      <trkpt lat="62.636111697257" lon="17.980481148563">
        <ele>76.6</ele>
        <time>2017-10-23T18:41:34Z</time>
      </trkpt>
      <trkpt lat="62.636118654234" lon="17.980538229302">
        <ele>76.4</ele>
        <time>2017-10-23T18:41:35Z</time>
      </trkpt>
      <trkpt lat="62.636131143265" lon="17.980606960882">
        <ele>76.4</ele>
        <time>2017-10-23T18:41:36Z</time>
      </trkpt>
      <trkpt lat="62.636143548477" lon="17.980662616698">
        <ele>76.4</ele>
        <time>2017-10-23T18:41:37Z</time>
      </trkpt>
      <trkpt lat="62.636152181834" lon="17.980709555338">
        <ele>76.4</ele>
        <time>2017-10-23T18:41:38Z</time>
      </trkpt>
      <trkpt lat="62.636163078304" lon="17.98077392833">
        <ele>76.2</ele>
        <time>2017-10-23T18:41:39Z</time>
      </trkpt>
      <trkpt lat="62.63617095729" lon="17.980828243042">
        <ele>76</ele>
        <time>2017-10-23T18:41:40Z</time>
      </trkpt>
      <trkpt lat="62.636180093561" lon="17.980878785899">
        <ele>76</ele>
        <time>2017-10-23T18:41:41Z</time>
      </trkpt>
      <trkpt lat="62.636190570936" lon="17.980942907434">
        <ele>75.8</ele>
        <time>2017-10-23T18:41:42Z</time>
      </trkpt>
      <trkpt lat="62.636197024999" lon="17.980997054508">
        <ele>75.8</ele>
        <time>2017-10-23T18:41:43Z</time>
      </trkpt>
      <trkpt lat="62.636209011116" lon="17.981055057256">
        <ele>75.6</ele>
        <time>2017-10-23T18:41:44Z</time>
      </trkpt>
      <trkpt lat="62.636215465179" lon="17.981129404709">
        <ele>75.6</ele>
        <time>2017-10-23T18:41:45Z</time>
      </trkpt>
      <trkpt lat="62.636220326681" lon="17.981169889286">
        <ele>75.4</ele>
        <time>2017-10-23T18:41:46Z</time>
      </trkpt>
      <trkpt lat="62.636224266174" lon="17.981210457682">
        <ele>75.4</ele>
        <time>2017-10-23T18:41:47Z</time>
      </trkpt>
      <trkpt lat="62.636227702753" lon="17.981268879525">
        <ele>75.2</ele>
        <time>2017-10-23T18:41:48Z</time>
      </trkpt>
      <trkpt lat="62.636237425757" lon="17.981330235033">
        <ele>75.2</ele>
        <time>2017-10-23T18:41:49Z</time>
      </trkpt>
      <trkpt lat="62.63624220344" lon="17.981384046831">
        <ele>75.2</ele>
        <time>2017-10-23T18:41:50Z</time>
      </trkpt>
      <trkpt lat="62.63625058534" lon="17.981440792294">
        <ele>75.2</ele>
        <time>2017-10-23T18:41:51Z</time>
      </trkpt>
      <trkpt lat="62.636258715783" lon="17.981499046499">
        <ele>75.2</ele>
        <time>2017-10-23T18:41:52Z</time>
      </trkpt>
      <trkpt lat="62.636263661104" lon="17.981542800017">
        <ele>75.2</ele>
        <time>2017-10-23T18:41:53Z</time>
      </trkpt>
      <trkpt lat="62.636265337484" lon="17.981608095018">
        <ele>75.2</ele>
        <time>2017-10-23T18:41:54Z</time>
      </trkpt>
      <trkpt lat="62.636268103511" lon="17.981671043087">
        <ele>75</ele>
        <time>2017-10-23T18:41:55Z</time>
      </trkpt>
      <trkpt lat="62.63627656923" lon="17.981728459102">
        <ele>75</ele>
        <time>2017-10-23T18:41:56Z</time>
      </trkpt>
      <trkpt lat="62.636276988325" lon="17.981789479334">
        <ele>74.8</ele>
        <time>2017-10-23T18:41:57Z</time>
      </trkpt>
      <trkpt lat="62.636276988325" lon="17.981846895349">
        <ele>74.8</ele>
        <time>2017-10-23T18:41:58Z</time>
      </trkpt>
      <trkpt lat="62.636275479583" lon="17.981908753771">
        <ele>74.8</ele>
        <time>2017-10-23T18:41:59Z</time>
      </trkpt>
      <trkpt lat="62.636273132651" lon="17.981953932212">
        <ele>74.8</ele>
        <time>2017-10-23T18:42:00Z</time>
      </trkpt>
      <trkpt lat="62.636263912561" lon="17.982015036263">
        <ele>74.6</ele>
        <time>2017-10-23T18:42:01Z</time>
      </trkpt>
      <trkpt lat="62.636269696072" lon="17.98207982835">
        <ele>74.6</ele>
        <time>2017-10-23T18:42:02Z</time>
      </trkpt>
      <trkpt lat="62.636271707728" lon="17.982137914917">
        <ele>74.6</ele>
        <time>2017-10-23T18:42:03Z</time>
      </trkpt>
      <trkpt lat="62.636271707728" lon="17.982201701176">
        <ele>74.6</ele>
        <time>2017-10-23T18:42:04Z</time>
      </trkpt>
      <trkpt lat="62.636275060488" lon="17.982255932069">
        <ele>74.6</ele>
        <time>2017-10-23T18:42:05Z</time>
      </trkpt>
      <trkpt lat="62.636271959185" lon="17.982326088572">
        <ele>74.6</ele>
        <time>2017-10-23T18:42:06Z</time>
      </trkpt>
      <trkpt lat="62.636269360796" lon="17.982383169311">
        <ele>74.8</ele>
        <time>2017-10-23T18:42:07Z</time>
      </trkpt>
      <trkpt lat="62.636269612253" lon="17.982442261706">
        <ele>74.8</ele>
        <time>2017-10-23T18:42:08Z</time>
      </trkpt>
      <trkpt lat="62.636265840398" lon="17.982513843132">
        <ele>74.8</ele>
        <time>2017-10-23T18:42:09Z</time>
      </trkpt>
      <trkpt lat="62.636265002208" lon="17.982568828396">
        <ele>74.8</ele>
        <time>2017-10-23T18:42:10Z</time>
      </trkpt>
      <trkpt lat="62.636264499294" lon="17.982620377081">
        <ele>74.8</ele>
        <time>2017-10-23T18:42:11Z</time>
      </trkpt>
      <trkpt lat="62.63626567276" lon="17.982687683738">
        <ele>74.8</ele>
        <time>2017-10-23T18:42:12Z</time>
      </trkpt>
      <trkpt lat="62.636264499294" lon="17.982742920459">
        <ele>74.8</ele>
        <time>2017-10-23T18:42:13Z</time>
      </trkpt>
      <trkpt lat="62.636259553973" lon="17.982808550736">
        <ele>75</ele>
        <time>2017-10-23T18:42:14Z</time>
      </trkpt>
      <trkpt lat="62.636250920616" lon="17.982866469665">
        <ele>75</ele>
        <time>2017-10-23T18:42:15Z</time>
      </trkpt>
      <trkpt lat="62.636239772689" lon="17.982928579544">
        <ele>75</ele>
        <time>2017-10-23T18:42:16Z</time>
      </trkpt>
      <trkpt lat="62.636235162644" lon="17.982998233133">
        <ele>75</ele>
        <time>2017-10-23T18:42:17Z</time>
      </trkpt>
      <trkpt lat="62.636233402445" lon="17.983060259193">
        <ele>75</ele>
        <time>2017-10-23T18:42:18Z</time>
      </trkpt>
      <trkpt lat="62.636232815712" lon="17.983132175895">
        <ele>75</ele>
        <time>2017-10-23T18:42:19Z</time>
      </trkpt>
      <trkpt lat="62.636231474608" lon="17.983191855023">
        <ele>75</ele>
        <time>2017-10-23T18:42:20Z</time>
      </trkpt>
      <trkpt lat="62.636236000834" lon="17.983255725101">
        <ele>74.8</ele>
        <time>2017-10-23T18:42:21Z</time>
      </trkpt>
      <trkpt lat="62.636242287259" lon="17.983313895487">
        <ele>74.8</ele>
        <time>2017-10-23T18:42:22Z</time>
      </trkpt>
      <trkpt lat="62.636238766861" lon="17.983378100841">
        <ele>74.8</ele>
        <time>2017-10-23T18:42:23Z</time>
      </trkpt>
      <trkpt lat="62.63623298335" lon="17.983430320078">
        <ele>74.8</ele>
        <time>2017-10-23T18:42:24Z</time>
      </trkpt>
      <trkpt lat="62.636238180128" lon="17.983480862935">
        <ele>74.8</ele>
        <time>2017-10-23T18:42:25Z</time>
      </trkpt>
      <trkpt lat="62.636237258119" lon="17.983530148507">
        <ele>75</ele>
        <time>2017-10-23T18:42:26Z</time>
      </trkpt>
      <trkpt lat="62.636230720237" lon="17.983573902025">
        <ele>75</ele>
        <time>2017-10-23T18:42:27Z</time>
      </trkpt>
      <trkpt lat="62.636222673613" lon="17.98362461252">
        <ele>75.2</ele>
        <time>2017-10-23T18:42:28Z</time>
      </trkpt>
      <trkpt lat="62.636214375532" lon="17.983686387123">
        <ele>75.2</ele>
        <time>2017-10-23T18:42:29Z</time>
      </trkpt>
      <trkpt lat="62.636205742175" lon="17.98373860636">
        <ele>75.4</ele>
        <time>2017-10-23T18:42:30Z</time>
      </trkpt>
      <trkpt lat="62.636194845705" lon="17.983784874448">
        <ele>75.6</ele>
        <time>2017-10-23T18:42:31Z</time>
      </trkpt>
      <trkpt lat="62.63619107385" lon="17.983838015694">
        <ele>75.6</ele>
        <time>2017-10-23T18:42:32Z</time>
      </trkpt>
      <trkpt lat="62.636184284511" lon="17.983888390913">
        <ele>75.8</ele>
        <time>2017-10-23T18:42:33Z</time>
      </trkpt>
      <trkpt lat="62.636179087733" lon="17.983942789444">
        <ele>76</ele>
        <time>2017-10-23T18:42:34Z</time>
      </trkpt>
      <trkpt lat="62.636171124928" lon="17.983994589586">
        <ele>76</ele>
        <time>2017-10-23T18:42:35Z</time>
      </trkpt>
      <trkpt lat="62.636164419408" lon="17.984046557366">
        <ele>76</ele>
        <time>2017-10-23T18:42:36Z</time>
      </trkpt>
      <trkpt lat="62.636163245942" lon="17.984095926757">
        <ele>76.2</ele>
        <time>2017-10-23T18:42:37Z</time>
      </trkpt>
      <trkpt lat="62.636157797707" lon="17.984149235641">
        <ele>76.2</ele>
        <time>2017-10-23T18:42:38Z</time>
      </trkpt>
      <trkpt lat="62.636152349472" lon="17.984204053267">
        <ele>76.4</ele>
        <time>2017-10-23T18:42:39Z</time>
      </trkpt>
      <trkpt lat="62.636151595101" lon="17.984258619436">
        <ele>76.4</ele>
        <time>2017-10-23T18:42:40Z</time>
      </trkpt>
      <trkpt lat="62.6361449734" lon="17.98430689918">
        <ele>76.6</ele>
        <time>2017-10-23T18:42:41Z</time>
      </trkpt>
      <trkpt lat="62.636144219029" lon="17.98435383782">
        <ele>76.6</ele>
        <time>2017-10-23T18:42:42Z</time>
      </trkpt>
      <trkpt lat="62.636140866269" lon="17.984410583283">
        <ele>76.6</ele>
        <time>2017-10-23T18:42:43Z</time>
      </trkpt>
      <trkpt lat="62.636139273708" lon="17.984483170537">
        <ele>76.6</ele>
        <time>2017-10-23T18:42:44Z</time>
      </trkpt>
      <trkpt lat="62.636143883753" lon="17.984541173285">
        <ele>76.8</ele>
        <time>2017-10-23T18:42:45Z</time>
      </trkpt>
      <trkpt lat="62.636138686975" lon="17.984610659236">
        <ele>76.8</ele>
        <time>2017-10-23T18:42:46Z</time>
      </trkpt>
      <trkpt lat="62.636138770794" lon="17.984671930925">
        <ele>76.8</ele>
        <time>2017-10-23T18:42:47Z</time>
      </trkpt>
      <trkpt lat="62.63613742969" lon="17.98471761228">
        <ele>77</ele>
        <time>2017-10-23T18:42:48Z</time>
      </trkpt>
      <trkpt lat="62.636137597328" lon="17.984779219245">
        <ele>77</ele>
        <time>2017-10-23T18:42:49Z</time>
      </trkpt>
      <trkpt lat="62.63613491512" lon="17.984839904201">
        <ele>77</ele>
        <time>2017-10-23T18:42:50Z</time>
      </trkpt>
      <trkpt lat="62.636132316731" lon="17.98489530856">
        <ele>77.2</ele>
        <time>2017-10-23T18:42:51Z</time>
      </trkpt>
      <trkpt lat="62.636123515736" lon="17.984957502258">
        <ele>77.2</ele>
        <time>2017-10-23T18:42:52Z</time>
      </trkpt>
      <trkpt lat="62.636115972026" lon="17.985020031232">
        <ele>77.4</ele>
        <time>2017-10-23T18:42:53Z</time>
      </trkpt>
      <trkpt lat="62.636111361981" lon="17.985070825546">
        <ele>77.6</ele>
        <time>2017-10-23T18:42:54Z</time>
      </trkpt>
      <trkpt lat="62.636110104696" lon="17.985118099462">
        <ele>77.8</ele>
        <time>2017-10-23T18:42:55Z</time>
      </trkpt>
      <trkpt lat="62.636112703085" lon="17.985181466626">
        <ele>78</ele>
        <time>2017-10-23T18:42:56Z</time>
      </trkpt>
      <trkpt lat="62.636116642578" lon="17.985231255112">
        <ele>78</ele>
        <time>2017-10-23T18:42:57Z</time>
      </trkpt>
      <trkpt lat="62.636109601782" lon="17.985295879561">
        <ele>78</ele>
        <time>2017-10-23T18:42:58Z</time>
      </trkpt>
      <trkpt lat="62.636102393348" lon="17.985346841513">
        <ele>78</ele>
        <time>2017-10-23T18:42:59Z</time>
      </trkpt>
      <trkpt lat="62.636091413059" lon="17.985408616116">
        <ele>78</ele>
        <time>2017-10-23T18:43:00Z</time>
      </trkpt>
      <trkpt lat="62.636086635376" lon="17.985465613036">
        <ele>78</ele>
        <time>2017-10-23T18:43:01Z</time>
      </trkpt>
      <trkpt lat="62.636078169657" lon="17.98551054002">
        <ele>78</ele>
        <time>2017-10-23T18:43:02Z</time>
      </trkpt>
      <trkpt lat="62.636072637603" lon="17.98554155305">
        <ele>78</ele>
        <time>2017-10-23T18:43:03Z</time>
      </trkpt>
      <trkpt lat="62.636066267359" lon="17.985574410098">
        <ele>78.2</ele>
        <time>2017-10-23T18:43:04Z</time>
      </trkpt>
      <trkpt lat="62.636057047269" lon="17.98561363739">
        <ele>78.2</ele>
        <time>2017-10-23T18:43:05Z</time>
      </trkpt>
      <trkpt lat="62.636040115831" lon="17.985651858854">
        <ele>78.4</ele>
        <time>2017-10-23T18:43:06Z</time>
      </trkpt>
      <trkpt lat="62.636031733931" lon="17.985690499413">
        <ele>78.6</ele>
        <time>2017-10-23T18:43:07Z</time>
      </trkpt>
      <trkpt lat="62.636016143597" lon="17.985707933765">
        <ele>78.6</ele>
        <time>2017-10-23T18:43:08Z</time>
      </trkpt>
      <trkpt lat="62.636019412538" lon="17.985711454163">
        <ele>78.8</ele>
        <time>2017-10-23T18:43:09Z</time>
      </trkpt>
      <trkpt lat="62.635995105028" lon="17.985753866577">
        <ele>78.8</ele>
        <time>2017-10-23T18:43:10Z</time>
      </trkpt>
      <trkpt lat="62.635975156106" lon="17.98578127539">
        <ele>78.8</ele>
        <time>2017-10-23T18:43:11Z</time>
      </trkpt>
      <trkpt lat="62.635963421446" lon="17.985792339498">
        <ele>79</ele>
        <time>2017-10-23T18:43:12Z</time>
      </trkpt>
      <trkpt lat="62.635945735637" lon="17.98581815575">
        <ele>79</ele>
        <time>2017-10-23T18:43:13Z</time>
      </trkpt>
      <trkpt lat="62.635923188326" lon="17.9858391105">
        <ele>79.2</ele>
        <time>2017-10-23T18:43:14Z</time>
      </trkpt>
      <trkpt lat="62.635907514173" lon="17.98586760896">
        <ele>79.4</ele>
        <time>2017-10-23T18:43:15Z</time>
      </trkpt>
      <trkpt lat="62.635883039025" lon="17.985913374134">
        <ele>79.6</ele>
        <time>2017-10-23T18:43:16Z</time>
      </trkpt>
      <trkpt lat="62.635866778139" lon="17.985938938929">
        <ele>79.6</ele>
        <time>2017-10-23T18:43:17Z</time>
      </trkpt>
      <trkpt lat="62.635845236656" lon="17.985981854257">
        <ele>79.8</ele>
        <time>2017-10-23T18:43:18Z</time>
      </trkpt>
      <trkpt lat="62.635828556675" lon="17.986018986074">
        <ele>80</ele>
        <time>2017-10-23T18:43:19Z</time>
      </trkpt>
      <trkpt lat="62.635809865038" lon="17.98607212732">
        <ele>80</ele>
        <time>2017-10-23T18:43:20Z</time>
      </trkpt>
      <trkpt lat="62.635790502849" lon="17.986112947173">
        <ele>80.2</ele>
        <time>2017-10-23T18:43:21Z</time>
      </trkpt>
      <trkpt lat="62.635771643574" lon="17.986168351532">
        <ele>80.4</ele>
        <time>2017-10-23T18:43:22Z</time>
      </trkpt>
      <trkpt lat="62.635757142887" lon="17.986217050371">
        <ele>80.6</ele>
        <time>2017-10-23T18:43:23Z</time>
      </trkpt>
      <trkpt lat="62.635741384915" lon="17.98626155826">
        <ele>80.8</ele>
        <time>2017-10-23T18:43:24Z</time>
      </trkpt>
      <trkpt lat="62.635726297495" lon="17.986303300122">
        <ele>80.8</ele>
        <time>2017-10-23T18:43:25Z</time>
      </trkpt>
      <trkpt lat="62.635717831776" lon="17.986347975649">
        <ele>80.8</ele>
        <time>2017-10-23T18:43:26Z</time>
      </trkpt>
      <trkpt lat="62.635703750184" lon="17.98638644857">
        <ele>81</ele>
        <time>2017-10-23T18:43:27Z</time>
      </trkpt>
      <trkpt lat="62.635692769895" lon="17.986421317274">
        <ele>81</ele>
        <time>2017-10-23T18:43:28Z</time>
      </trkpt>
      <trkpt lat="62.635674162077" lon="17.986460460747">
        <ele>81</ele>
        <time>2017-10-23T18:43:29Z</time>
      </trkpt>
      <trkpt lat="62.635660248123" lon="17.986511757975">
        <ele>81</ele>
        <time>2017-10-23T18:43:30Z</time>
      </trkpt>
      <trkpt lat="62.63564708854" lon="17.986548303059">
        <ele>81.2</ele>
        <time>2017-10-23T18:43:31Z</time>
      </trkpt>
      <trkpt lat="62.635638622821" lon="17.986600606115">
        <ele>81.2</ele>
        <time>2017-10-23T18:43:32Z</time>
      </trkpt>
      <trkpt lat="62.635634096595" lon="17.986650897515">
        <ele>81.2</ele>
        <time>2017-10-23T18:43:33Z</time>
      </trkpt>
      <trkpt lat="62.635627474894" lon="17.986694315757">
        <ele>81.4</ele>
        <time>2017-10-23T18:43:34Z</time>
      </trkpt>
      <trkpt lat="62.635612052198" lon="17.986744271881">
        <ele>81.6</ele>
        <time>2017-10-23T18:43:35Z</time>
      </trkpt>
      <trkpt lat="62.635602077737" lon="17.986783080078">
        <ele>81.8</ele>
        <time>2017-10-23T18:43:36Z</time>
      </trkpt>
      <trkpt lat="62.635582464091" lon="17.98681727823">
        <ele>81.8</ele>
        <time>2017-10-23T18:43:37Z</time>
      </trkpt>
      <trkpt lat="62.635570226517" lon="17.986863127223">
        <ele>82</ele>
        <time>2017-10-23T18:43:38Z</time>
      </trkpt>
      <trkpt lat="62.635557905124" lon="17.986892463873">
        <ele>82</ele>
        <time>2017-10-23T18:43:39Z</time>
      </trkpt>
      <trkpt lat="62.635539884039" lon="17.98693462483">
        <ele>82.2</ele>
        <time>2017-10-23T18:43:40Z</time>
      </trkpt>
      <trkpt lat="62.635524796619" lon="17.986965554041">
        <ele>82.2</ele>
        <time>2017-10-23T18:43:41Z</time>
      </trkpt>
      <trkpt lat="62.635511888493" lon="17.986998830184">
        <ele>82.4</ele>
        <time>2017-10-23T18:43:42Z</time>
      </trkpt>
      <trkpt lat="62.635497639263" lon="17.987031519594">
        <ele>82.4</ele>
        <time>2017-10-23T18:43:43Z</time>
      </trkpt>
      <trkpt lat="62.635487329526" lon="17.987065214832">
        <ele>82.4</ele>
        <time>2017-10-23T18:43:44Z</time>
      </trkpt>
      <trkpt lat="62.635463189654" lon="17.987116344422">
        <ele>82.6</ele>
        <time>2017-10-23T18:43:45Z</time>
      </trkpt>
      <trkpt lat="62.635438714506" lon="17.987157667189">
        <ele>82.6</ele>
        <time>2017-10-23T18:43:46Z</time>
      </trkpt>
      <trkpt lat="62.63542245362" lon="17.987202342716">
        <ele>82.6</ele>
        <time>2017-10-23T18:43:47Z</time>
      </trkpt>
      <trkpt lat="62.635400912137" lon="17.987240731818">
        <ele>82.8</ele>
        <time>2017-10-23T18:43:48Z</time>
      </trkpt>
      <trkpt lat="62.635379286835" lon="17.987284485336">
        <ele>82.8</ele>
        <time>2017-10-23T18:43:49Z</time>
      </trkpt>
      <trkpt lat="62.635348441443" lon="17.987333016537">
        <ele>83</ele>
        <time>2017-10-23T18:43:50Z</time>
      </trkpt>
      <trkpt lat="62.635318853336" lon="17.987389007629">
        <ele>83</ele>
        <time>2017-10-23T18:43:51Z</time>
      </trkpt>
      <trkpt lat="62.63529421055" lon="17.987429743663">
        <ele>83.2</ele>
        <time>2017-10-23T18:43:52Z</time>
      </trkpt>
      <trkpt lat="62.635268897212" lon="17.987477101398">
        <ele>83.2</ele>
        <time>2017-10-23T18:43:53Z</time>
      </trkpt>
      <trkpt lat="62.635241572218" lon="17.987526638427">
        <ele>83.4</ele>
        <time>2017-10-23T18:43:54Z</time>
      </trkpt>
      <trkpt lat="62.635212822301" lon="17.987573828524">
        <ele>83.4</ele>
        <time>2017-10-23T18:43:55Z</time>
      </trkpt>
      <trkpt lat="62.635187257506" lon="17.98762110244">
        <ele>83.6</ele>
        <time>2017-10-23T18:43:56Z</time>
      </trkpt>
      <trkpt lat="62.635162447082" lon="17.987655887325">
        <ele>83.8</ele>
        <time>2017-10-23T18:43:57Z</time>
      </trkpt>
      <trkpt lat="62.635136127916" lon="17.987693773513">
        <ele>84.2</ele>
        <time>2017-10-23T18:43:58Z</time>
      </trkpt>
      <trkpt lat="62.635113329148" lon="17.987742556171">
        <ele>84.2</ele>
        <time>2017-10-23T18:43:59Z</time>
      </trkpt>
      <trkpt lat="62.63508550124" lon="17.987768288604">
        <ele>84.4</ele>
        <time>2017-10-23T18:44:00Z</time>
      </trkpt>
      <trkpt lat="62.635063373024" lon="17.98779125501">
        <ele>84.4</ele>
        <time>2017-10-23T18:44:01Z</time>
      </trkpt>
      <trkpt lat="62.635040406618" lon="17.987820088746">
        <ele>84.4</ele>
        <time>2017-10-23T18:44:02Z</time>
      </trkpt>
      <trkpt lat="62.635013081624" lon="17.987855628002">
        <ele>84.6</ele>
        <time>2017-10-23T18:44:03Z</time>
      </trkpt>
      <trkpt lat="62.634986259544" lon="17.987883372091">
        <ele>84.6</ele>
        <time>2017-10-23T18:44:04Z</time>
      </trkpt>
      <trkpt lat="62.634960108016" lon="17.987902482823">
        <ele>84.8</ele>
        <time>2017-10-23T18:44:05Z</time>
      </trkpt>
      <trkpt lat="62.634932531565" lon="17.987916564415">
        <ele>85</ele>
        <time>2017-10-23T18:44:06Z</time>
      </trkpt>
      <trkpt lat="62.634910068073" lon="17.987927544704">
        <ele>85</ele>
        <time>2017-10-23T18:44:07Z</time>
      </trkpt>
      <trkpt lat="62.634878133034" lon="17.98796308396">
        <ele>85.2</ele>
        <time>2017-10-23T18:44:08Z</time>
      </trkpt>
      <trkpt lat="62.634848377289" lon="17.98797733319">
        <ele>85.4</ele>
        <time>2017-10-23T18:44:09Z</time>
      </trkpt>
      <trkpt lat="62.634827506358" lon="17.988000886329">
        <ele>85.4</ele>
        <time>2017-10-23T18:44:10Z</time>
      </trkpt>
      <trkpt lat="62.634800097545" lon="17.988021086708">
        <ele>85.6</ele>
        <time>2017-10-23T18:44:11Z</time>
      </trkpt>
      <trkpt lat="62.634770593257" lon="17.988038604879">
        <ele>85.6</ele>
        <time>2017-10-23T18:44:12Z</time>
      </trkpt>
      <trkpt lat="62.634745447557" lon="17.98805444667">
        <ele>85.8</ele>
        <time>2017-10-23T18:44:13Z</time>
      </trkpt>
      <trkpt lat="62.634711249405" lon="17.988078837999">
        <ele>85.8</ele>
        <time>2017-10-23T18:44:14Z</time>
      </trkpt>
      <trkpt lat="62.634681996574" lon="17.988096523808">
        <ele>85.8</ele>
        <time>2017-10-23T18:44:15Z</time>
      </trkpt>
      <trkpt lat="62.634659281625" lon="17.988111192133">
        <ele>86</ele>
        <time>2017-10-23T18:44:16Z</time>
      </trkpt>
      <trkpt lat="62.634631705174" lon="17.988119154938">
        <ele>86</ele>
        <time>2017-10-23T18:44:17Z</time>
      </trkpt>
      <trkpt lat="62.634612091528" lon="17.988122423879">
        <ele>86.2</ele>
        <time>2017-10-23T18:44:18Z</time>
      </trkpt>
      <trkpt lat="62.634587784018" lon="17.988125106087">
        <ele>86.4</ele>
        <time>2017-10-23T18:44:19Z</time>
      </trkpt>
      <trkpt lat="62.634556687169" lon="17.988129129399">
        <ele>86.6</ele>
        <time>2017-10-23T18:44:20Z</time>
      </trkpt>
      <trkpt lat="62.634525506501" lon="17.98814161843">
        <ele>86.6</ele>
        <time>2017-10-23T18:44:21Z</time>
      </trkpt>
      <trkpt lat="62.634502204819" lon="17.988150084149">
        <ele>86.6</ele>
        <time>2017-10-23T18:44:22Z</time>
      </trkpt>
      <trkpt lat="62.634477394395" lon="17.98816592594">
        <ele>86.6</ele>
        <time>2017-10-23T18:44:23Z</time>
      </trkpt>
      <trkpt lat="62.634452332514" lon="17.988168105234">
        <ele>86.8</ele>
        <time>2017-10-23T18:44:24Z</time>
      </trkpt>
      <trkpt lat="62.634427689728" lon="17.988175565125">
        <ele>86.8</ele>
        <time>2017-10-23T18:44:25Z</time>
      </trkpt>
      <trkpt lat="62.634407237892" lon="17.988178917885">
        <ele>87</ele>
        <time>2017-10-23T18:44:26Z</time>
      </trkpt>
      <trkpt lat="62.634380918726" lon="17.988188473251">
        <ele>87.2</ele>
        <time>2017-10-23T18:44:27Z</time>
      </trkpt>
      <trkpt lat="62.63435627594" lon="17.988190568726">
        <ele>87.2</ele>
        <time>2017-10-23T18:44:28Z</time>
      </trkpt>
      <trkpt lat="62.634330627326" lon="17.988190652545">
        <ele>87.4</ele>
        <time>2017-10-23T18:44:29Z</time>
      </trkpt>
      <trkpt lat="62.634304224341" lon="17.988196519875">
        <ele>87.4</ele>
        <time>2017-10-23T18:44:30Z</time>
      </trkpt>
      <trkpt lat="62.634274217139" lon="17.988191574554">
        <ele>87.4</ele>
        <time>2017-10-23T18:44:31Z</time>
      </trkpt>
      <trkpt lat="62.634245467222" lon="17.988187551242">
        <ele>87.4</ele>
        <time>2017-10-23T18:44:32Z</time>
      </trkpt>
      <trkpt lat="62.634215627658" lon="17.988189479079">
        <ele>87.4</ele>
        <time>2017-10-23T18:44:33Z</time>
      </trkpt>
      <trkpt lat="62.634184279352" lon="17.988186210138">
        <ele>87.6</ele>
        <time>2017-10-23T18:44:34Z</time>
      </trkpt>
      <trkpt lat="62.63415427215" lon="17.988184282301">
        <ele>87.6</ele>
        <time>2017-10-23T18:44:35Z</time>
      </trkpt>
      <trkpt lat="62.634121918016" lon="17.988191658373">
        <ele>87.6</ele>
        <time>2017-10-23T18:44:36Z</time>
      </trkpt>
      <trkpt lat="62.634087719864" lon="17.988192328925">
        <ele>87.6</ele>
        <time>2017-10-23T18:44:37Z</time>
      </trkpt>
      <trkpt lat="62.634054359902" lon="17.988190568726">
        <ele>87.6</ele>
        <time>2017-10-23T18:44:38Z</time>
      </trkpt>
      <trkpt lat="62.634024268881" lon="17.988186210138">
        <ele>87.6</ele>
        <time>2017-10-23T18:44:39Z</time>
      </trkpt>
      <trkpt lat="62.633993842584" lon="17.988175397487">
        <ele>87.6</ele>
        <time>2017-10-23T18:44:40Z</time>
      </trkpt>
      <trkpt lat="62.633959895889" lon="17.98817430784">
        <ele>87.8</ele>
        <time>2017-10-23T18:44:41Z</time>
      </trkpt>
      <trkpt lat="62.633932067981" lon="17.988171541813">
        <ele>87.8</ele>
        <time>2017-10-23T18:44:42Z</time>
      </trkpt>
      <trkpt lat="62.633905664996" lon="17.988167686139">
        <ele>87.8</ele>
        <time>2017-10-23T18:44:43Z</time>
      </trkpt>
      <trkpt lat="62.633875741613" lon="17.98814916214">
        <ele>88</ele>
        <time>2017-10-23T18:44:44Z</time>
      </trkpt>
      <trkpt lat="62.633852188474" lon="17.988130135227">
        <ele>88</ele>
        <time>2017-10-23T18:44:45Z</time>
      </trkpt>
      <trkpt lat="62.633829473525" lon="17.988104235156">
        <ele>88.2</ele>
        <time>2017-10-23T18:44:46Z</time>
      </trkpt>
      <trkpt lat="62.633798628133" lon="17.988085962614">
        <ele>88.4</ele>
        <time>2017-10-23T18:44:47Z</time>
      </trkpt>
      <trkpt lat="62.633772811881" lon="17.988068612081">
        <ele>88.4</ele>
        <time>2017-10-23T18:44:48Z</time>
      </trkpt>
      <trkpt lat="62.633752946778" lon="17.988050088082">
        <ele>88.6</ele>
        <time>2017-10-23T18:44:49Z</time>
      </trkpt>
      <trkpt lat="62.633690585442" lon="17.987983703434">
        <ele>88.6</ele>
        <time>2017-10-23T18:44:51Z</time>
      </trkpt>
      <trkpt lat="62.633670720339" lon="17.987959898838">
        <ele>88.6</ele>
        <time>2017-10-23T18:44:52Z</time>
      </trkpt>
      <trkpt lat="62.633646580467" lon="17.987934920776">
        <ele>88.8</ele>
        <time>2017-10-23T18:44:53Z</time>
      </trkpt>
      <trkpt lat="62.633621937681" lon="17.98790608704">
        <ele>88.8</ele>
        <time>2017-10-23T18:44:54Z</time>
      </trkpt>
      <trkpt lat="62.633597294895" lon="17.987897286045">
        <ele>89</ele>
        <time>2017-10-23T18:44:55Z</time>
      </trkpt>
      <trkpt lat="62.633570640453" lon="17.987890077611">
        <ele>89</ele>
        <time>2017-10-23T18:44:56Z</time>
      </trkpt>
      <trkpt lat="62.633547841685" lon="17.98786501573">
        <ele>89.2</ele>
        <time>2017-10-23T18:44:57Z</time>
      </trkpt>
      <trkpt lat="62.633524372365" lon="17.987830398483">
        <ele>89.2</ele>
        <time>2017-10-23T18:44:58Z</time>
      </trkpt>
      <trkpt lat="62.633497717923" lon="17.987797457616">
        <ele>89.4</ele>
        <time>2017-10-23T18:44:59Z</time>
      </trkpt>
      <trkpt lat="62.633477433725" lon="17.987757643591">
        <ele>89.6</ele>
        <time>2017-10-23T18:45:00Z</time>
      </trkpt>
      <trkpt lat="62.633457484803" lon="17.987721936697">
        <ele>89.8</ele>
        <time>2017-10-23T18:45:01Z</time>
      </trkpt>
      <trkpt lat="62.63343929608" lon="17.98769402497">
        <ele>89.8</ele>
        <time>2017-10-23T18:45:02Z</time>
      </trkpt>
      <trkpt lat="62.633417670778" lon="17.987659575361">
        <ele>90</ele>
        <time>2017-10-23T18:45:03Z</time>
      </trkpt>
      <trkpt lat="62.633396716028" lon="17.987624958114">
        <ele>90</ele>
        <time>2017-10-23T18:45:04Z</time>
      </trkpt>
      <trkpt lat="62.633379030219" lon="17.987588580668">
        <ele>90</ele>
        <time>2017-10-23T18:45:05Z</time>
      </trkpt>
      <trkpt lat="62.633359835668" lon="17.987550778299">
        <ele>90.2</ele>
        <time>2017-10-23T18:45:06Z</time>
      </trkpt>
      <trkpt lat="62.633339048556" lon="17.987506689505">
        <ele>90.4</ele>
        <time>2017-10-23T18:45:07Z</time>
      </trkpt>
      <trkpt lat="62.633321530385" lon="17.987460421417">
        <ele>90.8</ele>
        <time>2017-10-23T18:45:08Z</time>
      </trkpt>
      <trkpt lat="62.633299485988" lon="17.98741742227">
        <ele>91</ele>
        <time>2017-10-23T18:45:09Z</time>
      </trkpt>
      <trkpt lat="62.633278112143" lon="17.987362437006">
        <ele>91</ele>
        <time>2017-10-23T18:45:10Z</time>
      </trkpt>
      <trkpt lat="62.633262605628" lon="17.987306948828">
        <ele>91</ele>
        <time>2017-10-23T18:45:11Z</time>
      </trkpt>
      <trkpt lat="62.633248021122" lon="17.987242911112">
        <ele>90.8</ele>
        <time>2017-10-23T18:45:12Z</time>
      </trkpt>
      <trkpt lat="62.633234442444" lon="17.987177783749">
        <ele>90.6</ele>
        <time>2017-10-23T18:45:13Z</time>
      </trkpt>
      <trkpt lat="62.633224803259" lon="17.987105112676">
        <ele>90.4</ele>
        <time>2017-10-23T18:45:14Z</time>
      </trkpt>
      <trkpt lat="62.633209883477" lon="17.987050881783">
        <ele>90</ele>
        <time>2017-10-23T18:45:15Z</time>
      </trkpt>
      <trkpt lat="62.633203177957" lon="17.987006457713">
        <ele>89.8</ele>
        <time>2017-10-23T18:45:16Z</time>
      </trkpt>
      <trkpt lat="62.633193119677" lon="17.986950382802">
        <ele>89.6</ele>
        <time>2017-10-23T18:45:17Z</time>
      </trkpt>
      <trkpt lat="62.633182726121" lon="17.986893469701">
        <ele>89.4</ele>
        <time>2017-10-23T18:45:18Z</time>
      </trkpt>
      <trkpt lat="62.633173254574" lon="17.986821888275">
        <ele>89.2</ele>
        <time>2017-10-23T18:45:19Z</time>
      </trkpt>
      <trkpt lat="62.633167387244" lon="17.986752569962">
        <ele>89</ele>
        <time>2017-10-23T18:45:20Z</time>
      </trkpt>
      <trkpt lat="62.633156909869" lon="17.986680820898">
        <ele>88.8</ele>
        <time>2017-10-23T18:45:21Z</time>
      </trkpt>
      <trkpt lat="62.63315095872" lon="17.986631786783">
        <ele>88.8</ele>
        <time>2017-10-23T18:45:22Z</time>
      </trkpt>
      <trkpt lat="62.633142912096" lon="17.9865683358">
        <ele>88.6</ele>
        <time>2017-10-23T18:45:23Z</time>
      </trkpt>
      <trkpt lat="62.633139726974" lon="17.986494994175">
        <ele>88.6</ele>
        <time>2017-10-23T18:45:24Z</time>
      </trkpt>
      <trkpt lat="62.633140648983" lon="17.986433806305">
        <ele>88.4</ele>
        <time>2017-10-23T18:45:25Z</time>
      </trkpt>
      <trkpt lat="62.633141151897" lon="17.986362811612">
        <ele>88.6</ele>
        <time>2017-10-23T18:45:26Z</time>
      </trkpt>
      <trkpt lat="62.63314341501" lon="17.986287458331">
        <ele>88.4</ele>
        <time>2017-10-23T18:45:27Z</time>
      </trkpt>
      <trkpt lat="62.6331442532" lon="17.986219816398">
        <ele>88.2</ele>
        <time>2017-10-23T18:45:28Z</time>
      </trkpt>
      <trkpt lat="62.633142157725" lon="17.986147061506">
        <ele>88.2</ele>
        <time>2017-10-23T18:45:29Z</time>
      </trkpt>
      <trkpt lat="62.633135536024" lon="17.986070199483">
        <ele>87.8</ele>
        <time>2017-10-23T18:45:30Z</time>
      </trkpt>
      <trkpt lat="62.633128998142" lon="17.985995600573">
        <ele>87.6</ele>
        <time>2017-10-23T18:45:31Z</time>
      </trkpt>
      <trkpt lat="62.633122795536" lon="17.98592879683">
        <ele>87.4</ele>
        <time>2017-10-23T18:45:32Z</time>
      </trkpt>
      <trkpt lat="62.633122544079" lon="17.98586677077">
        <ele>87.2</ele>
        <time>2017-10-23T18:45:33Z</time>
      </trkpt>
      <trkpt lat="62.633118353129" lon="17.985795692258">
        <ele>87</ele>
        <time>2017-10-23T18:45:34Z</time>
      </trkpt>
      <trkpt lat="62.633116928206" lon="17.985729810524">
        <ele>86.8</ele>
        <time>2017-10-23T18:45:35Z</time>
      </trkpt>
      <trkpt lat="62.633112234342" lon="17.985664096428">
        <ele>86.8</ele>
        <time>2017-10-23T18:45:36Z</time>
      </trkpt>
      <trkpt lat="62.633110641781" lon="17.985595281029">
        <ele>86.6</ele>
        <time>2017-10-23T18:45:37Z</time>
      </trkpt>
      <trkpt lat="62.633108043392" lon="17.98553568572">
        <ele>86.6</ele>
        <time>2017-10-23T18:45:38Z</time>
      </trkpt>
      <trkpt lat="62.633109216858" lon="17.985495955514">
        <ele>86.6</ele>
        <time>2017-10-23T18:45:39Z</time>
      </trkpt>
      <trkpt lat="62.633111815247" lon="17.985395456533">
        <ele>86.6</ele>
        <time>2017-10-23T18:45:40Z</time>
      </trkpt>
      <trkpt lat="62.633117598758" lon="17.985319013605">
        <ele>86.6</ele>
        <time>2017-10-23T18:45:41Z</time>
      </trkpt>
      <trkpt lat="62.633122963174" lon="17.985246258713">
        <ele>86.4</ele>
        <time>2017-10-23T18:45:42Z</time>
      </trkpt>
      <trkpt lat="62.63313251854" lon="17.985170067242">
        <ele>86.4</ele>
        <time>2017-10-23T18:45:43Z</time>
      </trkpt>
      <trkpt lat="62.633139307879" lon="17.985099072549">
        <ele>86</ele>
        <time>2017-10-23T18:45:44Z</time>
      </trkpt>
      <trkpt lat="62.633144504657" lon="17.985030508607">
        <ele>85.6</ele>
        <time>2017-10-23T18:45:45Z</time>
      </trkpt>
      <trkpt lat="62.63315179691" lon="17.984968901642">
        <ele>85.2</ele>
        <time>2017-10-23T18:45:46Z</time>
      </trkpt>
      <trkpt lat="62.633160094991" lon="17.984906624125">
        <ele>84.6</ele>
        <time>2017-10-23T18:45:47Z</time>
      </trkpt>
      <trkpt lat="62.633168979805" lon="17.984853482879">
        <ele>84.2</ele>
        <time>2017-10-23T18:45:48Z</time>
      </trkpt>
      <trkpt lat="62.633180546827" lon="17.98478802024">
        <ele>84</ele>
        <time>2017-10-23T18:45:49Z</time>
      </trkpt>
      <trkpt lat="62.633192281487" lon="17.984728844026">
        <ele>83.8</ele>
        <time>2017-10-23T18:45:50Z</time>
      </trkpt>
      <trkpt lat="62.633203848509" lon="17.984675116047">
        <ele>83.6</ele>
        <time>2017-10-23T18:45:51Z</time>
      </trkpt>
      <trkpt lat="62.633213152418" lon="17.984622980629">
        <ele>83.6</ele>
        <time>2017-10-23T18:45:52Z</time>
      </trkpt>
      <trkpt lat="62.633225389992" lon="17.984559362008">
        <ele>83.6</ele>
        <time>2017-10-23T18:45:53Z</time>
      </trkpt>
      <trkpt lat="62.633240225955" lon="17.984503790011">
        <ele>83.6</ele>
        <time>2017-10-23T18:45:54Z</time>
      </trkpt>
      <trkpt lat="62.633251038606" lon="17.984446290177">
        <ele>83.4</ele>
        <time>2017-10-23T18:45:55Z</time>
      </trkpt>
      <trkpt lat="62.633262186533" lon="17.984386694868">
        <ele>83.4</ele>
        <time>2017-10-23T18:45:56Z</time>
      </trkpt>
      <trkpt lat="62.633273166822" lon="17.984336068192">
        <ele>83.4</ele>
        <time>2017-10-23T18:45:57Z</time>
      </trkpt>
      <trkpt lat="62.633277944505" lon="17.984284770964">
        <ele>83.2</ele>
        <time>2017-10-23T18:45:58Z</time>
      </trkpt>
      <trkpt lat="62.63329093645" lon="17.984228360777">
        <ele>83.4</ele>
        <time>2017-10-23T18:45:59Z</time>
      </trkpt>
      <trkpt lat="62.633302922567" lon="17.984170609486">
        <ele>83.2</ele>
        <time>2017-10-23T18:46:00Z</time>
      </trkpt>
      <trkpt lat="62.633309879544" lon="17.984108751064">
        <ele>83.2</ele>
        <time>2017-10-23T18:46:01Z</time>
      </trkpt>
      <trkpt lat="62.633322117118" lon="17.984046725004">
        <ele>83.4</ele>
        <time>2017-10-23T18:46:02Z</time>
      </trkpt>
      <trkpt lat="62.633328571181" lon="17.983993919034">
        <ele>83.4</ele>
        <time>2017-10-23T18:46:03Z</time>
      </trkpt>
      <trkpt lat="62.633335109063" lon="17.983947986222">
        <ele>83.6</ele>
        <time>2017-10-23T18:46:04Z</time>
      </trkpt>
      <trkpt lat="62.633336450167" lon="17.98388026047">
        <ele>83.6</ele>
        <time>2017-10-23T18:46:05Z</time>
      </trkpt>
      <trkpt lat="62.633343574782" lon="17.983815133107">
        <ele>83.6</ele>
        <time>2017-10-23T18:46:06Z</time>
      </trkpt>
      <trkpt lat="62.633347849551" lon="17.983764171155">
        <ele>83.6</ele>
        <time>2017-10-23T18:46:07Z</time>
      </trkpt>
      <trkpt lat="62.63335631527" lon="17.983709018253">
        <ele>83.6</ele>
        <time>2017-10-23T18:46:08Z</time>
      </trkpt>
      <trkpt lat="62.633368469025" lon="17.983641879234">
        <ele>83.6</ele>
        <time>2017-10-23T18:46:09Z</time>
      </trkpt>
      <trkpt lat="62.633381796246" lon="17.983594605318">
        <ele>83.6</ele>
        <time>2017-10-23T18:46:10Z</time>
      </trkpt>
      <trkpt lat="62.633394536734" lon="17.983537189303">
        <ele>83.6</ele>
        <time>2017-10-23T18:46:11Z</time>
      </trkpt>
      <trkpt lat="62.633406019937" lon="17.983479857107">
        <ele>83.6</ele>
        <time>2017-10-23T18:46:12Z</time>
      </trkpt>
      <trkpt lat="62.633419850072" lon="17.983418753056">
        <ele>83.8</ele>
        <time>2017-10-23T18:46:13Z</time>
      </trkpt>
      <trkpt lat="62.633430159809" lon="17.983364354525">
        <ele>83.8</ele>
        <time>2017-10-23T18:46:14Z</time>
      </trkpt>
      <trkpt lat="62.633439044623" lon="17.983306854691">
        <ele>84</ele>
        <time>2017-10-23T18:46:15Z</time>
      </trkpt>
      <trkpt lat="62.633454634957" lon="17.98325413254">
        <ele>84</ele>
        <time>2017-10-23T18:46:16Z</time>
      </trkpt>
      <trkpt lat="62.633465615246" lon="17.983205182244">
        <ele>84</ele>
        <time>2017-10-23T18:46:17Z</time>
      </trkpt>
      <trkpt lat="62.633476260259" lon="17.983152879188">
        <ele>84</ele>
        <time>2017-10-23T18:46:18Z</time>
      </trkpt>
      <trkpt lat="62.633487743462" lon="17.983095044078">
        <ele>84</ele>
        <time>2017-10-23T18:46:19Z</time>
      </trkpt>
      <trkpt lat="62.633497298828" lon="17.983039472081">
        <ele>84</ele>
        <time>2017-10-23T18:46:20Z</time>
      </trkpt>
      <trkpt lat="62.633505680728" lon="17.982978954763">
        <ele>84</ele>
        <time>2017-10-23T18:46:21Z</time>
      </trkpt>
      <trkpt lat="62.63351221861" lon="17.982915419961">
        <ele>84</ele>
        <time>2017-10-23T18:46:22Z</time>
      </trkpt>
      <trkpt lat="62.633524707641" lon="17.982864793285">
        <ele>84</ele>
        <time>2017-10-23T18:46:23Z</time>
      </trkpt>
      <trkpt lat="62.633537448129" lon="17.982812238772">
        <ele>83.8</ele>
        <time>2017-10-23T18:46:24Z</time>
      </trkpt>
      <trkpt lat="62.63354993716" lon="17.982750967083">
        <ele>84</ele>
        <time>2017-10-23T18:46:25Z</time>
      </trkpt>
      <trkpt lat="62.633563851114" lon="17.982698161113">
        <ele>83.8</ele>
        <time>2017-10-23T18:46:26Z</time>
      </trkpt>
      <trkpt lat="62.633574663765" lon="17.982654239957">
        <ele>84</ele>
        <time>2017-10-23T18:46:27Z</time>
      </trkpt>
      <trkpt lat="62.633590002642" lon="17.982605205842">
        <ele>83.8</ele>
        <time>2017-10-23T18:46:28Z</time>
      </trkpt>
      <trkpt lat="62.633604838605" lon="17.982550974949">
        <ele>84</ele>
        <time>2017-10-23T18:46:29Z</time>
      </trkpt>
      <trkpt lat="62.633609532469" lon="17.982508311078">
        <ele>84</ele>
        <time>2017-10-23T18:46:30Z</time>
      </trkpt>
      <trkpt lat="62.633620931853" lon="17.982463300275">
        <ele>84</ele>
        <time>2017-10-23T18:46:31Z</time>
      </trkpt>
      <trkpt lat="62.633628475563" lon="17.982406219536">
        <ele>84</ele>
        <time>2017-10-23T18:46:32Z</time>
      </trkpt>
      <trkpt lat="62.633639036757" lon="17.9823522401">
        <ele>84</ele>
        <time>2017-10-23T18:46:33Z</time>
      </trkpt>
      <trkpt lat="62.63364213806" lon="17.982291806601">
        <ele>83.8</ele>
        <time>2017-10-23T18:46:34Z</time>
      </trkpt>
      <trkpt lat="62.633655884376" lon="17.982227517428">
        <ele>84</ele>
        <time>2017-10-23T18:46:35Z</time>
      </trkpt>
      <trkpt lat="62.633664685371" lon="17.982169682318">
        <ele>84</ele>
        <time>2017-10-23T18:46:36Z</time>
      </trkpt>
      <trkpt lat="62.633667870493" lon="17.982111511932">
        <ele>84</ele>
        <time>2017-10-23T18:46:37Z</time>
      </trkpt>
      <trkpt lat="62.633672396719" lon="17.982058203048">
        <ele>84</ele>
        <time>2017-10-23T18:46:38Z</time>
      </trkpt>
      <trkpt lat="62.633670804158" lon="17.982004223612">
        <ele>84</ele>
        <time>2017-10-23T18:46:39Z</time>
      </trkpt>
      <trkpt lat="62.633679521334" lon="17.981949825081">
        <ele>84</ele>
        <time>2017-10-23T18:46:40Z</time>
      </trkpt>
      <trkpt lat="62.633687148863" lon="17.981885619727">
        <ele>84</ele>
        <time>2017-10-23T18:46:41Z</time>
      </trkpt>
      <trkpt lat="62.633693351469" lon="17.981834573956">
        <ele>84</ele>
        <time>2017-10-23T18:46:42Z</time>
      </trkpt>
      <trkpt lat="62.633693602926" lon="17.981772380258">
        <ele>84.2</ele>
        <time>2017-10-23T18:46:43Z</time>
      </trkpt>
      <trkpt lat="62.633705756681" lon="17.981709683646">
        <ele>84.2</ele>
        <time>2017-10-23T18:46:44Z</time>
      </trkpt>
      <trkpt lat="62.633710785821" lon="17.981653524916">
        <ele>84.2</ele>
        <time>2017-10-23T18:46:45Z</time>
      </trkpt>
      <trkpt lat="62.633709863812" lon="17.981598288195">
        <ele>84.2</ele>
        <time>2017-10-23T18:46:46Z</time>
      </trkpt>
      <trkpt lat="62.633720173549" lon="17.981546571872">
        <ele>84.2</ele>
        <time>2017-10-23T18:46:47Z</time>
      </trkpt>
      <trkpt lat="62.633731405295" lon="17.981486473649">
        <ele>84.2</ele>
        <time>2017-10-23T18:46:48Z</time>
      </trkpt>
      <trkpt lat="62.633743391412" lon="17.981432997127">
        <ele>84.4</ele>
        <time>2017-10-23T18:46:49Z</time>
      </trkpt>
      <trkpt lat="62.633752192407" lon="17.981374994379">
        <ele>84.4</ele>
        <time>2017-10-23T18:46:50Z</time>
      </trkpt>
      <trkpt lat="62.633757305366" lon="17.981308861188">
        <ele>84.4</ele>
        <time>2017-10-23T18:46:51Z</time>
      </trkpt>
      <trkpt lat="62.633762250687" lon="17.981256474313">
        <ele>84.4</ele>
        <time>2017-10-23T18:46:52Z</time>
      </trkpt>
      <trkpt lat="62.633770548768" lon="17.98120643437">
        <ele>84.6</ele>
        <time>2017-10-23T18:46:53Z</time>
      </trkpt>
      <trkpt lat="62.633786809654" lon="17.981162261757">
        <ele>84.4</ele>
        <time>2017-10-23T18:46:54Z</time>
      </trkpt>
      <trkpt lat="62.633799550142" lon="17.981117334773">
        <ele>84.4</ele>
        <time>2017-10-23T18:46:55Z</time>
      </trkpt>
      <trkpt lat="62.633816230123" lon="17.981081041146">
        <ele>84.6</ele>
        <time>2017-10-23T18:46:56Z</time>
      </trkpt>
      <trkpt lat="62.633833161561" lon="17.981038544913">
        <ele>84.6</ele>
        <time>2017-10-23T18:46:57Z</time>
      </trkpt>
      <trkpt lat="62.63384581823" lon="17.980991354816">
        <ele>84.6</ele>
        <time>2017-10-23T18:46:58Z</time>
      </trkpt>
      <trkpt lat="62.6338734785" lon="17.980963610727">
        <ele>84.6</ele>
        <time>2017-10-23T18:46:59Z</time>
      </trkpt>
      <trkpt lat="62.633889823205" lon="17.980906697626">
        <ele>84.8</ele>
        <time>2017-10-23T18:47:00Z</time>
      </trkpt>
      <trkpt lat="62.633904575349" lon="17.980853975475">
        <ele>84.8</ele>
        <time>2017-10-23T18:47:01Z</time>
      </trkpt>
      <trkpt lat="62.633920668597" lon="17.980800247496">
        <ele>84.8</ele>
        <time>2017-10-23T18:47:02Z</time>
      </trkpt>
      <trkpt lat="62.63393801913" lon="17.980751045743">
        <ele>84.8</ele>
        <time>2017-10-23T18:47:03Z</time>
      </trkpt>
      <trkpt lat="62.633954028559" lon="17.98070435856">
        <ele>85</ele>
        <time>2017-10-23T18:47:04Z</time>
      </trkpt>
      <trkpt lat="62.633969702712" lon="17.980654150979">
        <ele>85</ele>
        <time>2017-10-23T18:47:05Z</time>
      </trkpt>
      <trkpt lat="62.633986298874" lon="17.980598327525">
        <ele>85.2</ele>
        <time>2017-10-23T18:47:06Z</time>
      </trkpt>
      <trkpt lat="62.633999374638" lon="17.980548287582">
        <ele>85.2</ele>
        <time>2017-10-23T18:47:07Z</time>
      </trkpt>
      <trkpt lat="62.63400842709" lon="17.980499756381">
        <ele>85.2</ele>
        <time>2017-10-23T18:47:08Z</time>
      </trkpt>
      <trkpt lat="62.634031561134" lon="17.980463881849">
        <ele>85.2</ele>
        <time>2017-10-23T18:47:09Z</time>
      </trkpt>
      <trkpt lat="62.634049330762" lon="17.980419793055">
        <ele>85.2</ele>
        <time>2017-10-23T18:47:10Z</time>
      </trkpt>
      <trkpt lat="62.634054108445" lon="17.980358353728">
        <ele>85.4</ele>
        <time>2017-10-23T18:47:11Z</time>
      </trkpt>
      <trkpt lat="62.634069279684" lon="17.980315522219">
        <ele>85.4</ele>
        <time>2017-10-23T18:47:12Z</time>
      </trkpt>
      <trkpt lat="62.634082942181" lon="17.980265398457">
        <ele>85.4</ele>
        <time>2017-10-23T18:47:13Z</time>
      </trkpt>
      <trkpt lat="62.634104399845" lon="17.980223991871">
        <ele>85.6</ele>
        <time>2017-10-23T18:47:14Z</time>
      </trkpt>
      <trkpt lat="62.634122001835" lon="17.980186943873">
        <ele>85.6</ele>
        <time>2017-10-23T18:47:15Z</time>
      </trkpt>
      <trkpt lat="62.634139939101" lon="17.980141849251">
        <ele>85.6</ele>
        <time>2017-10-23T18:47:16Z</time>
      </trkpt>
      <trkpt lat="62.634161564403" lon="17.980104801253">
        <ele>85.6</ele>
        <time>2017-10-23T18:47:17Z</time>
      </trkpt>
      <trkpt lat="62.634179753126" lon="17.980056018595">
        <ele>85.6</ele>
        <time>2017-10-23T18:47:18Z</time>
      </trkpt>
      <trkpt lat="62.634206659025" lon="17.98001871914">
        <ele>85.4</ele>
        <time>2017-10-23T18:47:19Z</time>
      </trkpt>
      <trkpt lat="62.634218896599" lon="17.97997680964">
        <ele>85.4</ele>
        <time>2017-10-23T18:47:20Z</time>
      </trkpt>
      <trkpt lat="62.634235408942" lon="17.979926769697">
        <ele>85.4</ele>
        <time>2017-10-23T18:47:21Z</time>
      </trkpt>
      <trkpt lat="62.634247059783" lon="17.979874466641">
        <ele>85.4</ele>
        <time>2017-10-23T18:47:22Z</time>
      </trkpt>
      <trkpt lat="62.634261644289" lon="17.97983012639">
        <ele>85.4</ele>
        <time>2017-10-23T18:47:23Z</time>
      </trkpt>
      <trkpt lat="62.63427161875" lon="17.979786624329">
        <ele>85.4</ele>
        <time>2017-10-23T18:47:24Z</time>
      </trkpt>
      <trkpt lat="62.63427916246" lon="17.97972535264">
        <ele>85.4</ele>
        <time>2017-10-23T18:47:25Z</time>
      </trkpt>
      <trkpt lat="62.634287711998" lon="17.979672630489">
        <ele>85.4</ele>
        <time>2017-10-23T18:47:26Z</time>
      </trkpt>
      <trkpt lat="62.634289975111" lon="17.979617058492">
        <ele>85.2</ele>
        <time>2017-10-23T18:47:27Z</time>
      </trkpt>
      <trkpt lat="62.63430011721" lon="17.979569868395">
        <ele>85.2</ele>
        <time>2017-10-23T18:47:28Z</time>
      </trkpt>
      <trkpt lat="62.6343093373" lon="17.979507758516">
        <ele>85.4</ele>
        <time>2017-10-23T18:47:29Z</time>
      </trkpt>
      <trkpt lat="62.634318305933" lon="17.979454030537">
        <ele>85.4</ele>
        <time>2017-10-23T18:47:30Z</time>
      </trkpt>
      <trkpt lat="62.634328783308" lon="17.979400470196">
        <ele>85.6</ele>
        <time>2017-10-23T18:47:31Z</time>
      </trkpt>
      <trkpt lat="62.634337500484" lon="17.979345149656">
        <ele>85.6</ele>
        <time>2017-10-23T18:47:32Z</time>
      </trkpt>
      <trkpt lat="62.634350660067" lon="17.979300138853">
        <ele>85.6</ele>
        <time>2017-10-23T18:47:33Z</time>
      </trkpt>
      <trkpt lat="62.634360299252" lon="17.979262336484">
        <ele>85.6</ele>
        <time>2017-10-23T18:47:34Z</time>
      </trkpt>
      <trkpt lat="62.634374129387" lon="17.979198717863">
        <ele>85.6</ele>
        <time>2017-10-23T18:47:35Z</time>
      </trkpt>
      <trkpt lat="62.634384103848" lon="17.979148510282">
        <ele>85.6</ele>
        <time>2017-10-23T18:47:36Z</time>
      </trkpt>
      <trkpt lat="62.634392150472" lon="17.979097045416">
        <ele>85.6</ele>
        <time>2017-10-23T18:47:37Z</time>
      </trkpt>
      <trkpt lat="62.634402544028" lon="17.979050693509">
        <ele>85.6</ele>
        <time>2017-10-23T18:47:38Z</time>
      </trkpt>
      <trkpt lat="62.634414781602" lon="17.978998222815">
        <ele>85.6</ele>
        <time>2017-10-23T18:47:39Z</time>
      </trkpt>
      <trkpt lat="62.634422576769" lon="17.978949859252">
        <ele>85.6</ele>
        <time>2017-10-23T18:47:40Z</time>
      </trkpt>
      <trkpt lat="62.634433892334" lon="17.978909207037">
        <ele>85.4</ele>
        <time>2017-10-23T18:47:41Z</time>
      </trkpt>
      <trkpt lat="62.634445626994" lon="17.978878445464">
        <ele>85.4</ele>
        <time>2017-10-23T18:47:42Z</time>
      </trkpt>
      <trkpt lat="62.634454763265" lon="17.978858496542">
        <ele>85.4</ele>
        <time>2017-10-23T18:47:43Z</time>
      </trkpt>
      <trkpt lat="62.634459876224" lon="17.978838882896">
        <ele>85.4</ele>
        <time>2017-10-23T18:47:44Z</time>
      </trkpt>
      <trkpt lat="62.634470521237" lon="17.978810803531">
        <ele>85.4</ele>
        <time>2017-10-23T18:47:46Z</time>
      </trkpt>
      <trkpt lat="62.634475550377" lon="17.978797392491">
        <ele>85.4</ele>
        <time>2017-10-23T18:47:47Z</time>
      </trkpt>
      <trkpt lat="62.634470856513" lon="17.978802170174">
        <ele>85.4</ele>
        <time>2017-10-23T18:47:48Z</time>
      </trkpt>
      <trkpt lat="62.634479992784" lon="17.978810635893">
        <ele>85.4</ele>
        <time>2017-10-23T18:47:49Z</time>
      </trkpt>
      <trkpt lat="62.634475382739" lon="17.978815413576">
        <ele>85.4</ele>
        <time>2017-10-23T18:47:50Z</time>
      </trkpt>
      <trkpt lat="62.634472616712" lon="17.97880585821">
        <ele>85.2</ele>
        <time>2017-10-23T18:47:51Z</time>
      </trkpt>
      <trkpt lat="62.634611169519" lon="17.978350385764">
        <ele>84.2</ele>
        <time>2017-10-23T18:51:04Z</time>
      </trkpt>
      <trkpt lat="62.634617036849" lon="17.97831048792">
        <ele>84</ele>
        <time>2017-10-23T18:51:05Z</time>
      </trkpt>
      <trkpt lat="62.634624329102" lon="17.978255754113">
        <ele>84</ele>
        <time>2017-10-23T18:51:06Z</time>
      </trkpt>
      <trkpt lat="62.634630615527" lon="17.978202612867">
        <ele>84</ele>
        <time>2017-10-23T18:51:07Z</time>
      </trkpt>
      <trkpt lat="62.634635560848" lon="17.978159362263">
        <ele>83.8</ele>
        <time>2017-10-23T18:51:08Z</time>
      </trkpt>
      <trkpt lat="62.634641511997" lon="17.978111250157">
        <ele>83.8</ele>
        <time>2017-10-23T18:51:09Z</time>
      </trkpt>
      <trkpt lat="62.634647714603" lon="17.978064311517">
        <ele>83.6</ele>
        <time>2017-10-23T18:51:10Z</time>
      </trkpt>
      <trkpt lat="62.634648133698" lon="17.978017205239">
        <ele>83.6</ele>
        <time>2017-10-23T18:51:11Z</time>
      </trkpt>
      <trkpt lat="62.634649558621" lon="17.977964986002">
        <ele>83.6</ele>
        <time>2017-10-23T18:51:12Z</time>
      </trkpt>
      <trkpt lat="62.634654503942" lon="17.977912766765">
        <ele>83.4</ele>
        <time>2017-10-23T18:51:13Z</time>
      </trkpt>
      <trkpt lat="62.634660958005" lon="17.977861385718">
        <ele>83.4</ele>
        <time>2017-10-23T18:51:14Z</time>
      </trkpt>
      <trkpt lat="62.63467059719" lon="17.977826600833">
        <ele>83.2</ele>
        <time>2017-10-23T18:51:15Z</time>
      </trkpt>
      <trkpt lat="62.63467897909" lon="17.977777985813">
        <ele>83.2</ele>
        <time>2017-10-23T18:51:16Z</time>
      </trkpt>
      <trkpt lat="62.634685433153" lon="17.977728951698">
        <ele>83</ele>
        <time>2017-10-23T18:51:17Z</time>
      </trkpt>
      <trkpt lat="62.634693563596" lon="17.977680252859">
        <ele>83</ele>
        <time>2017-10-23T18:51:18Z</time>
      </trkpt>
      <trkpt lat="62.634703873333" lon="17.977635493513">
        <ele>83</ele>
        <time>2017-10-23T18:51:19Z</time>
      </trkpt>
      <trkpt lat="62.634712674328" lon="17.977601043904">
        <ele>83</ele>
        <time>2017-10-23T18:51:20Z</time>
      </trkpt>
      <trkpt lat="62.634717954925" lon="17.977551339237">
        <ele>83</ele>
        <time>2017-10-23T18:51:21Z</time>
      </trkpt>
      <trkpt lat="62.634723151703" lon="17.977502053665">
        <ele>82.8</ele>
        <time>2017-10-23T18:51:22Z</time>
      </trkpt>
      <trkpt lat="62.63472675592" lon="17.977461820545">
        <ele>82.8</ele>
        <time>2017-10-23T18:51:23Z</time>
      </trkpt>
      <trkpt lat="62.634732120336" lon="17.977415636276">
        <ele>82.8</ele>
        <time>2017-10-23T18:51:24Z</time>
      </trkpt>
      <trkpt lat="62.63474100515" lon="17.977369032912">
        <ele>82.8</ele>
        <time>2017-10-23T18:51:25Z</time>
      </trkpt>
      <trkpt lat="62.634747207756" lon="17.977324608842">
        <ele>82.6</ele>
        <time>2017-10-23T18:51:26Z</time>
      </trkpt>
      <trkpt lat="62.634750811973" lon="17.977284878636">
        <ele>82.6</ele>
        <time>2017-10-23T18:51:27Z</time>
      </trkpt>
      <trkpt lat="62.634758355683" lon="17.977244561697">
        <ele>82.8</ele>
        <time>2017-10-23T18:51:28Z</time>
      </trkpt>
      <trkpt lat="62.634766737583" lon="17.977194102659">
        <ele>82.8</ele>
        <time>2017-10-23T18:51:29Z</time>
      </trkpt>
      <trkpt lat="62.634773024008" lon="17.977150935874">
        <ele>82.8</ele>
        <time>2017-10-23T18:51:30Z</time>
      </trkpt>
      <trkpt lat="62.634781405908" lon="17.977097291714">
        <ele>83</ele>
        <time>2017-10-23T18:51:31Z</time>
      </trkpt>
      <trkpt lat="62.634791128912" lon="17.977047167952">
        <ele>83</ele>
        <time>2017-10-23T18:51:32Z</time>
      </trkpt>
      <trkpt lat="62.63479884026" lon="17.976997630923">
        <ele>83</ele>
        <time>2017-10-23T18:51:33Z</time>
      </trkpt>
      <trkpt lat="62.634808563264" lon="17.976949770274">
        <ele>83</ele>
        <time>2017-10-23T18:51:34Z</time>
      </trkpt>
      <trkpt lat="62.634818034811" lon="17.976903586005">
        <ele>82.8</ele>
        <time>2017-10-23T18:51:35Z</time>
      </trkpt>
      <trkpt lat="62.63482482415" lon="17.976858994297">
        <ele>82.8</ele>
        <time>2017-10-23T18:51:36Z</time>
      </trkpt>
      <trkpt lat="62.634832703136" lon="17.976809792544">
        <ele>82.6</ele>
        <time>2017-10-23T18:51:37Z</time>
      </trkpt>
      <trkpt lat="62.634841504131" lon="17.976758076221">
        <ele>82.4</ele>
        <time>2017-10-23T18:51:38Z</time>
      </trkpt>
      <trkpt lat="62.634847622918" lon="17.976702085129">
        <ele>82.4</ele>
        <time>2017-10-23T18:51:39Z</time>
      </trkpt>
      <trkpt lat="62.634858603207" lon="17.976653805385">
        <ele>82.2</ele>
        <time>2017-10-23T18:51:40Z</time>
      </trkpt>
      <trkpt lat="62.634866482193" lon="17.976595299723">
        <ele>82.2</ele>
        <time>2017-10-23T18:51:41Z</time>
      </trkpt>
      <trkpt lat="62.634875031731" lon="17.97654693616">
        <ele>82.2</ele>
        <time>2017-10-23T18:51:42Z</time>
      </trkpt>
      <trkpt lat="62.634883832726" lon="17.976505529574">
        <ele>82</ele>
        <time>2017-10-23T18:51:43Z</time>
      </trkpt>
      <trkpt lat="62.634890538246" lon="17.976458255658">
        <ele>82</ele>
        <time>2017-10-23T18:51:44Z</time>
      </trkpt>
      <trkpt lat="62.634900512707" lon="17.976411400837">
        <ele>81.8</ele>
        <time>2017-10-23T18:51:45Z</time>
      </trkpt>
      <trkpt lat="62.634908726969" lon="17.976371922088">
        <ele>82</ele>
        <time>2017-10-23T18:51:46Z</time>
      </trkpt>
      <trkpt lat="62.634922221828" lon="17.976316601548">
        <ele>81.8</ele>
        <time>2017-10-23T18:51:47Z</time>
      </trkpt>
      <trkpt lat="62.634932699203" lon="17.976268992356">
        <ele>81.8</ele>
        <time>2017-10-23T18:51:48Z</time>
      </trkpt>
      <trkpt lat="62.634945104415" lon="17.976222221354">
        <ele>81.8</ele>
        <time>2017-10-23T18:51:49Z</time>
      </trkpt>
      <trkpt lat="62.634957341989" lon="17.976177713465">
        <ele>81.8</ele>
        <time>2017-10-23T18:51:50Z</time>
      </trkpt>
      <trkpt lat="62.634967232631" lon="17.97612281202">
        <ele>81.8</ele>
        <time>2017-10-23T18:51:51Z</time>
      </trkpt>
      <trkpt lat="62.634974273427" lon="17.976076879208">
        <ele>81.6</ele>
        <time>2017-10-23T18:51:52Z</time>
      </trkpt>
      <trkpt lat="62.634985169897" lon="17.976024073238">
        <ele>81.6</ele>
        <time>2017-10-23T18:51:53Z</time>
      </trkpt>
      <trkpt lat="62.634990450494" lon="17.975962969187">
        <ele>81.6</ele>
        <time>2017-10-23T18:51:54Z</time>
      </trkpt>
      <trkpt lat="62.63500000586" lon="17.975914354167">
        <ele>81.6</ele>
        <time>2017-10-23T18:51:55Z</time>
      </trkpt>
      <trkpt lat="62.635011321425" lon="17.975861464378">
        <ele>81.4</ele>
        <time>2017-10-23T18:51:56Z</time>
      </trkpt>
      <trkpt lat="62.63502096061" lon="17.975811927349">
        <ele>81.2</ele>
        <time>2017-10-23T18:51:57Z</time>
      </trkpt>
      <trkpt lat="62.635029258691" lon="17.975768509107">
        <ele>81.2</ele>
        <time>2017-10-23T18:51:58Z</time>
      </trkpt>
      <trkpt lat="62.635039736066" lon="17.975710087264">
        <ele>81</ele>
        <time>2017-10-23T18:51:59Z</time>
      </trkpt>
      <trkpt lat="62.635048453242" lon="17.975662142796">
        <ele>80.8</ele>
        <time>2017-10-23T18:52:00Z</time>
      </trkpt>
      <trkpt lat="62.635054739667" lon="17.975618389278">
        <ele>80.6</ele>
        <time>2017-10-23T18:52:01Z</time>
      </trkpt>
      <trkpt lat="62.635057170418" lon="17.97557798852">
        <ele>80.6</ele>
        <time>2017-10-23T18:52:02Z</time>
      </trkpt>
      <trkpt lat="62.635063289205" lon="17.975530044052">
        <ele>80.6</ele>
        <time>2017-10-23T18:52:03Z</time>
      </trkpt>
      <trkpt lat="62.635068821259" lon="17.975475561702">
        <ele>80.6</ele>
        <time>2017-10-23T18:52:04Z</time>
      </trkpt>
      <trkpt lat="62.635074269494" lon="17.97541873242">
        <ele>80.6</ele>
        <time>2017-10-23T18:52:05Z</time>
      </trkpt>
      <trkpt lat="62.635080136824" lon="17.975363914794">
        <ele>80.6</ele>
        <time>2017-10-23T18:52:06Z</time>
      </trkpt>
      <trkpt lat="62.635082735213" lon="17.975305995865">
        <ele>80.6</ele>
        <time>2017-10-23T18:52:07Z</time>
      </trkpt>
      <trkpt lat="62.635085417421" lon="17.975259811596">
        <ele>80.4</ele>
        <time>2017-10-23T18:52:08Z</time>
      </trkpt>
      <trkpt lat="62.635086758525" lon="17.975205496884">
        <ele>80.4</ele>
        <time>2017-10-23T18:52:09Z</time>
      </trkpt>
      <trkpt lat="62.635083238127" lon="17.975156546588">
        <ele>80.2</ele>
        <time>2017-10-23T18:52:10Z</time>
      </trkpt>
      <trkpt lat="62.635077454616" lon="17.975105165541">
        <ele>80</ele>
        <time>2017-10-23T18:52:11Z</time>
      </trkpt>
      <trkpt lat="62.635073598942" lon="17.975062334032">
        <ele>80</ele>
        <time>2017-10-23T18:52:12Z</time>
      </trkpt>
      <trkpt lat="62.635059684988" lon="17.975018831971">
        <ele>79.8</ele>
        <time>2017-10-23T18:52:13Z</time>
      </trkpt>
      <trkpt lat="62.63505281183" lon="17.974981783973">
        <ele>79.8</ele>
        <time>2017-10-23T18:52:14Z</time>
      </trkpt>
      <trkpt lat="62.635039736066" lon="17.974939539197">
        <ele>79.6</ele>
        <time>2017-10-23T18:52:15Z</time>
      </trkpt>
      <trkpt lat="62.635027749949" lon="17.974906263054">
        <ele>79.4</ele>
        <time>2017-10-23T18:52:16Z</time>
      </trkpt>
      <trkpt lat="62.635016602022" lon="17.974866868124">
        <ele>79.2</ele>
        <time>2017-10-23T18:52:17Z</time>
      </trkpt>
      <trkpt lat="62.634998748575" lon="17.974823030787">
        <ele>79</ele>
        <time>2017-10-23T18:52:18Z</time>
      </trkpt>
      <trkpt lat="62.634984331707" lon="17.974778271441">
        <ele>78.8</ele>
        <time>2017-10-23T18:52:19Z</time>
      </trkpt>
      <trkpt lat="62.634974776341" lon="17.974735356113">
        <ele>78.6</ele>
        <time>2017-10-23T18:52:20Z</time>
      </trkpt>
      <trkpt lat="62.63496564007" lon="17.974687663102">
        <ele>78.4</ele>
        <time>2017-10-23T18:52:21Z</time>
      </trkpt>
      <trkpt lat="62.634954408324" lon="17.974644663955">
        <ele>78</ele>
        <time>2017-10-23T18:52:22Z</time>
      </trkpt>
      <trkpt lat="62.634942925121" lon="17.974604933749">
        <ele>77.8</ele>
        <time>2017-10-23T18:52:23Z</time>
      </trkpt>
      <trkpt lat="62.634938063619" lon="17.974571657606">
        <ele>77.6</ele>
        <time>2017-10-23T18:52:24Z</time>
      </trkpt>
      <trkpt lat="62.634932615384" lon="17.974526730622">
        <ele>77.6</ele>
        <time>2017-10-23T18:52:25Z</time>
      </trkpt>
      <trkpt lat="62.634924401122" lon="17.97447241591">
        <ele>77.4</ele>
        <time>2017-10-23T18:52:26Z</time>
      </trkpt>
      <trkpt lat="62.634912666462" lon="17.974427572745">
        <ele>77.4</ele>
        <time>2017-10-23T18:52:27Z</time>
      </trkpt>
      <trkpt lat="62.634902692001" lon="17.974375856422">
        <ele>77.4</ele>
        <time>2017-10-23T18:52:28Z</time>
      </trkpt>
      <trkpt lat="62.634891627893" lon="17.974325397384">
        <ele>77.4</ele>
        <time>2017-10-23T18:52:29Z</time>
      </trkpt>
      <trkpt lat="62.634882575441" lon="17.974285164264">
        <ele>77.4</ele>
        <time>2017-10-23T18:52:30Z</time>
      </trkpt>
      <trkpt lat="62.634872517161" lon="17.974242835669">
        <ele>77.4</ele>
        <time>2017-10-23T18:52:31Z</time>
      </trkpt>
      <trkpt lat="62.634866398374" lon="17.974195561753">
        <ele>77.4</ele>
        <time>2017-10-23T18:52:32Z</time>
      </trkpt>
      <trkpt lat="62.63485751356" lon="17.974151472959">
        <ele>77.4</ele>
        <time>2017-10-23T18:52:33Z</time>
      </trkpt>
      <trkpt lat="62.634845862719" lon="17.974102941758">
        <ele>77.2</ele>
        <time>2017-10-23T18:52:34Z</time>
      </trkpt>
      <trkpt lat="62.634834211878" lon="17.974047202123">
        <ele>77.2</ele>
        <time>2017-10-23T18:52:35Z</time>
      </trkpt>
      <trkpt lat="62.634822477218" lon="17.974002945691">
        <ele>77.2</ele>
        <time>2017-10-23T18:52:36Z</time>
      </trkpt>
      <trkpt lat="62.634813340947" lon="17.973953408662">
        <ele>77.2</ele>
        <time>2017-10-23T18:52:37Z</time>
      </trkpt>
      <trkpt lat="62.634802528296" lon="17.973913846094">
        <ele>77.2</ele>
        <time>2017-10-23T18:52:38Z</time>
      </trkpt>
      <trkpt lat="62.634793559663" lon="17.973867075092">
        <ele>77</ele>
        <time>2017-10-23T18:52:39Z</time>
      </trkpt>
      <trkpt lat="62.634786183591" lon="17.973820555547">
        <ele>77.2</ele>
        <time>2017-10-23T18:52:40Z</time>
      </trkpt>
      <trkpt lat="62.634779310433" lon="17.973767749577">
        <ele>77</ele>
        <time>2017-10-23T18:52:41Z</time>
      </trkpt>
      <trkpt lat="62.634770760895" lon="17.973721313851">
        <ele>77</ele>
        <time>2017-10-23T18:52:42Z</time>
      </trkpt>
      <trkpt lat="62.634762630452" lon="17.973667250596">
        <ele>77</ele>
        <time>2017-10-23T18:52:43Z</time>
      </trkpt>
      <trkpt lat="62.634756846941" lon="17.973611930056">
        <ele>77</ele>
        <time>2017-10-23T18:52:44Z</time>
      </trkpt>
      <trkpt lat="62.634753326543" lon="17.97355459786">
        <ele>76.8</ele>
        <time>2017-10-23T18:52:45Z</time>
      </trkpt>
      <trkpt lat="62.634747626851" lon="17.973497014207">
        <ele>76.8</ele>
        <time>2017-10-23T18:52:46Z</time>
      </trkpt>
      <trkpt lat="62.634747207756" lon="17.973442196581">
        <ele>76.8</ele>
        <time>2017-10-23T18:52:47Z</time>
      </trkpt>
      <trkpt lat="62.634741424245" lon="17.973385199661">
        <ele>76.6</ele>
        <time>2017-10-23T18:52:48Z</time>
      </trkpt>
      <trkpt lat="62.634738322942" lon="17.973317809185">
        <ele>76.6</ele>
        <time>2017-10-23T18:52:49Z</time>
      </trkpt>
      <trkpt lat="62.63473597601" lon="17.973255112573">
        <ele>76.6</ele>
        <time>2017-10-23T18:52:50Z</time>
      </trkpt>
      <trkpt lat="62.634738155304" lon="17.973198702386">
        <ele>76.6</ele>
        <time>2017-10-23T18:52:51Z</time>
      </trkpt>
      <trkpt lat="62.634741675702" lon="17.973135586679">
        <ele>76.6</ele>
        <time>2017-10-23T18:52:52Z</time>
      </trkpt>
      <trkpt lat="62.634744860824" lon="17.973077081017">
        <ele>76.6</ele>
        <time>2017-10-23T18:52:53Z</time>
      </trkpt>
      <trkpt lat="62.634751985439" lon="17.973016312242">
        <ele>76.6</ele>
        <time>2017-10-23T18:52:54Z</time>
      </trkpt>
      <trkpt lat="62.634762714271" lon="17.972956046381">
        <ele>76.6</ele>
        <time>2017-10-23T18:52:55Z</time>
      </trkpt>
      <trkpt lat="62.634773275465" lon="17.972903910963">
        <ele>76.4</ele>
        <time>2017-10-23T18:52:56Z</time>
      </trkpt>
      <trkpt lat="62.634782663193" lon="17.972849428613">
        <ele>76.2</ele>
        <time>2017-10-23T18:52:57Z</time>
      </trkpt>
      <trkpt lat="62.634794565491" lon="17.972796790281">
        <ele>76.2</ele>
        <time>2017-10-23T18:52:58Z</time>
      </trkpt>
      <trkpt lat="62.634808479445" lon="17.972734345126">
        <ele>76.2</ele>
        <time>2017-10-23T18:52:59Z</time>
      </trkpt>
      <trkpt lat="62.634822141942" lon="17.972691094522">
        <ele>76</ele>
        <time>2017-10-23T18:53:00Z</time>
      </trkpt>
      <trkpt lat="62.634831948765" lon="17.972642395683">
        <ele>76</ele>
        <time>2017-10-23T18:53:01Z</time>
      </trkpt>
      <trkpt lat="62.634849047841" lon="17.972585147306">
        <ele>75.8</ele>
        <time>2017-10-23T18:53:02Z</time>
      </trkpt>
      <trkpt lat="62.634861117777" lon="17.972542651073">
        <ele>75.8</ele>
        <time>2017-10-23T18:53:03Z</time>
      </trkpt>
      <trkpt lat="62.634874864093" lon="17.972501412125">
        <ele>75.6</ele>
        <time>2017-10-23T18:53:04Z</time>
      </trkpt>
      <trkpt lat="62.634891460255" lon="17.972450785449">
        <ele>75.6</ele>
        <time>2017-10-23T18:53:05Z</time>
      </trkpt>
      <trkpt lat="62.634907721141" lon="17.972399236764">
        <ele>75.4</ele>
        <time>2017-10-23T18:53:06Z</time>
      </trkpt>
      <trkpt lat="62.634918198516" lon="17.972347268984">
        <ele>75.4</ele>
        <time>2017-10-23T18:53:07Z</time>
      </trkpt>
      <trkpt lat="62.634931441918" lon="17.972296893765">
        <ele>75.4</ele>
        <time>2017-10-23T18:53:08Z</time>
      </trkpt>
      <trkpt lat="62.634949463003" lon="17.972243417243">
        <ele>75.2</ele>
        <time>2017-10-23T18:53:09Z</time>
      </trkpt>
      <trkpt lat="62.634961281482" lon="17.972194047852">
        <ele>75</ele>
        <time>2017-10-23T18:53:10Z</time>
      </trkpt>
      <trkpt lat="62.634973938151" lon="17.972137889122">
        <ele>75</ele>
        <time>2017-10-23T18:53:11Z</time>
      </trkpt>
      <trkpt lat="62.634991372503" lon="17.972085502247">
        <ele>74.8</ele>
        <time>2017-10-23T18:53:12Z</time>
      </trkpt>
      <trkpt lat="62.635004951181" lon="17.972033031553">
        <ele>74.8</ele>
        <time>2017-10-23T18:53:13Z</time>
      </trkpt>
      <trkpt lat="62.635020625334" lon="17.971979890307">
        <ele>74.6</ele>
        <time>2017-10-23T18:53:14Z</time>
      </trkpt>
      <trkpt lat="62.635033030546" lon="17.971916187867">
        <ele>74.4</ele>
        <time>2017-10-23T18:53:15Z</time>
      </trkpt>
      <trkpt lat="62.635041244808" lon="17.971857598386">
        <ele>74.4</ele>
        <time>2017-10-23T18:53:16Z</time>
      </trkpt>
      <trkpt lat="62.63504778269" lon="17.97180194257">
        <ele>74</ele>
        <time>2017-10-23T18:53:17Z</time>
      </trkpt>
      <trkpt lat="62.635057170418" lon="17.971743017813">
        <ele>73.8</ele>
        <time>2017-10-23T18:53:18Z</time>
      </trkpt>
      <trkpt lat="62.635065300861" lon="17.971683003409">
        <ele>73.6</ele>
        <time>2017-10-23T18:53:19Z</time>
      </trkpt>
      <trkpt lat="62.635069659449" lon="17.971629107792">
        <ele>73.4</ele>
        <time>2017-10-23T18:53:20Z</time>
      </trkpt>
      <trkpt lat="62.635076700245" lon="17.97157395489">
        <ele>73</ele>
        <time>2017-10-23T18:53:21Z</time>
      </trkpt>
      <trkpt lat="62.63508298667" lon="17.971515533047">
        <ele>72.6</ele>
        <time>2017-10-23T18:53:22Z</time>
      </trkpt>
      <trkpt lat="62.635089021638" lon="17.97145744648">
        <ele>72.4</ele>
        <time>2017-10-23T18:53:23Z</time>
      </trkpt>
      <trkpt lat="62.635094134597" lon="17.971401036293">
        <ele>72.2</ele>
        <time>2017-10-23T18:53:24Z</time>
      </trkpt>
      <trkpt lat="62.635102935592" lon="17.971342446812">
        <ele>72.2</ele>
        <time>2017-10-23T18:53:25Z</time>
      </trkpt>
      <trkpt lat="62.635109473474" lon="17.971283689693">
        <ele>71.8</ele>
        <time>2017-10-23T18:53:26Z</time>
      </trkpt>
      <trkpt lat="62.635114586433" lon="17.971230213171">
        <ele>71.8</ele>
        <time>2017-10-23T18:53:27Z</time>
      </trkpt>
      <trkpt lat="62.635120789039" lon="17.971174641174">
        <ele>71.4</ele>
        <time>2017-10-23T18:53:28Z</time>
      </trkpt>
      <trkpt lat="62.635126069636" lon="17.9711121122">
        <ele>71.4</ele>
        <time>2017-10-23T18:53:29Z</time>
      </trkpt>
      <trkpt lat="62.635131098776" lon="17.971059390049">
        <ele>71</ele>
        <time>2017-10-23T18:53:30Z</time>
      </trkpt>
      <trkpt lat="62.635138055753" lon="17.971006164984">
        <ele>71</ele>
        <time>2017-10-23T18:53:31Z</time>
      </trkpt>
      <trkpt lat="62.635144845092" lon="17.970950090073">
        <ele>70.8</ele>
        <time>2017-10-23T18:53:32Z</time>
      </trkpt>
      <trkpt lat="62.63515004187" lon="17.970892590239">
        <ele>70.6</ele>
        <time>2017-10-23T18:53:33Z</time>
      </trkpt>
      <trkpt lat="62.635155322467" lon="17.970840790097">
        <ele>70.6</ele>
        <time>2017-10-23T18:53:34Z</time>
      </trkpt>
      <trkpt lat="62.635162111806" lon="17.970779434589">
        <ele>70.4</ele>
        <time>2017-10-23T18:53:35Z</time>
      </trkpt>
      <trkpt lat="62.635167895317" lon="17.970723946411">
        <ele>70.4</ele>
        <time>2017-10-23T18:53:36Z</time>
      </trkpt>
      <trkpt lat="62.635172673" lon="17.97066703331">
        <ele>70.2</ele>
        <time>2017-10-23T18:53:37Z</time>
      </trkpt>
      <trkpt lat="62.635178037416" lon="17.970607689458">
        <ele>70.2</ele>
        <time>2017-10-23T18:53:38Z</time>
      </trkpt>
      <trkpt lat="62.635185916402" lon="17.970550021986">
        <ele>70</ele>
        <time>2017-10-23T18:53:39Z</time>
      </trkpt>
      <trkpt lat="62.635190777904" lon="17.970497383654">
        <ele>70</ele>
        <time>2017-10-23T18:53:40Z</time>
      </trkpt>
      <trkpt lat="62.635194298302" lon="17.970431418101">
        <ele>69.8</ele>
        <time>2017-10-23T18:53:41Z</time>
      </trkpt>
      <trkpt lat="62.635201842012" lon="17.970378947407">
        <ele>69.6</ele>
        <time>2017-10-23T18:53:42Z</time>
      </trkpt>
      <trkpt lat="62.635206954971" lon="17.970328153093">
        <ele>69.6</ele>
        <time>2017-10-23T18:53:43Z</time>
      </trkpt>
      <trkpt lat="62.635212570844" lon="17.970270234164">
        <ele>69.4</ele>
        <time>2017-10-23T18:53:44Z</time>
      </trkpt>
      <trkpt lat="62.63522128802" lon="17.970212901968">
        <ele>69.2</ele>
        <time>2017-10-23T18:53:45Z</time>
      </trkpt>
      <trkpt lat="62.635230005196" lon="17.970169064631">
        <ele>68.8</ele>
        <time>2017-10-23T18:53:46Z</time>
      </trkpt>
      <trkpt lat="62.635239392924" lon="17.970119108507">
        <ele>68.6</ele>
        <time>2017-10-23T18:53:47Z</time>
      </trkpt>
      <trkpt lat="62.635251881955" lon="17.970064626157">
        <ele>68.4</ele>
        <time>2017-10-23T18:53:48Z</time>
      </trkpt>
      <trkpt lat="62.635266717918" lon="17.970011987825">
        <ele>68.2</ele>
        <time>2017-10-23T18:53:49Z</time>
      </trkpt>
      <trkpt lat="62.635276943836" lon="17.969957840751">
        <ele>67.8</ele>
        <time>2017-10-23T18:53:50Z</time>
      </trkpt>
      <trkpt lat="62.635286834478" lon="17.969901514383">
        <ele>67.8</ele>
        <time>2017-10-23T18:53:51Z</time>
      </trkpt>
      <trkpt lat="62.635299574966" lon="17.969848289318">
        <ele>67.4</ele>
        <time>2017-10-23T18:53:52Z</time>
      </trkpt>
      <trkpt lat="62.635310471436" lon="17.969799255203">
        <ele>67.2</ele>
        <time>2017-10-23T18:53:53Z</time>
      </trkpt>
      <trkpt lat="62.635324133933" lon="17.969742677378">
        <ele>67</ele>
        <time>2017-10-23T18:53:54Z</time>
      </trkpt>
      <trkpt lat="62.635339640448" lon="17.969684255535">
        <ele>66.8</ele>
        <time>2017-10-23T18:53:55Z</time>
      </trkpt>
      <trkpt lat="62.635351961841" lon="17.969622564751">
        <ele>66.6</ele>
        <time>2017-10-23T18:53:56Z</time>
      </trkpt>
      <trkpt lat="62.635363025949" lon="17.969568250039">
        <ele>66.2</ele>
        <time>2017-10-23T18:53:57Z</time>
      </trkpt>
      <trkpt lat="62.635372497496" lon="17.969511839852">
        <ele>66.2</ele>
        <time>2017-10-23T18:53:58Z</time>
      </trkpt>
      <trkpt lat="62.635384818889" lon="17.969445455204">
        <ele>66</ele>
        <time>2017-10-23T18:53:59Z</time>
      </trkpt>
      <trkpt lat="62.635396302092" lon="17.969388458284">
        <ele>65.8</ele>
        <time>2017-10-23T18:54:00Z</time>
      </trkpt>
      <trkpt lat="62.635407701476" lon="17.969336406685">
        <ele>65.6</ele>
        <time>2017-10-23T18:54:01Z</time>
      </trkpt>
      <trkpt lat="62.635421950706" lon="17.969286199104">
        <ele>65.4</ele>
        <time>2017-10-23T18:54:02Z</time>
      </trkpt>
      <trkpt lat="62.635434942651" lon="17.96923037565">
        <ele>65.2</ele>
        <time>2017-10-23T18:54:03Z</time>
      </trkpt>
      <trkpt lat="62.635446677311" lon="17.969176815309">
        <ele>65</ele>
        <time>2017-10-23T18:54:04Z</time>
      </trkpt>
      <trkpt lat="62.635462351464" lon="17.969121913864">
        <ele>64.8</ele>
        <time>2017-10-23T18:54:05Z</time>
      </trkpt>
      <trkpt lat="62.635474002305" lon="17.969064330211">
        <ele>64.4</ele>
        <time>2017-10-23T18:54:06Z</time>
      </trkpt>
      <trkpt lat="62.63548531787" lon="17.969016553381">
        <ele>64.2</ele>
        <time>2017-10-23T18:54:07Z</time>
      </trkpt>
      <trkpt lat="62.635498896548" lon="17.968968357456">
        <ele>63.8</ele>
        <time>2017-10-23T18:54:08Z</time>
      </trkpt>
      <trkpt lat="62.635512810502" lon="17.968908175414">
        <ele>63.4</ele>
        <time>2017-10-23T18:54:09Z</time>
      </trkpt>
      <trkpt lat="62.635526640637" lon="17.968863080792">
        <ele>63.2</ele>
        <time>2017-10-23T18:54:10Z</time>
      </trkpt>
      <trkpt lat="62.635541392781" lon="17.968810777736">
        <ele>63</ele>
        <time>2017-10-23T18:54:11Z</time>
      </trkpt>
      <trkpt lat="62.635558408038" lon="17.968761156888">
        <ele>62.8</ele>
        <time>2017-10-23T18:54:12Z</time>
      </trkpt>
      <trkpt lat="62.635570897069" lon="17.968714134429">
        <ele>62.6</ele>
        <time>2017-10-23T18:54:13Z</time>
      </trkpt>
      <trkpt lat="62.635585816851" lon="17.968665770866">
        <ele>62.4</ele>
        <time>2017-10-23T18:54:14Z</time>
      </trkpt>
      <trkpt lat="62.635601742461" lon="17.968617994036">
        <ele>62.2</ele>
        <time>2017-10-23T18:54:15Z</time>
      </trkpt>
      <trkpt lat="62.635617835709" lon="17.968569211378">
        <ele>62.2</ele>
        <time>2017-10-23T18:54:16Z</time>
      </trkpt>
      <trkpt lat="62.635633426043" lon="17.968521686005">
        <ele>62</ele>
        <time>2017-10-23T18:54:17Z</time>
      </trkpt>
      <trkpt lat="62.63564960311" lon="17.968474412089">
        <ele>61.8</ele>
        <time>2017-10-23T18:54:18Z</time>
      </trkpt>
      <trkpt lat="62.635666953643" lon="17.968418840092">
        <ele>61.6</ele>
        <time>2017-10-23T18:54:19Z</time>
      </trkpt>
      <trkpt lat="62.635682208701" lon="17.968372320547">
        <ele>61.6</ele>
        <time>2017-10-23T18:54:20Z</time>
      </trkpt>
      <trkpt lat="62.635695871198" lon="17.96832345407">
        <ele>61.4</ele>
        <time>2017-10-23T18:54:21Z</time>
      </trkpt>
      <trkpt lat="62.635710874799" lon="17.968275341964">
        <ele>61.2</ele>
        <time>2017-10-23T18:54:22Z</time>
      </trkpt>
      <trkpt lat="62.635724453477" lon="17.968224212374">
        <ele>61</ele>
        <time>2017-10-23T18:54:23Z</time>
      </trkpt>
      <trkpt lat="62.635733170653" lon="17.968176100268">
        <ele>61</ele>
        <time>2017-10-23T18:54:24Z</time>
      </trkpt>
      <trkpt lat="62.635743899485" lon="17.968132514388">
        <ele>60.6</ele>
        <time>2017-10-23T18:54:25Z</time>
      </trkpt>
      <trkpt lat="62.635756137059" lon="17.968083061178">
        <ele>60.4</ele>
        <time>2017-10-23T18:54:26Z</time>
      </trkpt>
      <trkpt lat="62.635767452624" lon="17.9680359549">
        <ele>60.2</ele>
        <time>2017-10-23T18:54:27Z</time>
      </trkpt>
      <trkpt lat="62.635775415429" lon="17.968001002377">
        <ele>60</ele>
        <time>2017-10-23T18:54:28Z</time>
      </trkpt>
      <trkpt lat="62.63578706627" lon="17.967955656298">
        <ele>59.8</ele>
        <time>2017-10-23T18:54:29Z</time>
      </trkpt>
      <trkpt lat="62.635796453998" lon="17.967910477857">
        <ele>59.8</ele>
        <time>2017-10-23T18:54:30Z</time>
      </trkpt>
      <trkpt lat="62.635802237509" lon="17.967864042131">
        <ele>59.6</ele>
        <time>2017-10-23T18:54:31Z</time>
      </trkpt>
      <trkpt lat="62.635805757907" lon="17.96782556921">
        <ele>59.6</ele>
        <time>2017-10-23T18:54:32Z</time>
      </trkpt>
      <trkpt lat="62.635808775391" lon="17.967778546751">
        <ele>59.4</ele>
        <time>2017-10-23T18:54:33Z</time>
      </trkpt>
      <trkpt lat="62.635807937201" lon="17.967728255351">
        <ele>59.2</ele>
        <time>2017-10-23T18:54:34Z</time>
      </trkpt>
      <trkpt lat="62.635805338812" lon="17.967675281743">
        <ele>59.2</ele>
        <time>2017-10-23T18:54:35Z</time>
      </trkpt>
      <trkpt lat="62.635803494794" lon="17.967626331447">
        <ele>59</ele>
        <time>2017-10-23T18:54:36Z</time>
      </trkpt>
      <trkpt lat="62.635802488966" lon="17.967573441658">
        <ele>59</ele>
        <time>2017-10-23T18:54:37Z</time>
      </trkpt>
      <trkpt lat="62.635801231681" lon="17.967530358692">
        <ele>58.8</ele>
        <time>2017-10-23T18:54:38Z</time>
      </trkpt>
      <trkpt lat="62.635797711283" lon="17.967477385084">
        <ele>58.8</ele>
        <time>2017-10-23T18:54:39Z</time>
      </trkpt>
      <trkpt lat="62.635796621636" lon="17.967428770064">
        <ele>58.8</ele>
        <time>2017-10-23T18:54:40Z</time>
      </trkpt>
      <trkpt lat="62.635797543645" lon="17.967371940782">
        <ele>58.6</ele>
        <time>2017-10-23T18:54:41Z</time>
      </trkpt>
      <trkpt lat="62.635796453998" lon="17.967323912495">
        <ele>58.4</ele>
        <time>2017-10-23T18:54:42Z</time>
      </trkpt>
      <trkpt lat="62.635796705455" lon="17.967275381294">
        <ele>58.4</ele>
        <time>2017-10-23T18:54:43Z</time>
      </trkpt>
      <trkpt lat="62.635797543645" lon="17.967218468193">
        <ele>58.4</ele>
        <time>2017-10-23T18:54:44Z</time>
      </trkpt>
      <trkpt lat="62.635797292188" lon="17.967169517897">
        <ele>58.2</ele>
        <time>2017-10-23T18:54:45Z</time>
      </trkpt>
      <trkpt lat="62.635795783446" lon="17.967127608397">
        <ele>58.2</ele>
        <time>2017-10-23T18:54:46Z</time>
      </trkpt>
      <trkpt lat="62.635791592496" lon="17.967078993377">
        <ele>58</ele>
        <time>2017-10-23T18:54:47Z</time>
      </trkpt>
      <trkpt lat="62.635789245564" lon="17.967032809108">
        <ele>58</ele>
        <time>2017-10-23T18:54:48Z</time>
      </trkpt>
      <trkpt lat="62.635787569184" lon="17.966984697002">
        <ele>57.8</ele>
        <time>2017-10-23T18:54:49Z</time>
      </trkpt>
      <trkpt lat="62.635785138433" lon="17.966943122778">
        <ele>57.6</ele>
        <time>2017-10-23T18:54:50Z</time>
      </trkpt>
      <trkpt lat="62.63578371351" lon="17.966894675396">
        <ele>57.4</ele>
        <time>2017-10-23T18:54:51Z</time>
      </trkpt>
      <trkpt lat="62.63578203713" lon="17.966852514439">
        <ele>57.2</ele>
        <time>2017-10-23T18:54:52Z</time>
      </trkpt>
      <trkpt lat="62.635778516732" lon="17.966810940215">
        <ele>57.2</ele>
        <time>2017-10-23T18:54:53Z</time>
      </trkpt>
      <trkpt lat="62.635774409601" lon="17.966766180869">
        <ele>57</ele>
        <time>2017-10-23T18:54:54Z</time>
      </trkpt>
      <trkpt lat="62.635772314126" lon="17.966712201433">
        <ele>57</ele>
        <time>2017-10-23T18:54:55Z</time>
      </trkpt>
      <trkpt lat="62.635768961366" lon="17.966666603897">
        <ele>57</ele>
        <time>2017-10-23T18:54:56Z</time>
      </trkpt>
      <trkpt lat="62.635763513131" lon="17.966611702452">
        <ele>56.8</ele>
        <time>2017-10-23T18:54:57Z</time>
      </trkpt>
      <trkpt lat="62.635760914742" lon="17.96656660783">
        <ele>56.6</ele>
        <time>2017-10-23T18:54:58Z</time>
      </trkpt>
      <trkpt lat="62.635758148715" lon="17.966505839055">
        <ele>56.6</ele>
        <time>2017-10-23T18:54:59Z</time>
      </trkpt>
      <trkpt lat="62.635754795955" lon="17.966457140216">
        <ele>56.4</ele>
        <time>2017-10-23T18:55:00Z</time>
      </trkpt>
      <trkpt lat="62.635752449023" lon="17.966403831332">
        <ele>56.2</ele>
        <time>2017-10-23T18:55:01Z</time>
      </trkpt>
      <trkpt lat="62.635753873946" lon="17.966355132493">
        <ele>56</ele>
        <time>2017-10-23T18:55:02Z</time>
      </trkpt>
      <trkpt lat="62.635755969421" lon="17.966303667627">
        <ele>56</ele>
        <time>2017-10-23T18:55:03Z</time>
      </trkpt>
      <trkpt lat="62.635757813439" lon="17.966255052607">
        <ele>55.8</ele>
        <time>2017-10-23T18:55:04Z</time>
      </trkpt>
      <trkpt lat="62.635765189511" lon="17.966194954384">
        <ele>55.8</ele>
        <time>2017-10-23T18:55:05Z</time>
      </trkpt>
      <trkpt lat="62.635777343266" lon="17.966144830622">
        <ele>55.6</ele>
        <time>2017-10-23T18:55:06Z</time>
      </trkpt>
      <trkpt lat="62.635788826469" lon="17.96609638324">
        <ele>55.6</ele>
        <time>2017-10-23T18:55:07Z</time>
      </trkpt>
      <trkpt lat="62.635804081527" lon="17.966052462084">
        <ele>55.4</ele>
        <time>2017-10-23T18:55:08Z</time>
      </trkpt>
      <trkpt lat="62.635823527535" lon="17.966004098521">
        <ele>55.2</ele>
        <time>2017-10-23T18:55:09Z</time>
      </trkpt>
      <trkpt lat="62.635838447317" lon="17.965970738559">
        <ele>55</ele>
        <time>2017-10-23T18:55:10Z</time>
      </trkpt>
      <trkpt lat="62.635856719859" lon="17.96592874524">
        <ele>54.8</ele>
        <time>2017-10-23T18:55:11Z</time>
      </trkpt>
      <trkpt lat="62.635877087876" lon="17.965887590111">
        <ele>54.6</ele>
        <time>2017-10-23T18:55:12Z</time>
      </trkpt>
      <trkpt lat="62.635894019314" lon="17.965853643416">
        <ele>54.6</ele>
        <time>2017-10-23T18:55:13Z</time>
      </trkpt>
      <trkpt lat="62.635910447838" lon="17.965813745572">
        <ele>54.6</ele>
        <time>2017-10-23T18:55:14Z</time>
      </trkpt>
      <trkpt lat="62.635927798371" lon="17.965776027022">
        <ele>54.4</ele>
        <time>2017-10-23T18:55:15Z</time>
      </trkpt>
      <trkpt lat="62.635945567999" lon="17.965742918517">
        <ele>54.4</ele>
        <time>2017-10-23T18:55:16Z</time>
      </trkpt>
      <trkpt lat="62.635960403962" lon="17.965707882175">
        <ele>54.2</ele>
        <time>2017-10-23T18:55:17Z</time>
      </trkpt>
      <trkpt lat="62.635978425047" lon="17.965669325435">
        <ele>54.2</ele>
        <time>2017-10-23T18:55:18Z</time>
      </trkpt>
      <trkpt lat="62.635997284322" lon="17.965632528894">
        <ele>54</ele>
        <time>2017-10-23T18:55:19Z</time>
      </trkpt>
      <trkpt lat="62.636013629027" lon="17.965599252751">
        <ele>54</ele>
        <time>2017-10-23T18:55:20Z</time>
      </trkpt>
      <trkpt lat="62.636030728103" lon="17.965564635504">
        <ele>54</ele>
        <time>2017-10-23T18:55:21Z</time>
      </trkpt>
      <trkpt lat="62.636049838835" lon="17.965529850619">
        <ele>54</ele>
        <time>2017-10-23T18:55:22Z</time>
      </trkpt>
      <trkpt lat="62.636069955395" lon="17.965496658295">
        <ele>53.8</ele>
        <time>2017-10-23T18:55:23Z</time>
      </trkpt>
      <trkpt lat="62.636090742507" lon="17.965460951401">
        <ele>53.8</ele>
        <time>2017-10-23T18:55:24Z</time>
      </trkpt>
      <trkpt lat="62.636112200171" lon="17.965423735765">
        <ele>53.8</ele>
        <time>2017-10-23T18:55:25Z</time>
      </trkpt>
      <trkpt lat="62.636131646179" lon="17.965391884545">
        <ele>53.8</ele>
        <time>2017-10-23T18:55:26Z</time>
      </trkpt>
      <trkpt lat="62.636148074703" lon="17.965360787696">
        <ele>53.6</ele>
        <time>2017-10-23T18:55:27Z</time>
      </trkpt>
      <trkpt lat="62.636165173779" lon="17.965328182105">
        <ele>53.6</ele>
        <time>2017-10-23T18:55:28Z</time>
      </trkpt>
      <trkpt lat="62.636187888728" lon="17.965293732496">
        <ele>53.4</ele>
        <time>2017-10-23T18:55:29Z</time>
      </trkpt>
      <trkpt lat="62.636205574537" lon="17.965256768317">
        <ele>53.2</ele>
        <time>2017-10-23T18:55:30Z</time>
      </trkpt>
      <trkpt lat="62.636225774916" lon="17.965228940409">
        <ele>53.2</ele>
        <time>2017-10-23T18:55:31Z</time>
      </trkpt>
      <trkpt lat="62.63624387982" lon="17.965197256827">
        <ele>53</ele>
        <time>2017-10-23T18:55:32Z</time>
      </trkpt>
      <trkpt lat="62.63626148181" lon="17.965158532449">
        <ele>52.8</ele>
        <time>2017-10-23T18:55:33Z</time>
      </trkpt>
      <trkpt lat="62.636280424904" lon="17.965119305157">
        <ele>52.8</ele>
        <time>2017-10-23T18:55:34Z</time>
      </trkpt>
      <trkpt lat="62.636300457645" lon="17.965078904399">
        <ele>52.6</ele>
        <time>2017-10-23T18:55:35Z</time>
      </trkpt>
      <trkpt lat="62.636316969988" lon="17.96503607289">
        <ele>52.4</ele>
        <time>2017-10-23T18:55:36Z</time>
      </trkpt>
      <trkpt lat="62.636330464847" lon="17.964989218069">
        <ele>52.4</ele>
        <time>2017-10-23T18:55:37Z</time>
      </trkpt>
      <trkpt lat="62.636349575579" lon="17.96495644484">
        <ele>52.2</ele>
        <time>2017-10-23T18:55:38Z</time>
      </trkpt>
      <trkpt lat="62.636369021587" lon="17.964920486489">
        <ele>52</ele>
        <time>2017-10-23T18:55:39Z</time>
      </trkpt>
      <trkpt lat="62.636384611921" lon="17.964892574762">
        <ele>51.8</ele>
        <time>2017-10-23T18:55:40Z</time>
      </trkpt>
      <trkpt lat="62.636405818128" lon="17.964864579216">
        <ele>51.6</ele>
        <time>2017-10-23T18:55:41Z</time>
      </trkpt>
      <trkpt lat="62.636423923032" lon="17.964836835127">
        <ele>51.6</ele>
        <time>2017-10-23T18:55:42Z</time>
      </trkpt>
      <trkpt lat="62.636439848642" lon="17.964811018875">
        <ele>51.6</ele>
        <time>2017-10-23T18:55:43Z</time>
      </trkpt>
      <trkpt lat="62.636459378469" lon="17.964787465736">
        <ele>51.4</ele>
        <time>2017-10-23T18:55:44Z</time>
      </trkpt>
      <trkpt lat="62.636479075934" lon="17.964756536525">
        <ele>51.4</ele>
        <time>2017-10-23T18:55:45Z</time>
      </trkpt>
      <trkpt lat="62.6364970132" lon="17.964731139368">
        <ele>51.4</ele>
        <time>2017-10-23T18:55:46Z</time>
      </trkpt>
      <trkpt lat="62.636516375389" lon="17.964700545433">
        <ele>51.4</ele>
        <time>2017-10-23T18:55:47Z</time>
      </trkpt>
      <trkpt lat="62.636539174157" lon="17.964667772204">
        <ele>51.4</ele>
        <time>2017-10-23T18:55:48Z</time>
      </trkpt>
      <trkpt lat="62.636558620165" lon="17.964635250432">
        <ele>51.4</ele>
        <time>2017-10-23T18:55:49Z</time>
      </trkpt>
      <trkpt lat="62.636578736725" lon="17.96461111056">
        <ele>51.4</ele>
        <time>2017-10-23T18:55:50Z</time>
      </trkpt>
      <trkpt lat="62.636599942932" lon="17.96458009753">
        <ele>51.4</ele>
        <time>2017-10-23T18:55:51Z</time>
      </trkpt>
      <trkpt lat="62.63661771256" lon="17.964556712029">
        <ele>51.2</ele>
        <time>2017-10-23T18:55:52Z</time>
      </trkpt>
      <trkpt lat="62.636636907111" lon="17.964527040103">
        <ele>51.2</ele>
        <time>2017-10-23T18:55:53Z</time>
      </trkpt>
      <trkpt lat="62.636657694223" lon="17.964503235507">
        <ele>51.2</ele>
        <time>2017-10-23T18:55:54Z</time>
      </trkpt>
      <trkpt lat="62.63667638586" lon="17.964480604377">
        <ele>51</ele>
        <time>2017-10-23T18:55:55Z</time>
      </trkpt>
      <trkpt lat="62.636693317298" lon="17.964465181681">
        <ele>51</ele>
        <time>2017-10-23T18:55:56Z</time>
      </trkpt>
      <trkpt lat="62.636712008935" lon="17.964447076777">
        <ele>50.8</ele>
        <time>2017-10-23T18:55:57Z</time>
      </trkpt>
      <trkpt lat="62.636727850726" lon="17.964427295493">
        <ele>50.8</ele>
        <time>2017-10-23T18:55:58Z</time>
      </trkpt>
      <trkpt lat="62.63674595563" lon="17.964400641051">
        <ele>50.8</ele>
        <time>2017-10-23T18:55:59Z</time>
      </trkpt>
      <trkpt lat="62.636763306163" lon="17.964374405704">
        <ele>50.8</ele>
        <time>2017-10-23T18:56:00Z</time>
      </trkpt>
      <trkpt lat="62.636782500714" lon="17.964353115678">
        <ele>50.6</ele>
        <time>2017-10-23T18:56:01Z</time>
      </trkpt>
      <trkpt lat="62.636795660297" lon="17.964341297199">
        <ele>50.6</ele>
        <time>2017-10-23T18:56:02Z</time>
      </trkpt>
      <trkpt lat="62.636815106305" lon="17.964320090992">
        <ele>50.6</ele>
        <time>2017-10-23T18:56:03Z</time>
      </trkpt>
      <trkpt lat="62.636831870105" lon="17.964293268912">
        <ele>50.4</ele>
        <time>2017-10-23T18:56:04Z</time>
      </trkpt>
      <trkpt lat="62.636850394104" lon="17.964264016081">
        <ele>50.4</ele>
        <time>2017-10-23T18:56:05Z</time>
      </trkpt>
      <trkpt lat="62.636866990266" lon="17.964232751594">
        <ele>50.4</ele>
        <time>2017-10-23T18:56:06Z</time>
      </trkpt>
      <trkpt lat="62.636884843713" lon="17.964209030817">
        <ele>50.4</ele>
        <time>2017-10-23T18:56:07Z</time>
      </trkpt>
      <trkpt lat="62.636903116255" lon="17.964191345008">
        <ele>50.2</ele>
        <time>2017-10-23T18:56:08Z</time>
      </trkpt>
      <trkpt lat="62.636922310806" lon="17.964180616176">
        <ele>50.2</ele>
        <time>2017-10-23T18:56:09Z</time>
      </trkpt>
      <trkpt lat="62.636940750986" lon="17.964158068865">
        <ele>50.2</ele>
        <time>2017-10-23T18:56:10Z</time>
      </trkpt>
      <trkpt lat="62.63696388503" lon="17.964133174622">
        <ele>50</ele>
        <time>2017-10-23T18:56:11Z</time>
      </trkpt>
      <trkpt lat="62.63698819254" lon="17.964122110514">
        <ele>50</ele>
        <time>2017-10-23T18:56:12Z</time>
      </trkpt>
      <trkpt lat="62.637009817842" lon="17.964118925392">
        <ele>49.8</ele>
        <time>2017-10-23T18:56:13Z</time>
      </trkpt>
      <trkpt lat="62.637033706257" lon="17.964113896252">
        <ele>49.8</ele>
        <time>2017-10-23T18:56:14Z</time>
      </trkpt>
      <trkpt lat="62.637059606328" lon="17.964115572632">
        <ele>49.8</ele>
        <time>2017-10-23T18:56:15Z</time>
      </trkpt>
      <trkpt lat="62.637081315449" lon="17.964106687818">
        <ele>49.8</ele>
        <time>2017-10-23T18:56:16Z</time>
      </trkpt>
      <trkpt lat="62.637103778941" lon="17.964097216271">
        <ele>49.6</ele>
        <time>2017-10-23T18:56:17Z</time>
      </trkpt>
      <trkpt lat="62.637129511374" lon="17.964094198787">
        <ele>49.4</ele>
        <time>2017-10-23T18:56:18Z</time>
      </trkpt>
      <trkpt lat="62.637157255463" lon="17.964084643421">
        <ele>49.4</ele>
        <time>2017-10-23T18:56:19Z</time>
      </trkpt>
      <trkpt lat="62.637179383679" lon="17.964075255693">
        <ele>49.4</ele>
        <time>2017-10-23T18:56:20Z</time>
      </trkpt>
      <trkpt lat="62.637203439732" lon="17.964074249865">
        <ele>49.2</ele>
        <time>2017-10-23T18:56:21Z</time>
      </trkpt>
      <trkpt lat="62.637225651767" lon="17.964072741123">
        <ele>49.2</ele>
        <time>2017-10-23T18:56:22Z</time>
      </trkpt>
      <trkpt lat="62.637246522698" lon="17.964065281232">
        <ele>49.2</ele>
        <time>2017-10-23T18:56:23Z</time>
      </trkpt>
      <trkpt lat="62.637271668398" lon="17.964060252092">
        <ele>49</ele>
        <time>2017-10-23T18:56:24Z</time>
      </trkpt>
      <trkpt lat="62.637295137718" lon="17.964057821341">
        <ele>48.8</ele>
        <time>2017-10-23T18:56:25Z</time>
      </trkpt>
      <trkpt lat="62.637319612866" lon="17.964052289287">
        <ele>48.8</ele>
        <time>2017-10-23T18:56:26Z</time>
      </trkpt>
      <trkpt lat="62.637339226512" lon="17.96404533231">
        <ele>48.6</ele>
        <time>2017-10-23T18:56:27Z</time>
      </trkpt>
    </trkseg>
  </trk>
</gpx>